<?xml version='1.0' encoding='UTF-8'?><gpx version="1.1" creator="JPX - https://github.com/jenetics/jpx" xmlns="http://www.topografix.com/GPX/1/1"><trk><trkseg><trkpt lat="44.5948104546199" lon="11.850413959369044"><ele>4.0</ele><time>2026-04-25T10:23:21Z</time></trkpt><trkpt lat="44.59473519748725" lon="11.850551546184205"><ele>4.0</ele><time>2026-04-25T10:23:22Z</time></trkpt><trkpt lat="44.59460459096223" lon="11.850704192170038"><ele>4.0</ele><time>2026-04-25T10:23:23Z</time></trkpt><trkpt lat="44.594499911581835" lon="11.850836931645585"><ele>4.0</ele><time>2026-04-25T10:23:24Z</time></trkpt><trkpt lat="44.59438111330167" lon="11.850953832918998"><ele>3.75</ele><time>2026-04-25T10:23:25Z</time></trkpt><trkpt lat="44.59430110856174" lon="11.851072649530636"><ele>3.5</ele><time>2026-04-25T10:23:26Z</time></trkpt><trkpt lat="44.59421652516684" lon="11.851198471589246"><ele>3.25</ele><time>2026-04-25T10:23:27Z</time></trkpt><trkpt lat="44.59414364483057" lon="11.85128378579666"><ele>3.0</ele><time>2026-04-25T10:23:28Z</time></trkpt><trkpt lat="44.594031321746115" lon="11.851375450118411"><ele>3.0</ele><time>2026-04-25T10:23:29Z</time></trkpt><trkpt lat="44.59391340272969" lon="11.851448614217759"><ele>3.0</ele><time>2026-04-25T10:23:30Z</time></trkpt><trkpt lat="44.593763868814385" lon="11.851512149825565"><ele>3.0</ele><time>2026-04-25T10:23:31Z</time></trkpt><trkpt lat="44.59361320436595" lon="11.851565425851831"><ele>3.0</ele><time>2026-04-25T10:23:32Z</time></trkpt><trkpt lat="44.59346285086873" lon="11.851541823058028"><ele>3.25</ele><time>2026-04-25T10:23:33Z</time></trkpt><trkpt lat="44.59330945318922" lon="11.85155191794419"><ele>3.5</ele><time>2026-04-25T10:23:34Z</time></trkpt><trkpt lat="44.59317985915662" lon="11.851544766182148"><ele>3.75</ele><time>2026-04-25T10:23:35Z</time></trkpt><trkpt lat="44.59302413373066" lon="11.851503379590444"><ele>4.0</ele><time>2026-04-25T10:23:36Z</time></trkpt><trkpt lat="44.592860044617204" lon="11.851464692726797"><ele>3.25</ele><time>2026-04-25T10:23:37Z</time></trkpt><trkpt lat="44.592698000107056" lon="11.85144769797335"><ele>2.5</ele><time>2026-04-25T10:23:38Z</time></trkpt><trkpt lat="44.592544390720974" lon="11.851413301988366"><ele>1.75</ele><time>2026-04-25T10:23:39Z</time></trkpt><trkpt lat="44.59242067980563" lon="11.851390686882647"><ele>1.0</ele><time>2026-04-25T10:23:40Z</time></trkpt><trkpt lat="44.592306242362966" lon="11.85135126743977"><ele>1.0</ele><time>2026-04-25T10:23:41Z</time></trkpt><trkpt lat="44.592213335713424" lon="11.851349132243785"><ele>1.0</ele><time>2026-04-25T10:23:42Z</time></trkpt><trkpt lat="44.59206177797513" lon="11.851338317397676"><ele>1.0</ele><time>2026-04-25T10:23:43Z</time></trkpt><trkpt lat="44.591938793679226" lon="11.851358212465556"><ele>1.0</ele><time>2026-04-25T10:23:44Z</time></trkpt><trkpt lat="44.59176825584589" lon="11.851409690824044"><ele>1.3333333333333333</ele><time>2026-04-25T10:23:45Z</time></trkpt><trkpt lat="44.59162079843192" lon="11.85145062059633"><ele>1.6666666666666665</ele><time>2026-04-25T10:23:46Z</time></trkpt><trkpt lat="44.591481218098956" lon="11.851469246632227"><ele>2.0</ele><time>2026-04-25T10:23:47Z</time></trkpt><trkpt lat="44.591315529083985" lon="11.85156816231708"><ele>2.0</ele><time>2026-04-25T10:23:48Z</time></trkpt><trkpt lat="44.59118034264344" lon="11.851607541197923"><ele>2.0</ele><time>2026-04-25T10:23:49Z</time></trkpt><trkpt lat="44.591053068905204" lon="11.851688347460396"><ele>2.0</ele><time>2026-04-25T10:23:50Z</time></trkpt><trkpt lat="44.590914974259334" lon="11.851735099037677"><ele>2.0</ele><time>2026-04-25T10:23:51Z</time></trkpt><trkpt lat="44.59079727304522" lon="11.851808188749128"><ele>1.5</ele><time>2026-04-25T10:23:52Z</time></trkpt><trkpt lat="44.59067486395389" lon="11.851915825557365"><ele>1.0</ele><time>2026-04-25T10:23:53Z</time></trkpt><trkpt lat="44.5905620519899" lon="11.852052673386337"><ele>0.5</ele><time>2026-04-25T10:23:54Z</time></trkpt><trkpt lat="44.590459528625765" lon="11.852211365004852"><ele>0.0</ele><time>2026-04-25T10:23:55Z</time></trkpt><trkpt lat="44.590359210642454" lon="11.852376631046543"><ele>0.0</ele><time>2026-04-25T10:23:56Z</time></trkpt><trkpt lat="44.59024201193669" lon="11.852522701148793"><ele>0.0</ele><time>2026-04-25T10:23:57Z</time></trkpt><trkpt lat="44.590121539173474" lon="11.852676078889646"><ele>0.0</ele><time>2026-04-25T10:23:58Z</time></trkpt><trkpt lat="44.590004835803335" lon="11.852831715062953"><ele>0.0</ele><time>2026-04-25T10:23:59Z</time></trkpt><trkpt lat="44.58988472647542" lon="11.8529892204438"><ele>0.0</ele><time>2026-04-25T10:24:00Z</time></trkpt><trkpt lat="44.58976044089378" lon="11.853152503445415"><ele>0.0</ele><time>2026-04-25T10:24:01Z</time></trkpt><trkpt lat="44.58963652839588" lon="11.853317616796929"><ele>-0.3333333333333333</ele><time>2026-04-25T10:24:02Z</time></trkpt><trkpt lat="44.58951437963689" lon="11.85348284338767"><ele>-0.6666666666666666</ele><time>2026-04-25T10:24:03Z</time></trkpt><trkpt lat="44.58939385673759" lon="11.853641703749185"><ele>-1.0</ele><time>2026-04-25T10:24:04Z</time></trkpt><trkpt lat="44.589269767625815" lon="11.853803615543853"><ele>0.0</ele><time>2026-04-25T10:24:05Z</time></trkpt><trkpt lat="44.58914274433717" lon="11.853949555370674"><ele>1.0</ele><time>2026-04-25T10:24:06Z</time></trkpt><trkpt lat="44.5889984332335" lon="11.854064192231181"><ele>2.0</ele><time>2026-04-25T10:24:07Z</time></trkpt><trkpt lat="44.58885795017535" lon="11.854175140655586"><ele>2.0</ele><time>2026-04-25T10:24:08Z</time></trkpt><trkpt lat="44.58870669418306" lon="11.854284658425755"><ele>2.0</ele><time>2026-04-25T10:24:09Z</time></trkpt><trkpt lat="44.58855760654161" lon="11.854392346378892"><ele>2.0</ele><time>2026-04-25T10:24:10Z</time></trkpt><trkpt lat="44.588412214425084" lon="11.854501241574258"><ele>1.3333333333333333</ele><time>2026-04-25T10:24:11Z</time></trkpt><trkpt lat="44.5882792076378" lon="11.854614169729832"><ele>0.6666666666666666</ele><time>2026-04-25T10:24:12Z</time></trkpt><trkpt lat="44.588151524844" lon="11.854725791998684"><ele>0.0</ele><time>2026-04-25T10:24:13Z</time></trkpt><trkpt lat="44.58802304400412" lon="11.854848076190292"><ele>0.0</ele><time>2026-04-25T10:24:14Z</time></trkpt><trkpt lat="44.5879037637246" lon="11.854994395503246"><ele>0.0</ele><time>2026-04-25T10:24:15Z</time></trkpt><trkpt lat="44.587789841370785" lon="11.855155773734337"><ele>0.0</ele><time>2026-04-25T10:24:16Z</time></trkpt><trkpt lat="44.58768540747847" lon="11.855332990279678"><ele>0.0</ele><time>2026-04-25T10:24:17Z</time></trkpt><trkpt lat="44.58758424615931" lon="11.855519922552695"><ele>0.0</ele><time>2026-04-25T10:24:18Z</time></trkpt><trkpt lat="44.587488601142454" lon="11.855717324131144"><ele>0.0</ele><time>2026-04-25T10:24:19Z</time></trkpt><trkpt lat="44.5873948175581" lon="11.85592290637607"><ele>0.0</ele><time>2026-04-25T10:24:20Z</time></trkpt><trkpt lat="44.58729791785852" lon="11.856126225675307"><ele>0.0</ele><time>2026-04-25T10:24:21Z</time></trkpt><trkpt lat="44.587201540539255" lon="11.856331762218572"><ele>0.0</ele><time>2026-04-25T10:24:22Z</time></trkpt><trkpt lat="44.587090724085776" lon="11.856535026941243"><ele>0.3333333333333333</ele><time>2026-04-25T10:24:23Z</time></trkpt><trkpt lat="44.58698052615293" lon="11.856739160648674"><ele>0.6666666666666666</ele><time>2026-04-25T10:24:24Z</time></trkpt><trkpt lat="44.58687327626524" lon="11.85694496489117"><ele>1.0</ele><time>2026-04-25T10:24:25Z</time></trkpt><trkpt lat="44.58675395746158" lon="11.85713921572347"><ele>1.0</ele><time>2026-04-25T10:24:26Z</time></trkpt><trkpt lat="44.58664448585262" lon="11.857328770647372"><ele>1.0</ele><time>2026-04-25T10:24:27Z</time></trkpt><trkpt lat="44.58652032265912" lon="11.857499827855888"><ele>1.0</ele><time>2026-04-25T10:24:28Z</time></trkpt><trkpt lat="44.586395813501895" lon="11.857657052862152"><ele>1.3333333333333333</ele><time>2026-04-25T10:24:29Z</time></trkpt><trkpt lat="44.58626301842518" lon="11.857796731680818"><ele>1.6666666666666665</ele><time>2026-04-25T10:24:30Z</time></trkpt><trkpt lat="44.58611794523087" lon="11.85791947533732"><ele>2.0</ele><time>2026-04-25T10:24:31Z</time></trkpt><trkpt lat="44.58596426066901" lon="11.858027474414909"><ele>2.0</ele><time>2026-04-25T10:24:32Z</time></trkpt><trkpt lat="44.5858065000806" lon="11.858131736347124"><ele>2.0</ele><time>2026-04-25T10:24:33Z</time></trkpt><trkpt lat="44.585654951166354" lon="11.858220296729353"><ele>2.0</ele><time>2026-04-25T10:24:34Z</time></trkpt><trkpt lat="44.58551034202081" lon="11.858300056437404"><ele>2.0</ele><time>2026-04-25T10:24:35Z</time></trkpt><trkpt lat="44.58536231101005" lon="11.858371849142204"><ele>2.0</ele><time>2026-04-25T10:24:36Z</time></trkpt><trkpt lat="44.58521175412032" lon="11.858431072294719"><ele>2.0</ele><time>2026-04-25T10:24:37Z</time></trkpt><trkpt lat="44.585064516075946" lon="11.858480408502858"><ele>1.25</ele><time>2026-04-25T10:24:38Z</time></trkpt><trkpt lat="44.58492692597589" lon="11.858521034851025"><ele>0.5</ele><time>2026-04-25T10:24:39Z</time></trkpt><trkpt lat="44.58479633141797" lon="11.858558616176543"><ele>-0.25</ele><time>2026-04-25T10:24:40Z</time></trkpt><trkpt lat="44.584675388600175" lon="11.858595393479815"><ele>-1.0</ele><time>2026-04-25T10:24:41Z</time></trkpt><trkpt lat="44.584561521338124" lon="11.858628445609071"><ele>-0.6000000000000001</ele><time>2026-04-25T10:24:42Z</time></trkpt><trkpt lat="44.58445513518034" lon="11.858660906394263"><ele>-0.20000000000000007</ele><time>2026-04-25T10:24:42.999Z</time></trkpt><trkpt lat="44.584354654390545" lon="11.858698452290001"><ele>0.20000000000000007</ele><time>2026-04-25T10:24:43.999Z</time></trkpt><trkpt lat="44.58425448276895" lon="11.858749563119334"><ele>0.6000000000000001</ele><time>2026-04-25T10:24:44.999Z</time></trkpt><trkpt lat="44.584150518389315" lon="11.858815100564637"><ele>1.0</ele><time>2026-04-25T10:24:45.999Z</time></trkpt><trkpt lat="44.584049281506324" lon="11.858901122217052"><ele>1.0</ele><time>2026-04-25T10:24:46.999Z</time></trkpt><trkpt lat="44.58395872295286" lon="11.859013474331087"><ele>1.0</ele><time>2026-04-25T10:24:47.999Z</time></trkpt><trkpt lat="44.583880495137514" lon="11.859154736003827"><ele>1.0</ele><time>2026-04-25T10:24:48.999Z</time></trkpt><trkpt lat="44.583819085442926" lon="11.859321263411372"><ele>1.0</ele><time>2026-04-25T10:24:49.999Z</time></trkpt><trkpt lat="44.583776178145975" lon="11.859499075892051"><ele>1.25</ele><time>2026-04-25T10:24:50.999Z</time></trkpt><trkpt lat="44.58375251630824" lon="11.859675490727161"><ele>1.5</ele><time>2026-04-25T10:24:51.999Z</time></trkpt><trkpt lat="44.583734688332896" lon="11.85986261861364"><ele>1.75</ele><time>2026-04-25T10:24:52.999Z</time></trkpt><trkpt lat="44.58372326227837" lon="11.860045984593805"><ele>2.0</ele><time>2026-04-25T10:24:53.999Z</time></trkpt><trkpt lat="44.58370791547941" lon="11.860222000611595"><ele>2.25</ele><time>2026-04-25T10:24:54.999Z</time></trkpt><trkpt lat="44.58369219913071" lon="11.860404316908955"><ele>2.5</ele><time>2026-04-25T10:24:55.999Z</time></trkpt><trkpt lat="44.5836818141603" lon="11.860582751402815"><ele>2.75</ele><time>2026-04-25T10:24:56.999Z</time></trkpt><trkpt lat="44.58367493077413" lon="11.860760173958976"><ele>3.0</ele><time>2026-04-25T10:24:57.999Z</time></trkpt><trkpt lat="44.5836765120436" lon="11.860933870009537"><ele>3.25</ele><time>2026-04-25T10:24:58.999Z</time></trkpt><trkpt lat="44.58367712804802" lon="11.861106671954364"><ele>3.5</ele><time>2026-04-25T10:24:59.999Z</time></trkpt><trkpt lat="44.58368358518241" lon="11.86127986409223"><ele>3.75</ele><time>2026-04-25T10:25:00.999Z</time></trkpt><trkpt lat="44.58369093149626" lon="11.861452106877099"><ele>4.0</ele><time>2026-04-25T10:25:01.999Z</time></trkpt><trkpt lat="44.58369606948153" lon="11.86162484925363"><ele>3.5</ele><time>2026-04-25T10:25:02.999Z</time></trkpt><trkpt lat="44.583705808467194" lon="11.86179793535621"><ele>3.0</ele><time>2026-04-25T10:25:03.999Z</time></trkpt><trkpt lat="44.58371512506577" lon="11.86195894802206"><ele>2.5</ele><time>2026-04-25T10:25:04.999Z</time></trkpt><trkpt lat="44.58372587300856" lon="11.86212654408204"><ele>2.0</ele><time>2026-04-25T10:25:05.999Z</time></trkpt><trkpt lat="44.583735374793456" lon="11.862299474660885"><ele>2.0</ele><time>2026-04-25T10:25:06.999Z</time></trkpt><trkpt lat="44.5837488753827" lon="11.862476841284748"><ele>2.0</ele><time>2026-04-25T10:25:07.999Z</time></trkpt><trkpt lat="44.583770097320986" lon="11.862656823784443"><ele>2.0</ele><time>2026-04-25T10:25:08.999Z</time></trkpt><trkpt lat="44.58379646995273" lon="11.862840018386084"><ele>2.0</ele><time>2026-04-25T10:25:09.999Z</time></trkpt><trkpt lat="44.58382375958446" lon="11.863012237683353"><ele>2.0</ele><time>2026-04-25T10:25:10.999Z</time></trkpt><trkpt lat="44.58385050263843" lon="11.86317811533106"><ele>2.0</ele><time>2026-04-25T10:25:11.999Z</time></trkpt><trkpt lat="44.58387768018224" lon="11.863344782561844"><ele>2.0</ele><time>2026-04-25T10:25:12.999Z</time></trkpt><trkpt lat="44.583905076838505" lon="11.863510974928259"><ele>2.0</ele><time>2026-04-25T10:25:13.999Z</time></trkpt><trkpt lat="44.58392845851575" lon="11.86368228264513"><ele>2.0</ele><time>2026-04-25T10:25:14.999Z</time></trkpt><trkpt lat="44.583952231439866" lon="11.863853874868207"><ele>2.0</ele><time>2026-04-25T10:25:15.999Z</time></trkpt><trkpt lat="44.58397721270608" lon="11.864024192528483"><ele>2.0</ele><time>2026-04-25T10:25:16.999Z</time></trkpt><trkpt lat="44.58400399254875" lon="11.864195446937636"><ele>2.0</ele><time>2026-04-25T10:25:17.999Z</time></trkpt><trkpt lat="44.58402647460543" lon="11.86436774368813"><ele>2.0</ele><time>2026-04-25T10:25:18.999Z</time></trkpt><trkpt lat="44.58404727615034" lon="11.864540317752764"><ele>2.0</ele><time>2026-04-25T10:25:19.999Z</time></trkpt><trkpt lat="44.584067697642496" lon="11.86471265672063"><ele>2.0</ele><time>2026-04-25T10:25:21Z</time></trkpt><trkpt lat="44.5840827656492" lon="11.864886131773149"><ele>2.0</ele><time>2026-04-25T10:25:22Z</time></trkpt><trkpt lat="44.584092292414" lon="11.865065333436121"><ele>2.0</ele><time>2026-04-25T10:25:23Z</time></trkpt><trkpt lat="44.58409648031127" lon="11.865246845403718"><ele>2.0</ele><time>2026-04-25T10:25:24Z</time></trkpt><trkpt lat="44.584092894224845" lon="11.865430134824868"><ele>2.0</ele><time>2026-04-25T10:25:25Z</time></trkpt><trkpt lat="44.58407673881085" lon="11.865616025639632"><ele>2.0</ele><time>2026-04-25T10:25:26Z</time></trkpt><trkpt lat="44.58405627475452" lon="11.865800765316898"><ele>2.0</ele><time>2026-04-25T10:25:27Z</time></trkpt><trkpt lat="44.584026565101084" lon="11.865992249050116"><ele>2.0</ele><time>2026-04-25T10:25:28Z</time></trkpt><trkpt lat="44.583993664794185" lon="11.866184885809144"><ele>2.0</ele><time>2026-04-25T10:25:29Z</time></trkpt><trkpt lat="44.58395576712871" lon="11.866380206699338"><ele>2.0</ele><time>2026-04-25T10:25:30Z</time></trkpt><trkpt lat="44.583915555049366" lon="11.86657768993685"><ele>2.0</ele><time>2026-04-25T10:25:31Z</time></trkpt><trkpt lat="44.583878755079205" lon="11.866773691377706"><ele>2.0</ele><time>2026-04-25T10:25:32Z</time></trkpt><trkpt lat="44.58383537573819" lon="11.866964431157312"><ele>2.0</ele><time>2026-04-25T10:25:33Z</time></trkpt><trkpt lat="44.58379125005431" lon="11.86714990898124"><ele>2.0</ele><time>2026-04-25T10:25:34Z</time></trkpt><trkpt lat="44.58374555554137" lon="11.867330832865498"><ele>2.0</ele><time>2026-04-25T10:25:35Z</time></trkpt><trkpt lat="44.58369531571729" lon="11.867503470321704"><ele>2.0</ele><time>2026-04-25T10:25:36Z</time></trkpt><trkpt lat="44.58364126836047" lon="11.86766760738258"><ele>2.0</ele><time>2026-04-25T10:25:37Z</time></trkpt><trkpt lat="44.58358467583031" lon="11.867825729882753"><ele>2.0</ele><time>2026-04-25T10:25:38Z</time></trkpt><trkpt lat="44.583517535331666" lon="11.868001646678618"><ele>2.0</ele><time>2026-04-25T10:25:39Z</time></trkpt><trkpt lat="44.58346120569698" lon="11.868159790979828"><ele>2.0</ele><time>2026-04-25T10:25:40Z</time></trkpt><trkpt lat="44.583401037150566" lon="11.868316652690178"><ele>2.0</ele><time>2026-04-25T10:25:41Z</time></trkpt><trkpt lat="44.58333334632313" lon="11.868473563718286"><ele>2.0</ele><time>2026-04-25T10:25:42Z</time></trkpt><trkpt lat="44.58326352288105" lon="11.868622170035774"><ele>2.0</ele><time>2026-04-25T10:25:43Z</time></trkpt><trkpt lat="44.58319031196388" lon="11.868775059938637"><ele>2.0</ele><time>2026-04-25T10:25:44Z</time></trkpt><trkpt lat="44.58311345281156" lon="11.868929199088637"><ele>2.0</ele><time>2026-04-25T10:25:45Z</time></trkpt><trkpt lat="44.5830334044355" lon="11.86908113337982"><ele>2.0</ele><time>2026-04-25T10:25:46Z</time></trkpt><trkpt lat="44.5829444528109" lon="11.869230242130183"><ele>1.75</ele><time>2026-04-25T10:25:47Z</time></trkpt><trkpt lat="44.58285693020069" lon="11.869380383617784"><ele>1.5</ele><time>2026-04-25T10:25:48Z</time></trkpt><trkpt lat="44.58276694323438" lon="11.869527649393987"><ele>1.25</ele><time>2026-04-25T10:25:49Z</time></trkpt><trkpt lat="44.582673713155025" lon="11.869673212634355"><ele>1.0</ele><time>2026-04-25T10:25:50Z</time></trkpt><trkpt lat="44.58257958748147" lon="11.86981444302688"><ele>1.0</ele><time>2026-04-25T10:25:51Z</time></trkpt><trkpt lat="44.582485056578605" lon="11.869957255810155"><ele>1.0</ele><time>2026-04-25T10:25:52Z</time></trkpt><trkpt lat="44.582385122146775" lon="11.87009644169477"><ele>1.0</ele><time>2026-04-25T10:25:53Z</time></trkpt><trkpt lat="44.582285722925484" lon="11.870234579130694"><ele>1.0</ele><time>2026-04-25T10:25:54Z</time></trkpt><trkpt lat="44.582182296518596" lon="11.870370802651728"><ele>0.75</ele><time>2026-04-25T10:25:55Z</time></trkpt><trkpt lat="44.582082889879814" lon="11.870501273992888"><ele>0.5</ele><time>2026-04-25T10:25:56Z</time></trkpt><trkpt lat="44.58198204793994" lon="11.870628707048578"><ele>0.25</ele><time>2026-04-25T10:25:57Z</time></trkpt><trkpt lat="44.58189262802189" lon="11.8707642757956"><ele>0.0</ele><time>2026-04-25T10:25:58Z</time></trkpt><trkpt lat="44.581785230913006" lon="11.870894427726302"><ele>0.0</ele><time>2026-04-25T10:25:59Z</time></trkpt><trkpt lat="44.58168564922809" lon="11.871032647699748"><ele>0.0</ele><time>2026-04-25T10:26:00Z</time></trkpt><trkpt lat="44.58158161631903" lon="11.871170355300109"><ele>0.0</ele><time>2026-04-25T10:26:01Z</time></trkpt><trkpt lat="44.58147581346704" lon="11.871313870588976"><ele>0.0</ele><time>2026-04-25T10:26:02Z</time></trkpt><trkpt lat="44.58137898652516" lon="11.871456831616328"><ele>0.0</ele><time>2026-04-25T10:26:03Z</time></trkpt><trkpt lat="44.58127629745745" lon="11.871610072397281"><ele>0.0</ele><time>2026-04-25T10:26:03.999Z</time></trkpt><trkpt lat="44.581178653286166" lon="11.871763982085891"><ele>0.0</ele><time>2026-04-25T10:26:04.999Z</time></trkpt><trkpt lat="44.58108265655292" lon="11.8719126847087"><ele>0.0</ele><time>2026-04-25T10:26:05.999Z</time></trkpt><trkpt lat="44.5809859365376" lon="11.872052998312068"><ele>0.25</ele><time>2026-04-25T10:26:06.999Z</time></trkpt><trkpt lat="44.58088714359046" lon="11.872195567213183"><ele>0.5</ele><time>2026-04-25T10:26:07.999Z</time></trkpt><trkpt lat="44.580786287299055" lon="11.87233856155484"><ele>0.75</ele><time>2026-04-25T10:26:08.999Z</time></trkpt><trkpt lat="44.580684704832194" lon="11.872483548732712"><ele>1.0</ele><time>2026-04-25T10:26:09.999Z</time></trkpt><trkpt lat="44.58057240620068" lon="11.872626941723615"><ele>1.6666666666666665</ele><time>2026-04-25T10:26:10.999Z</time></trkpt><trkpt lat="44.58045895762386" lon="11.87277945616601"><ele>2.3333333333333335</ele><time>2026-04-25T10:26:11.999Z</time></trkpt><trkpt lat="44.580342680213434" lon="11.872939959920176"><ele>3.0</ele><time>2026-04-25T10:26:12.999Z</time></trkpt><trkpt lat="44.58021697247239" lon="11.873102497835017"><ele>3.0</ele><time>2026-04-25T10:26:13.999Z</time></trkpt><trkpt lat="44.580087651883495" lon="11.873271952872637"><ele>3.0</ele><time>2026-04-25T10:26:14.999Z</time></trkpt><trkpt lat="44.57995651252398" lon="11.873446603128174"><ele>3.0</ele><time>2026-04-25T10:26:15.999Z</time></trkpt><trkpt lat="44.57981739737082" lon="11.873618670763243"><ele>3.0</ele><time>2026-04-25T10:26:16.999Z</time></trkpt><trkpt lat="44.57967742869636" lon="11.873799578186347"><ele>3.0</ele><time>2026-04-25T10:26:17.999Z</time></trkpt><trkpt lat="44.57953552101526" lon="11.873980965395255"><ele>3.0</ele><time>2026-04-25T10:26:18.999Z</time></trkpt><trkpt lat="44.57940036428653" lon="11.874158072845129"><ele>3.0</ele><time>2026-04-25T10:26:19.999Z</time></trkpt><trkpt lat="44.579269983013916" lon="11.87433263863105"><ele>3.0</ele><time>2026-04-25T10:26:20.999Z</time></trkpt><trkpt lat="44.57914870817547" lon="11.874492669497416"><ele>3.0</ele><time>2026-04-25T10:26:21.999Z</time></trkpt><trkpt lat="44.57903535139191" lon="11.874644387749708"><ele>3.0</ele><time>2026-04-25T10:26:22.999Z</time></trkpt><trkpt lat="44.578926433685126" lon="11.87478487019344"><ele>3.0</ele><time>2026-04-25T10:26:23.999Z</time></trkpt><trkpt lat="44.57882207200317" lon="11.874916597079402"><ele>3.0</ele><time>2026-04-25T10:26:24.999Z</time></trkpt><trkpt lat="44.578722002360806" lon="11.875043464738477"><ele>3.0</ele><time>2026-04-25T10:26:25.999Z</time></trkpt><trkpt lat="44.57863054412654" lon="11.875162394590852"><ele>3.8</ele><time>2026-04-25T10:26:26.999Z</time></trkpt><trkpt lat="44.578553035918624" lon="11.875257909709209"><ele>4.6</ele><time>2026-04-25T10:26:27.999Z</time></trkpt><trkpt lat="44.578488758514624" lon="11.875334062363983"><ele>5.3999999999999995</ele><time>2026-04-25T10:26:28.999Z</time></trkpt><trkpt lat="44.57843717217107" lon="11.875392288168612"><ele>6.199999999999999</ele><time>2026-04-25T10:26:29.999Z</time></trkpt><trkpt lat="44.57834782216928" lon="11.875492970473427"><ele>7.0</ele><time>2026-04-25T10:26:31.999Z</time></trkpt><trkpt lat="44.57827739469603" lon="11.875551561099261"><ele>7.000000000000001</ele><time>2026-04-25T10:26:33.999Z</time></trkpt><trkpt lat="44.578216654043835" lon="11.875595141146496"><ele>7.0</ele><time>2026-04-25T10:26:36.999Z</time></trkpt><trkpt lat="44.57814861856054" lon="11.875738248261696"><ele>7.0</ele><time>2026-04-25T10:26:41.999Z</time></trkpt><trkpt lat="44.57812860043839" lon="11.875828762027197"><ele>7.0</ele><time>2026-04-25T10:26:42.999Z</time></trkpt><trkpt lat="44.5780980971782" lon="11.875927052279255"><ele>7.000000000000001</ele><time>2026-04-25T10:26:43.999Z</time></trkpt><trkpt lat="44.57806638670081" lon="11.876033883922736"><ele>7.0</ele><time>2026-04-25T10:26:44.999Z</time></trkpt><trkpt lat="44.57804485114239" lon="11.876155336227626"><ele>7.0</ele><time>2026-04-25T10:26:45.999Z</time></trkpt><trkpt lat="44.578038403128936" lon="11.876285750196999"><ele>6.999999999999999</ele><time>2026-04-25T10:26:46.999Z</time></trkpt><trkpt lat="44.578043373212076" lon="11.876427294706666"><ele>6.999999999999999</ele><time>2026-04-25T10:26:47.999Z</time></trkpt><trkpt lat="44.57804830532497" lon="11.876591191528131"><ele>7.0</ele><time>2026-04-25T10:26:48.999Z</time></trkpt><trkpt lat="44.578082567221706" lon="11.876775604817515"><ele>7.0</ele><time>2026-04-25T10:26:49.999Z</time></trkpt><trkpt lat="44.57812670078504" lon="11.876975007662363"><ele>7.0</ele><time>2026-04-25T10:26:50.999Z</time></trkpt><trkpt lat="44.57817795060667" lon="11.877192842699344"><ele>7.0</ele><time>2026-04-25T10:26:51.999Z</time></trkpt><trkpt lat="44.5782284772307" lon="11.877406426834186"><ele>7.0</ele><time>2026-04-25T10:26:52.999Z</time></trkpt><trkpt lat="44.578282254272175" lon="11.877633828641184"><ele>6.333333333333334</ele><time>2026-04-25T10:26:53.999Z</time></trkpt><trkpt lat="44.57833479012252" lon="11.877858423383275"><ele>5.666666666666667</ele><time>2026-04-25T10:26:54.999Z</time></trkpt><trkpt lat="44.57838390986662" lon="11.878070293739697"><ele>5.0</ele><time>2026-04-25T10:26:55.999Z</time></trkpt><trkpt lat="44.57843452644048" lon="11.878288620591283"><ele>5.333333333333334</ele><time>2026-04-25T10:26:56.999Z</time></trkpt><trkpt lat="44.57848614796678" lon="11.878509694441577"><ele>5.666666666666667</ele><time>2026-04-25T10:26:57.999Z</time></trkpt><trkpt lat="44.578542562352816" lon="11.87874412205405"><ele>6.0</ele><time>2026-04-25T10:26:58.999Z</time></trkpt><trkpt lat="44.578598028572344" lon="11.878980807859802"><ele>6.0</ele><time>2026-04-25T10:26:59.999Z</time></trkpt><trkpt lat="44.578654739149115" lon="11.879227718287733"><ele>6.0</ele><time>2026-04-25T10:27:00.999Z</time></trkpt><trkpt lat="44.57871079800549" lon="11.879483656690198"><ele>6.0</ele><time>2026-04-25T10:27:01.999Z</time></trkpt><trkpt lat="44.57876489825018" lon="11.879727977405045"><ele>5.666666666666667</ele><time>2026-04-25T10:27:02.999Z</time></trkpt><trkpt lat="44.578815899976824" lon="11.879959972804103"><ele>5.333333333333334</ele><time>2026-04-25T10:27:03.999Z</time></trkpt><trkpt lat="44.57886525000483" lon="11.88018142994996"><ele>5.0</ele><time>2026-04-25T10:27:04.999Z</time></trkpt><trkpt lat="44.57892316350795" lon="11.880391844704999"><ele>5.0</ele><time>2026-04-25T10:27:05.999Z</time></trkpt><trkpt lat="44.57896381709917" lon="11.880594917137383"><ele>5.0</ele><time>2026-04-25T10:27:06.999Z</time></trkpt><trkpt lat="44.579008225246326" lon="11.88079098729348"><ele>5.0</ele><time>2026-04-25T10:27:07.999Z</time></trkpt><trkpt lat="44.57905293435537" lon="11.880984115030659"><ele>5.0</ele><time>2026-04-25T10:27:08.999Z</time></trkpt><trkpt lat="44.57909401844023" lon="11.881182131510267"><ele>4.666666666666667</ele><time>2026-04-25T10:27:09.999Z</time></trkpt><trkpt lat="44.579136833740066" lon="11.88138359513191"><ele>4.333333333333333</ele><time>2026-04-25T10:27:10.999Z</time></trkpt><trkpt lat="44.57918392972539" lon="11.881581575112593"><ele>4.0</ele><time>2026-04-25T10:27:11.999Z</time></trkpt><trkpt lat="44.5792273244049" lon="11.881785058125223"><ele>4.0</ele><time>2026-04-25T10:27:12.999Z</time></trkpt><trkpt lat="44.57927437215935" lon="11.881982539064676"><ele>4.0</ele><time>2026-04-25T10:27:13.999Z</time></trkpt><trkpt lat="44.57932975650772" lon="11.882182002317672"><ele>4.0</ele><time>2026-04-25T10:27:14.999Z</time></trkpt><trkpt lat="44.5793920155429" lon="11.882377966225233"><ele>4.0</ele><time>2026-04-25T10:27:15.999Z</time></trkpt><trkpt lat="44.579463581656185" lon="11.882578626866746"><ele>4.0</ele><time>2026-04-25T10:27:16.999Z</time></trkpt><trkpt lat="44.57954011890462" lon="11.882780072347957"><ele>4.0</ele><time>2026-04-25T10:27:17.999Z</time></trkpt><trkpt lat="44.579607456390725" lon="11.882991603963184"><ele>3.0</ele><time>2026-04-25T10:27:18.999Z</time></trkpt><trkpt lat="44.5796626201571" lon="11.88321418114649"><ele>2.0</ele><time>2026-04-25T10:27:19.999Z</time></trkpt><trkpt lat="44.57971109331061" lon="11.883447207628649"><ele>1.0</ele><time>2026-04-25T10:27:20.999Z</time></trkpt><trkpt lat="44.57975835811022" lon="11.883685282606534"><ele>1.0</ele><time>2026-04-25T10:27:21.999Z</time></trkpt><trkpt lat="44.579807873075545" lon="11.88392690583576"><ele>1.0</ele><time>2026-04-25T10:27:22.999Z</time></trkpt><trkpt lat="44.57985706779044" lon="11.88417130756192"><ele>1.0</ele><time>2026-04-25T10:27:23.999Z</time></trkpt><trkpt lat="44.579908939228424" lon="11.884419998973746"><ele>1.3333333333333333</ele><time>2026-04-25T10:27:24.999Z</time></trkpt><trkpt lat="44.579963683181646" lon="11.884669340116107"><ele>1.6666666666666665</ele><time>2026-04-25T10:27:25.999Z</time></trkpt><trkpt lat="44.5800179049155" lon="11.88492286340371"><ele>2.0</ele><time>2026-04-25T10:27:26.999Z</time></trkpt><trkpt lat="44.580072856978" lon="11.885178005464063"><ele>2.0</ele><time>2026-04-25T10:27:27.999Z</time></trkpt><trkpt lat="44.58013003790875" lon="11.885444171466789"><ele>2.0</ele><time>2026-04-25T10:27:28.999Z</time></trkpt><trkpt lat="44.5801887063649" lon="11.885712795409901"><ele>2.0</ele><time>2026-04-25T10:27:29.999Z</time></trkpt><trkpt lat="44.58024977790813" lon="11.885979576332668"><ele>2.333333333333333</ele><time>2026-04-25T10:27:30.999Z</time></trkpt><trkpt lat="44.58031696683863" lon="11.886247321701383"><ele>2.6666666666666665</ele><time>2026-04-25T10:27:31.999Z</time></trkpt><trkpt lat="44.58037901774351" lon="11.886513004816205"><ele>3.0</ele><time>2026-04-25T10:27:32.999Z</time></trkpt><trkpt lat="44.58045097192623" lon="11.886778385622735"><ele>2.3333333333333335</ele><time>2026-04-25T10:27:33.999Z</time></trkpt><trkpt lat="44.58051579605058" lon="11.887046718984728"><ele>1.6666666666666665</ele><time>2026-04-25T10:27:34.999Z</time></trkpt><trkpt lat="44.580577482937386" lon="11.887313761067508"><ele>1.0</ele><time>2026-04-25T10:27:35.999Z</time></trkpt><trkpt lat="44.58063664224713" lon="11.887583880543373"><ele>1.3333333333333333</ele><time>2026-04-25T10:27:36.999Z</time></trkpt><trkpt lat="44.580691600026896" lon="11.887854501808855"><ele>1.6666666666666665</ele><time>2026-04-25T10:27:37.999Z</time></trkpt><trkpt lat="44.580745609882435" lon="11.888128260074192"><ele>2.0</ele><time>2026-04-25T10:27:38.999Z</time></trkpt><trkpt lat="44.5808002964182" lon="11.888400065330709"><ele>2.0</ele><time>2026-04-25T10:27:39.999Z</time></trkpt><trkpt lat="44.580850889367" lon="11.888659671750222"><ele>2.0</ele><time>2026-04-25T10:27:40.999Z</time></trkpt><trkpt lat="44.580903745220496" lon="11.888930433773961"><ele>2.0</ele><time>2026-04-25T10:27:41.999Z</time></trkpt><trkpt lat="44.580949816073506" lon="11.889181355391841"><ele>2.0</ele><time>2026-04-25T10:27:42.999Z</time></trkpt><trkpt lat="44.58099557282742" lon="11.889430276701734"><ele>2.0</ele><time>2026-04-25T10:27:43.999Z</time></trkpt><trkpt lat="44.58104371707904" lon="11.889674964976418"><ele>2.0</ele><time>2026-04-25T10:27:44.999Z</time></trkpt><trkpt lat="44.5810929343328" lon="11.889922557102066"><ele>2.0</ele><time>2026-04-25T10:27:45.999Z</time></trkpt><trkpt lat="44.58112808996631" lon="11.890167586510383"><ele>2.0</ele><time>2026-04-25T10:27:46.999Z</time></trkpt><trkpt lat="44.58117596166153" lon="11.890420862226742"><ele>2.0</ele><time>2026-04-25T10:27:47.999Z</time></trkpt><trkpt lat="44.58122348259174" lon="11.890677028391648"><ele>2.0</ele><time>2026-04-25T10:27:48.999Z</time></trkpt><trkpt lat="44.581271723041915" lon="11.890937073103954"><ele>2.0</ele><time>2026-04-25T10:27:49.999Z</time></trkpt><trkpt lat="44.58132034784368" lon="11.891199189781727"><ele>2.0</ele><time>2026-04-25T10:27:50.999Z</time></trkpt><trkpt lat="44.58137915150813" lon="11.891463378808917"><ele>2.0</ele><time>2026-04-25T10:27:51.999Z</time></trkpt><trkpt lat="44.58142548589365" lon="11.891736745053798"><ele>2.0</ele><time>2026-04-25T10:27:52.999Z</time></trkpt><trkpt lat="44.58147443078086" lon="11.892012084346506"><ele>2.0</ele><time>2026-04-25T10:27:53.999Z</time></trkpt><trkpt lat="44.58152406376769" lon="11.892289407523943"><ele>2.0</ele><time>2026-04-25T10:27:54.999Z</time></trkpt><trkpt lat="44.58157400818686" lon="11.892571284346975"><ele>2.0</ele><time>2026-04-25T10:27:55.999Z</time></trkpt><trkpt lat="44.58162283059534" lon="11.892857764993732"><ele>2.0</ele><time>2026-04-25T10:27:56.999Z</time></trkpt><trkpt lat="44.5816757186485" lon="11.893143669315865"><ele>2.6666666666666665</ele><time>2026-04-25T10:27:57.999Z</time></trkpt><trkpt lat="44.58172565188356" lon="11.893434144426532"><ele>3.333333333333333</ele><time>2026-04-25T10:27:58.999Z</time></trkpt><trkpt lat="44.581779357953955" lon="11.893724378910695"><ele>4.0</ele><time>2026-04-25T10:27:59.999Z</time></trkpt><trkpt lat="44.5818317691608" lon="11.89401429434089"><ele>3.0</ele><time>2026-04-25T10:28:00.999Z</time></trkpt><trkpt lat="44.581884538902585" lon="11.894304952073682"><ele>2.0</ele><time>2026-04-25T10:28:01.999Z</time></trkpt><trkpt lat="44.58193729281492" lon="11.894601492390713"><ele>1.0</ele><time>2026-04-25T10:28:02.999Z</time></trkpt><trkpt lat="44.58199082172039" lon="11.894897175066612"><ele>0.3333333333333333</ele><time>2026-04-25T10:28:03.999Z</time></trkpt><trkpt lat="44.58204298505773" lon="11.895182908595629"><ele>-0.3333333333333333</ele><time>2026-04-25T10:28:04.999Z</time></trkpt><trkpt lat="44.58209364790089" lon="11.895455471352317"><ele>-1.0</ele><time>2026-04-25T10:28:05.999Z</time></trkpt><trkpt lat="44.58214202365694" lon="11.89572170472762"><ele>-1.0</ele><time>2026-04-25T10:28:06.999Z</time></trkpt><trkpt lat="44.58218590035694" lon="11.895990399607799"><ele>-1.0</ele><time>2026-04-25T10:28:07.999Z</time></trkpt><trkpt lat="44.58221902998096" lon="11.896248083212273"><ele>-1.0</ele><time>2026-04-25T10:28:08.999Z</time></trkpt><trkpt lat="44.58224760616251" lon="11.896495834593086"><ele>-1.0</ele><time>2026-04-25T10:28:09.999Z</time></trkpt><trkpt lat="44.582274283933145" lon="11.896734348825813"><ele>-1.0</ele><time>2026-04-25T10:28:10.999Z</time></trkpt><trkpt lat="44.582299522792546" lon="11.896965749540357"><ele>-1.0</ele><time>2026-04-25T10:28:11.999Z</time></trkpt><trkpt lat="44.582322935450094" lon="11.897181120696409"><ele>-0.3333333333333333</ele><time>2026-04-25T10:28:12.999Z</time></trkpt><trkpt lat="44.58234879942535" lon="11.897392898437502"><ele>0.3333333333333333</ele><time>2026-04-25T10:28:13.999Z</time></trkpt><trkpt lat="44.582383948670525" lon="11.897599396189689"><ele>1.0</ele><time>2026-04-25T10:28:14.999Z</time></trkpt><trkpt lat="44.58241748095695" lon="11.897811095523378"><ele>1.3333333333333333</ele><time>2026-04-25T10:28:15.999Z</time></trkpt><trkpt lat="44.58250248333092" lon="11.898011323770236"><ele>1.6666666666666665</ele><time>2026-04-25T10:28:16.999Z</time></trkpt><trkpt lat="44.582575443461664" lon="11.898218064161014"><ele>2.0</ele><time>2026-04-25T10:28:17.999Z</time></trkpt><trkpt lat="44.582643123986756" lon="11.898434524441623"><ele>2.0</ele><time>2026-04-25T10:28:18.999Z</time></trkpt><trkpt lat="44.58269621308215" lon="11.898669184974183"><ele>2.0</ele><time>2026-04-25T10:28:19.999Z</time></trkpt><trkpt lat="44.58273747699909" lon="11.898917669080268"><ele>2.0</ele><time>2026-04-25T10:28:20.999Z</time></trkpt><trkpt lat="44.58277446876542" lon="11.89917188597457"><ele>2.333333333333333</ele><time>2026-04-25T10:28:21.999Z</time></trkpt><trkpt lat="44.58281772719805" lon="11.899429786507206"><ele>2.6666666666666665</ele><time>2026-04-25T10:28:22.999Z</time></trkpt><trkpt lat="44.58286037317707" lon="11.899684227604233"><ele>3.0</ele><time>2026-04-25T10:28:23.999Z</time></trkpt><trkpt lat="44.58290035149509" lon="11.899925258015166"><ele>1.6666666666666667</ele><time>2026-04-25T10:28:24.999Z</time></trkpt><trkpt lat="44.58294009330974" lon="11.900165590840315"><ele>0.33333333333333337</ele><time>2026-04-25T10:28:25.999Z</time></trkpt><trkpt lat="44.58297746974641" lon="11.900391529025388"><ele>-1.0</ele><time>2026-04-25T10:28:26.999Z</time></trkpt><trkpt lat="44.583015246575464" lon="11.900606995131637"><ele>-1.0</ele><time>2026-04-25T10:28:27.999Z</time></trkpt><trkpt lat="44.583052980094784" lon="11.900814025040702"><ele>-1.0</ele><time>2026-04-25T10:28:28.999Z</time></trkpt><trkpt lat="44.583090427017176" lon="11.901013987715068"><ele>-1.0</ele><time>2026-04-25T10:28:29.999Z</time></trkpt><trkpt lat="44.583125597040485" lon="11.901211206345502"><ele>-1.0</ele><time>2026-04-25T10:28:30.999Z</time></trkpt><trkpt lat="44.58316001249255" lon="11.901408376584547"><ele>-1.0</ele><time>2026-04-25T10:28:31.999Z</time></trkpt><trkpt lat="44.5831937740481" lon="11.901607009508945"><ele>-1.0</ele><time>2026-04-25T10:28:32.999Z</time></trkpt><trkpt lat="44.58322766918705" lon="11.901804725052807"><ele>-1.0</ele><time>2026-04-25T10:28:33.999Z</time></trkpt><trkpt lat="44.58326110850182" lon="11.902003111901921"><ele>-1.0</ele><time>2026-04-25T10:28:34.999Z</time></trkpt><trkpt lat="44.58329475526809" lon="11.902201215165336"><ele>-0.5</ele><time>2026-04-25T10:28:35.999Z</time></trkpt><trkpt lat="44.583330837592854" lon="11.902400312789695"><ele>0.0</ele><time>2026-04-25T10:28:36.999Z</time></trkpt><trkpt lat="44.583367517827384" lon="11.902594369497175"><ele>0.5</ele><time>2026-04-25T10:28:37.999Z</time></trkpt><trkpt lat="44.5834027410597" lon="11.902784113120966"><ele>1.0</ele><time>2026-04-25T10:28:38.999Z</time></trkpt><trkpt lat="44.58343969879804" lon="11.902974130301422"><ele>1.25</ele><time>2026-04-25T10:28:39.999Z</time></trkpt><trkpt lat="44.58348018979933" lon="11.903162612940307"><ele>1.5</ele><time>2026-04-25T10:28:40.999Z</time></trkpt><trkpt lat="44.583522305514386" lon="11.903351779279076"><ele>1.75</ele><time>2026-04-25T10:28:41.999Z</time></trkpt><trkpt lat="44.583563388140966" lon="11.903543546102577"><ele>2.0</ele><time>2026-04-25T10:28:42.999Z</time></trkpt><trkpt lat="44.58360692994747" lon="11.903734564665974"><ele>2.0</ele><time>2026-04-25T10:28:43.999Z</time></trkpt><trkpt lat="44.58364926602057" lon="11.90392734737437"><ele>2.0</ele><time>2026-04-25T10:28:44.999Z</time></trkpt><trkpt lat="44.58369063507904" lon="11.90412281655834"><ele>2.0</ele><time>2026-04-25T10:28:45.999Z</time></trkpt><trkpt lat="44.58373295715963" lon="11.904319430409249"><ele>2.0</ele><time>2026-04-25T10:28:46.999Z</time></trkpt><trkpt lat="44.58377611784964" lon="11.90451689911598"><ele>1.75</ele><time>2026-04-25T10:28:47.999Z</time></trkpt><trkpt lat="44.58381450340521" lon="11.904710178164242"><ele>1.5</ele><time>2026-04-25T10:28:48.999Z</time></trkpt><trkpt lat="44.58385085650549" lon="11.904898660129751"><ele>1.25</ele><time>2026-04-25T10:28:49.999Z</time></trkpt><trkpt lat="44.58388633473794" lon="11.905091287337058"><ele>1.0</ele><time>2026-04-25T10:28:50.999Z</time></trkpt><trkpt lat="44.58391820729659" lon="11.905285915103333"><ele>1.0</ele><time>2026-04-25T10:28:51.999Z</time></trkpt><trkpt lat="44.583944785948205" lon="11.905483443890429"><ele>1.0</ele><time>2026-04-25T10:28:52.999Z</time></trkpt><trkpt lat="44.58396774264918" lon="11.905684554695078"><ele>1.0</ele><time>2026-04-25T10:28:53.999Z</time></trkpt><trkpt lat="44.583988868059" lon="11.905889560977867"><ele>1.0</ele><time>2026-04-25T10:28:54.999Z</time></trkpt><trkpt lat="44.58400676856115" lon="11.90608679672445"><ele>1.25</ele><time>2026-04-25T10:28:55.999Z</time></trkpt><trkpt lat="44.584023035744494" lon="11.906284107688117"><ele>1.5</ele><time>2026-04-25T10:28:56.999Z</time></trkpt><trkpt lat="44.58403892294534" lon="11.906479658854629"><ele>1.75</ele><time>2026-04-25T10:28:57.999Z</time></trkpt><trkpt lat="44.5840557065236" lon="11.90667456654618"><ele>2.0</ele><time>2026-04-25T10:28:58.999Z</time></trkpt><trkpt lat="44.58407322824671" lon="11.906870764179237"><ele>2.25</ele><time>2026-04-25T10:28:59.999Z</time></trkpt><trkpt lat="44.58409359518633" lon="11.907067967660808"><ele>2.5</ele><time>2026-04-25T10:29:00.999Z</time></trkpt><trkpt lat="44.58411686464444" lon="11.907265237115672"><ele>2.75</ele><time>2026-04-25T10:29:01.999Z</time></trkpt><trkpt lat="44.584142325525406" lon="11.907462576246443"><ele>3.0</ele><time>2026-04-25T10:29:02.999Z</time></trkpt><trkpt lat="44.58416951109851" lon="11.907660040043933"><ele>3.25</ele><time>2026-04-25T10:29:03.999Z</time></trkpt><trkpt lat="44.584198812261505" lon="11.90785707666329"><ele>3.5</ele><time>2026-04-25T10:29:04.999Z</time></trkpt><trkpt lat="44.58422911576546" lon="11.908055502124494"><ele>3.75</ele><time>2026-04-25T10:29:05.999Z</time></trkpt><trkpt lat="44.5842590099768" lon="11.90825449709355"><ele>4.0</ele><time>2026-04-25T10:29:06.999Z</time></trkpt><trkpt lat="44.58428936429188" lon="11.90845528384646"><ele>4.0</ele><time>2026-04-25T10:29:07.999Z</time></trkpt><trkpt lat="44.584320995867344" lon="11.908651384542635"><ele>4.0</ele><time>2026-04-25T10:29:08.999Z</time></trkpt><trkpt lat="44.58435393735331" lon="11.908845510951076"><ele>4.0</ele><time>2026-04-25T10:29:09.999Z</time></trkpt><trkpt lat="44.584387509070424" lon="11.909037240283444"><ele>4.0</ele><time>2026-04-25T10:29:10.999Z</time></trkpt><trkpt lat="44.58442193688813" lon="11.909228161588658"><ele>4.0</ele><time>2026-04-25T10:29:11.999Z</time></trkpt><trkpt lat="44.584457218527916" lon="11.909415905480744"><ele>4.0</ele><time>2026-04-25T10:29:12.999Z</time></trkpt><trkpt lat="44.58449185099597" lon="11.909606436901264"><ele>4.0</ele><time>2026-04-25T10:29:13.999Z</time></trkpt><trkpt lat="44.5845281972511" lon="11.909796578484904"><ele>4.0</ele><time>2026-04-25T10:29:14.999Z</time></trkpt><trkpt lat="44.58456822780943" lon="11.909988539193915"><ele>3.25</ele><time>2026-04-25T10:29:15.999Z</time></trkpt><trkpt lat="44.584607236871605" lon="11.910177662480905"><ele>2.5</ele><time>2026-04-25T10:29:16.999Z</time></trkpt><trkpt lat="44.584646237587805" lon="11.91036088541437"><ele>1.75</ele><time>2026-04-25T10:29:17.999Z</time></trkpt><trkpt lat="44.58468642197834" lon="11.910545296577732"><ele>1.0</ele><time>2026-04-25T10:29:18.999Z</time></trkpt><trkpt lat="44.58472875732335" lon="11.91073054440342"><ele>1.0</ele><time>2026-04-25T10:29:19.999Z</time></trkpt><trkpt lat="44.5847715537814" lon="11.910916351001386"><ele>1.0</ele><time>2026-04-25T10:29:20.999Z</time></trkpt><trkpt lat="44.584812351828276" lon="11.911105161949518"><ele>1.0</ele><time>2026-04-25T10:29:22Z</time></trkpt><trkpt lat="44.58485026710261" lon="11.91129711799015"><ele>1.0</ele><time>2026-04-25T10:29:23Z</time></trkpt><trkpt lat="44.584886642169685" lon="11.911491322412353"><ele>1.0</ele><time>2026-04-25T10:29:24Z</time></trkpt><trkpt lat="44.58491776504818" lon="11.911687059041526"><ele>1.0</ele><time>2026-04-25T10:29:25Z</time></trkpt><trkpt lat="44.58494626907065" lon="11.911882060180092"><ele>1.0</ele><time>2026-04-25T10:29:26Z</time></trkpt><trkpt lat="44.584976034536545" lon="11.912072579285242"><ele>1.0</ele><time>2026-04-25T10:29:27Z</time></trkpt><trkpt lat="44.585005538682616" lon="11.91225687555206"><ele>1.0</ele><time>2026-04-25T10:29:28Z</time></trkpt><trkpt lat="44.58503648542188" lon="11.912441999797522"><ele>1.0</ele><time>2026-04-25T10:29:29Z</time></trkpt><trkpt lat="44.58506812017977" lon="11.912627120882744"><ele>1.0</ele><time>2026-04-25T10:29:30Z</time></trkpt><trkpt lat="44.58509921345689" lon="11.912815075957994"><ele>1.0</ele><time>2026-04-25T10:29:31Z</time></trkpt><trkpt lat="44.58513138045411" lon="11.913004698086931"><ele>1.5</ele><time>2026-04-25T10:29:32Z</time></trkpt><trkpt lat="44.58516540565821" lon="11.913196489914156"><ele>2.0</ele><time>2026-04-25T10:29:33Z</time></trkpt><trkpt lat="44.58520028963231" lon="11.91339321002116"><ele>2.5</ele><time>2026-04-25T10:29:34Z</time></trkpt><trkpt lat="44.58523480137143" lon="11.913590797830357"><ele>3.0</ele><time>2026-04-25T10:29:35Z</time></trkpt><trkpt lat="44.58526936188229" lon="11.9137923929095"><ele>3.5</ele><time>2026-04-25T10:29:36Z</time></trkpt><trkpt lat="44.585303854482866" lon="11.913994357588829"><ele>4.0</ele><time>2026-04-25T10:29:37Z</time></trkpt><trkpt lat="44.58534050959572" lon="11.914197533829904"><ele>4.5</ele><time>2026-04-25T10:29:38Z</time></trkpt><trkpt lat="44.585376758121434" lon="11.914401602296694"><ele>5.0</ele><time>2026-04-25T10:29:39Z</time></trkpt><trkpt lat="44.5854131661941" lon="11.914603765257581"><ele>3.75</ele><time>2026-04-25T10:29:40Z</time></trkpt><trkpt lat="44.58544765265322" lon="11.91480239779501"><ele>2.5</ele><time>2026-04-25T10:29:41Z</time></trkpt><trkpt lat="44.58548487503027" lon="11.915005866853015"><ele>1.25</ele><time>2026-04-25T10:29:42Z</time></trkpt><trkpt lat="44.58552082014753" lon="11.915214373386846"><ele>0.0</ele><time>2026-04-25T10:29:43Z</time></trkpt><trkpt lat="44.585559045333554" lon="11.915433458575322"><ele>0.0</ele><time>2026-04-25T10:29:44Z</time></trkpt><trkpt lat="44.585596452443795" lon="11.915651738373835"><ele>0.0</ele><time>2026-04-25T10:29:45Z</time></trkpt><trkpt lat="44.58563428334716" lon="11.915876312008852"><ele>0.0</ele><time>2026-04-25T10:29:46Z</time></trkpt><trkpt lat="44.58567347397985" lon="11.916106774454166"><ele>0.3333333333333333</ele><time>2026-04-25T10:29:47Z</time></trkpt><trkpt lat="44.58571184634566" lon="11.916341146049097"><ele>0.6666666666666666</ele><time>2026-04-25T10:29:48Z</time></trkpt><trkpt lat="44.585750872185194" lon="11.916578358060601"><ele>1.0</ele><time>2026-04-25T10:29:49Z</time></trkpt><trkpt lat="44.58579550219237" lon="11.916816645917827"><ele>1.3333333333333333</ele><time>2026-04-25T10:29:50Z</time></trkpt><trkpt lat="44.58583938987093" lon="11.917057141560292"><ele>1.6666666666666665</ele><time>2026-04-25T10:29:51Z</time></trkpt><trkpt lat="44.585882512014344" lon="11.917299782018555"><ele>2.0</ele><time>2026-04-25T10:29:52Z</time></trkpt><trkpt lat="44.58592392644368" lon="11.917543988138156"><ele>2.0</ele><time>2026-04-25T10:29:53Z</time></trkpt><trkpt lat="44.585962336191116" lon="11.917791392191173"><ele>2.0</ele><time>2026-04-25T10:29:54Z</time></trkpt><trkpt lat="44.58600058688997" lon="11.918040727501566"><ele>2.0</ele><time>2026-04-25T10:29:55Z</time></trkpt><trkpt lat="44.58603947808755" lon="11.9182901517282"><ele>2.333333333333333</ele><time>2026-04-25T10:29:56Z</time></trkpt><trkpt lat="44.58608100961873" lon="11.91854390790328"><ele>2.6666666666666665</ele><time>2026-04-25T10:29:57Z</time></trkpt><trkpt lat="44.58612288302985" lon="11.918804136382569"><ele>3.0</ele><time>2026-04-25T10:29:58Z</time></trkpt><trkpt lat="44.58616269753885" lon="11.919068285621174"><ele>1.6666666666666667</ele><time>2026-04-25T10:29:59Z</time></trkpt><trkpt lat="44.586202521608975" lon="11.919334632967864"><ele>0.33333333333333337</ele><time>2026-04-25T10:30:00Z</time></trkpt><trkpt lat="44.58624266266402" lon="11.91960251720067"><ele>-1.0</ele><time>2026-04-25T10:30:01Z</time></trkpt><trkpt lat="44.586283430263904" lon="11.919872863618295"><ele>-1.0</ele><time>2026-04-25T10:30:02Z</time></trkpt><trkpt lat="44.586324917995476" lon="11.920144803924755"><ele>-1.0</ele><time>2026-04-25T10:30:03Z</time></trkpt><trkpt lat="44.586368155500026" lon="11.920413261811877"><ele>-1.0</ele><time>2026-04-25T10:30:04Z</time></trkpt><trkpt lat="44.58641056459527" lon="11.920676239909886"><ele>-0.6666666666666666</ele><time>2026-04-25T10:30:05Z</time></trkpt><trkpt lat="44.5864526625015" lon="11.920933404850683"><ele>-0.3333333333333333</ele><time>2026-04-25T10:30:06Z</time></trkpt><trkpt lat="44.586492341895614" lon="11.921179705072948"><ele>0.0</ele><time>2026-04-25T10:30:07Z</time></trkpt><trkpt lat="44.58653088237758" lon="11.921417370750063"><ele>0.0</ele><time>2026-04-25T10:30:08Z</time></trkpt><trkpt lat="44.58656915978676" lon="11.92164931884842"><ele>0.0</ele><time>2026-04-25T10:30:09Z</time></trkpt><trkpt lat="44.58660968417644" lon="11.921876141903322"><ele>0.0</ele><time>2026-04-25T10:30:10Z</time></trkpt><trkpt lat="44.586650385024306" lon="11.92210104442646"><ele>0.6666666666666666</ele><time>2026-04-25T10:30:11Z</time></trkpt><trkpt lat="44.58669036992617" lon="11.922327840026355"><ele>1.3333333333333333</ele><time>2026-04-25T10:30:12Z</time></trkpt><trkpt lat="44.58673040916681" lon="11.922556133850675"><ele>2.0</ele><time>2026-04-25T10:30:13Z</time></trkpt><trkpt lat="44.58676904697986" lon="11.922788175862678"><ele>2.0</ele><time>2026-04-25T10:30:14Z</time></trkpt><trkpt lat="44.586809676450656" lon="11.923019915153994"><ele>2.0</ele><time>2026-04-25T10:30:15Z</time></trkpt><trkpt lat="44.58685007937704" lon="11.92325254364343"><ele>2.0</ele><time>2026-04-25T10:30:16Z</time></trkpt><trkpt lat="44.58689054787282" lon="11.923488531333424"><ele>2.333333333333333</ele><time>2026-04-25T10:30:17Z</time></trkpt><trkpt lat="44.58693147069373" lon="11.923721402047383"><ele>2.6666666666666665</ele><time>2026-04-25T10:30:18Z</time></trkpt><trkpt lat="44.58697035190848" lon="11.923942155770375"><ele>3.0</ele><time>2026-04-25T10:30:19Z</time></trkpt><trkpt lat="44.58700829462801" lon="11.924146223525652"><ele>2.75</ele><time>2026-04-25T10:30:20Z</time></trkpt><trkpt lat="44.587046318040066" lon="11.924335430452695"><ele>2.5</ele><time>2026-04-25T10:30:21Z</time></trkpt><trkpt lat="44.58708098370573" lon="11.924511353646862"><ele>2.25</ele><time>2026-04-25T10:30:22Z</time></trkpt><trkpt lat="44.5871126595852" lon="11.92468119762558"><ele>2.0</ele><time>2026-04-25T10:30:23Z</time></trkpt><trkpt lat="44.58714483867428" lon="11.924856025483615"><ele>2.0</ele><time>2026-04-25T10:30:24Z</time></trkpt><trkpt lat="44.587177666570646" lon="11.925039273706435"><ele>2.0</ele><time>2026-04-25T10:30:25Z</time></trkpt><trkpt lat="44.58721070916576" lon="11.925229256712026"><ele>2.0</ele><time>2026-04-25T10:30:26Z</time></trkpt><trkpt lat="44.58724244530234" lon="11.925425673407464"><ele>2.0</ele><time>2026-04-25T10:30:27Z</time></trkpt><trkpt lat="44.587276183191214" lon="11.92562700867673"><ele>2.0</ele><time>2026-04-25T10:30:28Z</time></trkpt><trkpt lat="44.58731487220343" lon="11.925838075087475"><ele>2.0</ele><time>2026-04-25T10:30:29Z</time></trkpt><trkpt lat="44.5873551264479" lon="11.926050257770857"><ele>2.0</ele><time>2026-04-25T10:30:30Z</time></trkpt><trkpt lat="44.58739413955702" lon="11.926268640874483"><ele>2.0</ele><time>2026-04-25T10:30:31Z</time></trkpt><trkpt lat="44.58743388997865" lon="11.92648914348751"><ele>2.0</ele><time>2026-04-25T10:30:32Z</time></trkpt><trkpt lat="44.58747350044474" lon="11.926695894812456"><ele>2.0</ele><time>2026-04-25T10:30:33Z</time></trkpt><trkpt lat="44.58751199650381" lon="11.926893688222805"><ele>2.0</ele><time>2026-04-25T10:30:34Z</time></trkpt><trkpt lat="44.58754899692865" lon="11.927088334079334"><ele>2.0</ele><time>2026-04-25T10:30:35Z</time></trkpt><trkpt lat="44.587588754919324" lon="11.927285235830006"><ele>2.0</ele><time>2026-04-25T10:30:36Z</time></trkpt><trkpt lat="44.587628774239704" lon="11.927487291186418"><ele>2.0</ele><time>2026-04-25T10:30:37Z</time></trkpt><trkpt lat="44.587668788737915" lon="11.927695387328408"><ele>2.25</ele><time>2026-04-25T10:30:38Z</time></trkpt><trkpt lat="44.58770914004073" lon="11.927896303650925"><ele>2.5</ele><time>2026-04-25T10:30:39Z</time></trkpt><trkpt lat="44.58774907700217" lon="11.928088717172924"><ele>2.75</ele><time>2026-04-25T10:30:40Z</time></trkpt><trkpt lat="44.58778759390526" lon="11.928274743334235"><ele>3.0</ele><time>2026-04-25T10:30:41Z</time></trkpt><trkpt lat="44.58782449888989" lon="11.928451644101248"><ele>2.75</ele><time>2026-04-25T10:30:42Z</time></trkpt><trkpt lat="44.58786005176999" lon="11.928619484959757"><ele>2.5</ele><time>2026-04-25T10:30:43Z</time></trkpt><trkpt lat="44.587895008051966" lon="11.928785597251235"><ele>2.25</ele><time>2026-04-25T10:30:44Z</time></trkpt><trkpt lat="44.58793207604379" lon="11.928954755569823"><ele>2.0</ele><time>2026-04-25T10:30:45Z</time></trkpt><trkpt lat="44.58796888475337" lon="11.929129538462137"><ele>2.5</ele><time>2026-04-25T10:30:46Z</time></trkpt><trkpt lat="44.588006093926616" lon="11.929310925409887"><ele>3.0</ele><time>2026-04-25T10:30:47Z</time></trkpt><trkpt lat="44.58804358556194" lon="11.92949561020388"><ele>3.5</ele><time>2026-04-25T10:30:48Z</time></trkpt><trkpt lat="44.58808246729443" lon="11.929685892289115"><ele>4.0</ele><time>2026-04-25T10:30:49Z</time></trkpt><trkpt lat="44.58812019694261" lon="11.929880100519318"><ele>3.75</ele><time>2026-04-25T10:30:50Z</time></trkpt><trkpt lat="44.58815698610506" lon="11.930074532572705"><ele>3.5</ele><time>2026-04-25T10:30:51Z</time></trkpt><trkpt lat="44.58818981414232" lon="11.930263567035253"><ele>3.25</ele><time>2026-04-25T10:30:52Z</time></trkpt><trkpt lat="44.588220569297576" lon="11.930446469161208"><ele>3.0</ele><time>2026-04-25T10:30:53Z</time></trkpt><trkpt lat="44.5882486430732" lon="11.930631220859556"><ele>3.0</ele><time>2026-04-25T10:30:54Z</time></trkpt><trkpt lat="44.58827794047881" lon="11.930818548795619"><ele>3.0</ele><time>2026-04-25T10:30:55Z</time></trkpt><trkpt lat="44.58830593887126" lon="11.931010103699803"><ele>3.0</ele><time>2026-04-25T10:30:56Z</time></trkpt><trkpt lat="44.588336051603676" lon="11.931204404055924"><ele>3.0</ele><time>2026-04-25T10:30:57Z</time></trkpt><trkpt lat="44.58836544947526" lon="11.931399490362093"><ele>3.0</ele><time>2026-04-25T10:30:58Z</time></trkpt><trkpt lat="44.588392698758426" lon="11.931594196740411"><ele>3.0</ele><time>2026-04-25T10:30:59Z</time></trkpt><trkpt lat="44.58841950741199" lon="11.931789629888636"><ele>3.0</ele><time>2026-04-25T10:31:00Z</time></trkpt><trkpt lat="44.58844813527134" lon="11.93197439615671"><ele>3.0</ele><time>2026-04-25T10:31:01Z</time></trkpt><trkpt lat="44.58847764246763" lon="11.932153469033162"><ele>3.0</ele><time>2026-04-25T10:31:02Z</time></trkpt><trkpt lat="44.58850748059495" lon="11.932331427613601"><ele>3.0</ele><time>2026-04-25T10:31:03Z</time></trkpt><trkpt lat="44.5885394359007" lon="11.932511119088277"><ele>3.0</ele><time>2026-04-25T10:31:04Z</time></trkpt><trkpt lat="44.58857432344545" lon="11.932694595044694"><ele>3.0</ele><time>2026-04-25T10:31:05Z</time></trkpt><trkpt lat="44.58860888115258" lon="11.932884587614245"><ele>2.75</ele><time>2026-04-25T10:31:06Z</time></trkpt><trkpt lat="44.58864322220753" lon="11.933078434976473"><ele>2.5</ele><time>2026-04-25T10:31:07Z</time></trkpt><trkpt lat="44.58867838585685" lon="11.933280769305277"><ele>2.25</ele><time>2026-04-25T10:31:08Z</time></trkpt><trkpt lat="44.58871277115342" lon="11.933490715316822"><ele>2.0</ele><time>2026-04-25T10:31:09Z</time></trkpt><trkpt lat="44.58874625816133" lon="11.933707801926284"><ele>1.3333333333333333</ele><time>2026-04-25T10:31:10Z</time></trkpt><trkpt lat="44.58877881869979" lon="11.933932452218198"><ele>0.6666666666666666</ele><time>2026-04-25T10:31:11Z</time></trkpt><trkpt lat="44.588811582760044" lon="11.93416061695914"><ele>0.0</ele><time>2026-04-25T10:31:12Z</time></trkpt><trkpt lat="44.588845289654664" lon="11.934391756223157"><ele>0.0</ele><time>2026-04-25T10:31:13Z</time></trkpt><trkpt lat="44.588875469684254" lon="11.93461503612411"><ele>0.0</ele><time>2026-04-25T10:31:14Z</time></trkpt><trkpt lat="44.58890498939524" lon="11.934827383667123"><ele>0.0</ele><time>2026-04-25T10:31:15Z</time></trkpt><trkpt lat="44.58893257404344" lon="11.935033766657844"><ele>0.25</ele><time>2026-04-25T10:31:16Z</time></trkpt><trkpt lat="44.58896145690953" lon="11.935235211423718"><ele>0.5</ele><time>2026-04-25T10:31:17Z</time></trkpt><trkpt lat="44.58899190029782" lon="11.935436503222181"><ele>0.75</ele><time>2026-04-25T10:31:18Z</time></trkpt><trkpt lat="44.58902239204464" lon="11.935637861618895"><ele>1.0</ele><time>2026-04-25T10:31:19Z</time></trkpt><trkpt lat="44.58905178195738" lon="11.93584133267473"><ele>1.25</ele><time>2026-04-25T10:31:20Z</time></trkpt><trkpt lat="44.58908183470741" lon="11.936046004468087"><ele>1.5</ele><time>2026-04-25T10:31:21Z</time></trkpt><trkpt lat="44.589112097635194" lon="11.936247300164526"><ele>1.75</ele><time>2026-04-25T10:31:22Z</time></trkpt><trkpt lat="44.58914190859733" lon="11.936446416713174"><ele>2.0</ele><time>2026-04-25T10:31:23Z</time></trkpt><trkpt lat="44.5891730065762" lon="11.936647215196457"><ele>2.25</ele><time>2026-04-25T10:31:24Z</time></trkpt><trkpt lat="44.589204198112334" lon="11.936848356699254"><ele>2.5</ele><time>2026-04-25T10:31:25Z</time></trkpt><trkpt lat="44.58923859632878" lon="11.937047209151034"><ele>2.75</ele><time>2026-04-25T10:31:26Z</time></trkpt><trkpt lat="44.58927698956365" lon="11.93724555035191"><ele>3.0</ele><time>2026-04-25T10:31:27Z</time></trkpt><trkpt lat="44.589317349128116" lon="11.93744617493359"><ele>3.333333333333333</ele><time>2026-04-25T10:31:28Z</time></trkpt><trkpt lat="44.5893591767967" lon="11.93765240080692"><ele>3.6666666666666665</ele><time>2026-04-25T10:31:29Z</time></trkpt><trkpt lat="44.589402057005124" lon="11.937861826867445"><ele>4.0</ele><time>2026-04-25T10:31:30Z</time></trkpt><trkpt lat="44.58944379246594" lon="11.938074629861006"><ele>4.0</ele><time>2026-04-25T10:31:31Z</time></trkpt><trkpt lat="44.589481366233365" lon="11.938273890516792"><ele>4.0</ele><time>2026-04-25T10:31:32Z</time></trkpt><trkpt lat="44.58951301587684" lon="11.938462354856462"><ele>4.0</ele><time>2026-04-25T10:31:33Z</time></trkpt><trkpt lat="44.58954417540548" lon="11.93864173671344"><ele>4.0</ele><time>2026-04-25T10:31:34Z</time></trkpt><trkpt lat="44.58957598183681" lon="11.938798840292575"><ele>3.0</ele><time>2026-04-25T10:31:35Z</time></trkpt><trkpt lat="44.589607437066874" lon="11.938939337211025"><ele>2.0000000000000004</ele><time>2026-04-25T10:31:36Z</time></trkpt><trkpt lat="44.589636548380724" lon="11.939065832250686"><ele>1.0</ele><time>2026-04-25T10:31:37Z</time></trkpt><trkpt lat="44.58966400890371" lon="11.93919289363452"><ele>0.0</ele><time>2026-04-25T10:31:38Z</time></trkpt><trkpt lat="44.58969018012213" lon="11.939327389916516"><ele>-1.0</ele><time>2026-04-25T10:31:39Z</time></trkpt><trkpt lat="44.58971869539138" lon="11.939474049408632"><ele>-1.0</ele><time>2026-04-25T10:31:40Z</time></trkpt><trkpt lat="44.589749158378446" lon="11.939631449771568"><ele>-1.0</ele><time>2026-04-25T10:31:41Z</time></trkpt><trkpt lat="44.58977899839865" lon="11.93980093393717"><ele>-1.0</ele><time>2026-04-25T10:31:42Z</time></trkpt><trkpt lat="44.589812817016444" lon="11.939985550905096"><ele>-1.0</ele><time>2026-04-25T10:31:43Z</time></trkpt><trkpt lat="44.58984848011062" lon="11.940181091385293"><ele>-0.3333333333333333</ele><time>2026-04-25T10:31:44Z</time></trkpt><trkpt lat="44.58988719806233" lon="11.940389859738767"><ele>0.3333333333333333</ele><time>2026-04-25T10:31:45Z</time></trkpt><trkpt lat="44.589924064759934" lon="11.940608166512643"><ele>1.0</ele><time>2026-04-25T10:31:46Z</time></trkpt><trkpt lat="44.5899608300759" lon="11.94082637267331"><ele>1.3333333333333333</ele><time>2026-04-25T10:31:47Z</time></trkpt><trkpt lat="44.59000057955324" lon="11.941052012016641"><ele>1.6666666666666665</ele><time>2026-04-25T10:31:48Z</time></trkpt><trkpt lat="44.590042815242235" lon="11.94128083790413"><ele>2.0</ele><time>2026-04-25T10:31:49Z</time></trkpt><trkpt lat="44.59008763905752" lon="11.941515488743434"><ele>2.333333333333333</ele><time>2026-04-25T10:31:50Z</time></trkpt><trkpt lat="44.59012914307934" lon="11.941753925425495"><ele>2.6666666666666665</ele><time>2026-04-25T10:31:51Z</time></trkpt><trkpt lat="44.590170522016905" lon="11.941993873160536"><ele>3.0</ele><time>2026-04-25T10:31:52Z</time></trkpt><trkpt lat="44.590210767803256" lon="11.942237056156767"><ele>3.0</ele><time>2026-04-25T10:31:53Z</time></trkpt><trkpt lat="44.59024990823686" lon="11.942480993531138"><ele>3.0</ele><time>2026-04-25T10:31:54Z</time></trkpt><trkpt lat="44.59029022260494" lon="11.94272473768009"><ele>3.0</ele><time>2026-04-25T10:31:55Z</time></trkpt><trkpt lat="44.59033068142452" lon="11.942969140819223"><ele>2.3333333333333335</ele><time>2026-04-25T10:31:56Z</time></trkpt><trkpt lat="44.59037061426365" lon="11.943215104239592"><ele>1.6666666666666665</ele><time>2026-04-25T10:31:57Z</time></trkpt><trkpt lat="44.59041300321086" lon="11.943462591756195"><ele>1.0</ele><time>2026-04-25T10:31:58Z</time></trkpt><trkpt lat="44.59045635230605" lon="11.94370921117808"><ele>0.6666666666666666</ele><time>2026-04-25T10:31:59Z</time></trkpt><trkpt lat="44.59050205182073" lon="11.943958076674354"><ele>0.3333333333333333</ele><time>2026-04-25T10:32:00Z</time></trkpt><trkpt lat="44.59054882666622" lon="11.944207178648599"><ele>0.0</ele><time>2026-04-25T10:32:01Z</time></trkpt><trkpt lat="44.59059438581645" lon="11.944456520362309"><ele>0.0</ele><time>2026-04-25T10:32:02Z</time></trkpt><trkpt lat="44.590640210095415" lon="11.944708007370965"><ele>0.0</ele><time>2026-04-25T10:32:03Z</time></trkpt><trkpt lat="44.59068415877472" lon="11.94496078852729"><ele>0.0</ele><time>2026-04-25T10:32:04Z</time></trkpt><trkpt lat="44.590725681496984" lon="11.945212162610076"><ele>0.0</ele><time>2026-04-25T10:32:05Z</time></trkpt><trkpt lat="44.59076625926968" lon="11.945464995124258"><ele>0.0</ele><time>2026-04-25T10:32:06Z</time></trkpt><trkpt lat="44.59080347169758" lon="11.945718620664643"><ele>0.0</ele><time>2026-04-25T10:32:07Z</time></trkpt><trkpt lat="44.59083958760181" lon="11.94597418473908"><ele>0.0</ele><time>2026-04-25T10:32:08Z</time></trkpt><trkpt lat="44.59087546272652" lon="11.946228231062506"><ele>0.0</ele><time>2026-04-25T10:32:09Z</time></trkpt><trkpt lat="44.590910973064574" lon="11.946482662757681"><ele>0.0</ele><time>2026-04-25T10:32:10Z</time></trkpt><trkpt lat="44.590945815091715" lon="11.946735481727181"><ele>0.6666666666666666</ele><time>2026-04-25T10:32:11Z</time></trkpt><trkpt lat="44.590982329132984" lon="11.946985825506136"><ele>1.3333333333333333</ele><time>2026-04-25T10:32:12Z</time></trkpt><trkpt lat="44.5910202288976" lon="11.947234471563421"><ele>2.0</ele><time>2026-04-25T10:32:13Z</time></trkpt><trkpt lat="44.591058746521156" lon="11.947472744123282"><ele>2.333333333333333</ele><time>2026-04-25T10:32:14Z</time></trkpt><trkpt lat="44.59109609446718" lon="11.947702120597153"><ele>2.6666666666666665</ele><time>2026-04-25T10:32:15Z</time></trkpt><trkpt lat="44.591136988941386" lon="11.94792009579222"><ele>3.0</ele><time>2026-04-25T10:32:16Z</time></trkpt><trkpt lat="44.59117872652439" lon="11.948133280366193"><ele>2.3333333333333335</ele><time>2026-04-25T10:32:17Z</time></trkpt><trkpt lat="44.591217796034705" lon="11.948350026279126"><ele>1.6666666666666665</ele><time>2026-04-25T10:32:18Z</time></trkpt><trkpt lat="44.59125635505136" lon="11.948568874488698"><ele>1.0</ele><time>2026-04-25T10:32:19Z</time></trkpt><trkpt lat="44.59129325759451" lon="11.948789995160276"><ele>1.0</ele><time>2026-04-25T10:32:20Z</time></trkpt><trkpt lat="44.59133340415947" lon="11.949015029476964"><ele>1.0</ele><time>2026-04-25T10:32:21Z</time></trkpt><trkpt lat="44.591374701687855" lon="11.949243946165872"><ele>1.0</ele><time>2026-04-25T10:32:22Z</time></trkpt><trkpt lat="44.591416603867756" lon="11.94947468319339"><ele>1.0</ele><time>2026-04-25T10:32:23Z</time></trkpt><trkpt lat="44.59145968311011" lon="11.949711055187846"><ele>1.0</ele><time>2026-04-25T10:32:24Z</time></trkpt><trkpt lat="44.591503078277945" lon="11.949948245545176"><ele>1.0</ele><time>2026-04-25T10:32:25Z</time></trkpt><trkpt lat="44.591545605205944" lon="11.950188312450539"><ele>1.3333333333333333</ele><time>2026-04-25T10:32:26Z</time></trkpt><trkpt lat="44.591589154323245" lon="11.950430277213842"><ele>1.6666666666666665</ele><time>2026-04-25T10:32:27Z</time></trkpt><trkpt lat="44.59163479171319" lon="11.95067504320861"><ele>2.0</ele><time>2026-04-25T10:32:28Z</time></trkpt><trkpt lat="44.59168252150994" lon="11.95092087859063"><ele>2.333333333333333</ele><time>2026-04-25T10:32:29Z</time></trkpt><trkpt lat="44.591731844831685" lon="11.951168687215707"><ele>2.6666666666666665</ele><time>2026-04-25T10:32:30Z</time></trkpt><trkpt lat="44.591781895673975" lon="11.951413525352"><ele>3.0</ele><time>2026-04-25T10:32:31Z</time></trkpt><trkpt lat="44.59183290053929" lon="11.951653636563798"><ele>3.0</ele><time>2026-04-25T10:32:32Z</time></trkpt><trkpt lat="44.59188357761256" lon="11.951892655490635"><ele>3.0</ele><time>2026-04-25T10:32:33Z</time></trkpt><trkpt lat="44.5919340308565" lon="11.952133189315482"><ele>3.0</ele><time>2026-04-25T10:32:34Z</time></trkpt><trkpt lat="44.59198367896845" lon="11.952374790510499"><ele>3.333333333333333</ele><time>2026-04-25T10:32:35Z</time></trkpt><trkpt lat="44.59203246446213" lon="11.952612356621778"><ele>3.6666666666666665</ele><time>2026-04-25T10:32:36Z</time></trkpt><trkpt lat="44.592081886891236" lon="11.952842467054714"><ele>4.0</ele><time>2026-04-25T10:32:37Z</time></trkpt><trkpt lat="44.592129084999314" lon="11.95306306684934"><ele>4.0</ele><time>2026-04-25T10:32:38Z</time></trkpt><trkpt lat="44.5921749169192" lon="11.953275437939086"><ele>4.0</ele><time>2026-04-25T10:32:39Z</time></trkpt><trkpt lat="44.592218193081465" lon="11.953478396515107"><ele>4.0</ele><time>2026-04-25T10:32:40Z</time></trkpt><trkpt lat="44.5922607057185" lon="11.953681626437952"><ele>4.0</ele><time>2026-04-25T10:32:41Z</time></trkpt><trkpt lat="44.59230186576524" lon="11.953887184355564"><ele>4.0</ele><time>2026-04-25T10:32:42Z</time></trkpt><trkpt lat="44.59234356933259" lon="11.954094639558628"><ele>4.0</ele><time>2026-04-25T10:32:43Z</time></trkpt><trkpt lat="44.592386164937125" lon="11.954305306218203"><ele>4.0</ele><time>2026-04-25T10:32:44Z</time></trkpt><trkpt lat="44.59242681321525" lon="11.9545204928432"><ele>4.0</ele><time>2026-04-25T10:32:45Z</time></trkpt><trkpt lat="44.5924676097956" lon="11.95473647282759"><ele>4.0</ele><time>2026-04-25T10:32:46Z</time></trkpt><trkpt lat="44.59250588409075" lon="11.954959066272837"><ele>3.0</ele><time>2026-04-25T10:32:47Z</time></trkpt><trkpt lat="44.59253926527298" lon="11.955185508550128"><ele>2.0</ele><time>2026-04-25T10:32:48Z</time></trkpt><trkpt lat="44.592567712899374" lon="11.95541526353659"><ele>1.0</ele><time>2026-04-25T10:32:49Z</time></trkpt><trkpt lat="44.59259351545753" lon="11.95564718239312"><ele>1.0</ele><time>2026-04-25T10:32:50Z</time></trkpt><trkpt lat="44.592617054477046" lon="11.955879965092159"><ele>1.0</ele><time>2026-04-25T10:32:51Z</time></trkpt><trkpt lat="44.592646288142625" lon="11.956112156548116"><ele>1.0</ele><time>2026-04-25T10:32:52Z</time></trkpt><trkpt lat="44.59268423658474" lon="11.95634365270269"><ele>1.0</ele><time>2026-04-25T10:32:53Z</time></trkpt><trkpt lat="44.59272715656974" lon="11.95658016479074"><ele>1.0</ele><time>2026-04-25T10:32:54Z</time></trkpt><trkpt lat="44.59277291928067" lon="11.956818751984843"><ele>1.0</ele><time>2026-04-25T10:32:55Z</time></trkpt><trkpt lat="44.59282249468526" lon="11.957058024997314"><ele>1.0</ele><time>2026-04-25T10:32:56Z</time></trkpt><trkpt lat="44.59287388038151" lon="11.957288222427149"><ele>1.0</ele><time>2026-04-25T10:32:57Z</time></trkpt><trkpt lat="44.592924745930844" lon="11.957515626486368"><ele>1.0</ele><time>2026-04-25T10:32:58Z</time></trkpt><trkpt lat="44.592975250599984" lon="11.9577450799753"><ele>0.6666666666666666</ele><time>2026-04-25T10:32:59Z</time></trkpt><trkpt lat="44.593024813536516" lon="11.95798030138018"><ele>0.3333333333333333</ele><time>2026-04-25T10:33:00Z</time></trkpt><trkpt lat="44.59306794748767" lon="11.958221950997427"><ele>0.0</ele><time>2026-04-25T10:33:01Z</time></trkpt><trkpt lat="44.59310631717282" lon="11.958469394525002"><ele>-0.3333333333333333</ele><time>2026-04-25T10:33:02Z</time></trkpt><trkpt lat="44.593140823847165" lon="11.95871788002525"><ele>-0.6666666666666666</ele><time>2026-04-25T10:33:03Z</time></trkpt><trkpt lat="44.59316946668035" lon="11.958955781335955"><ele>-1.0</ele><time>2026-04-25T10:33:04Z</time></trkpt><trkpt lat="44.5931929885373" lon="11.959192376677946"><ele>-1.0</ele><time>2026-04-25T10:33:05Z</time></trkpt><trkpt lat="44.593219859887235" lon="11.959433113419875"><ele>-1.0</ele><time>2026-04-25T10:33:06Z</time></trkpt><trkpt lat="44.59326482976999" lon="11.959666097875436"><ele>-1.0</ele><time>2026-04-25T10:33:07Z</time></trkpt><trkpt lat="44.59330636811041" lon="11.959907937176695"><ele>-0.6666666666666666</ele><time>2026-04-25T10:33:08Z</time></trkpt><trkpt lat="44.5933472363021" lon="11.96013843111268"><ele>-0.3333333333333333</ele><time>2026-04-25T10:33:09Z</time></trkpt><trkpt lat="44.593392290119716" lon="11.960367732891626"><ele>0.0</ele><time>2026-04-25T10:33:10Z</time></trkpt><trkpt lat="44.5934473796283" lon="11.96059502536231"><ele>0.0</ele><time>2026-04-25T10:33:11Z</time></trkpt><trkpt lat="44.593513710537714" lon="11.960818716638911"><ele>0.0</ele><time>2026-04-25T10:33:12Z</time></trkpt><trkpt lat="44.593587489471886" lon="11.961039474111784"><ele>0.0</ele><time>2026-04-25T10:33:13Z</time></trkpt><trkpt lat="44.59365584555673" lon="11.961249549893811"><ele>0.3333333333333333</ele><time>2026-04-25T10:33:14Z</time></trkpt><trkpt lat="44.59372157064507" lon="11.961454326300844"><ele>0.6666666666666666</ele><time>2026-04-25T10:33:15Z</time></trkpt><trkpt lat="44.593785097688624" lon="11.961664851619723"><ele>1.0</ele><time>2026-04-25T10:33:16Z</time></trkpt><trkpt lat="44.59384240889268" lon="11.96188637737273"><ele>1.0</ele><time>2026-04-25T10:33:17Z</time></trkpt><trkpt lat="44.59389775500337" lon="11.962114703483607"><ele>1.0</ele><time>2026-04-25T10:33:18Z</time></trkpt><trkpt lat="44.59394579408518" lon="11.96235016536382"><ele>1.0</ele><time>2026-04-25T10:33:19Z</time></trkpt><trkpt lat="44.59399384299784" lon="11.96258843629586"><ele>0.3333333333333333</ele><time>2026-04-25T10:33:20Z</time></trkpt><trkpt lat="44.59403885481671" lon="11.962831353305015"><ele>-0.3333333333333333</ele><time>2026-04-25T10:33:21Z</time></trkpt><trkpt lat="44.59407905582026" lon="11.963080929321775"><ele>-1.0</ele><time>2026-04-25T10:33:22Z</time></trkpt><trkpt lat="44.59411284276305" lon="11.963335195804246"><ele>-0.3333333333333333</ele><time>2026-04-25T10:33:23Z</time></trkpt><trkpt lat="44.594144892704804" lon="11.96359056351827"><ele>0.3333333333333333</ele><time>2026-04-25T10:33:24Z</time></trkpt><trkpt lat="44.594177098455795" lon="11.963849012393403"><ele>1.0</ele><time>2026-04-25T10:33:25Z</time></trkpt><trkpt lat="44.59421146061284" lon="11.964107956697598"><ele>1.3333333333333333</ele><time>2026-04-25T10:33:26Z</time></trkpt><trkpt lat="44.59424945813841" lon="11.964368750372383"><ele>1.6666666666666665</ele><time>2026-04-25T10:33:27Z</time></trkpt><trkpt lat="44.594288863573105" lon="11.964631465192628"><ele>2.0</ele><time>2026-04-25T10:33:28Z</time></trkpt><trkpt lat="44.59432706321635" lon="11.964895109169298"><ele>1.6666666666666665</ele><time>2026-04-25T10:33:29Z</time></trkpt><trkpt lat="44.59436255954062" lon="11.965160162105787"><ele>1.3333333333333333</ele><time>2026-04-25T10:33:30Z</time></trkpt><trkpt lat="44.5943979821033" lon="11.965425954358382"><ele>1.0</ele><time>2026-04-25T10:33:31Z</time></trkpt><trkpt lat="44.59443380778062" lon="11.965692286154653"><ele>1.3333333333333333</ele><time>2026-04-25T10:33:32Z</time></trkpt><trkpt lat="44.59446858934381" lon="11.965961402434035"><ele>1.6666666666666665</ele><time>2026-04-25T10:33:33Z</time></trkpt><trkpt lat="44.59450838467901" lon="11.96623217119904"><ele>2.0</ele><time>2026-04-25T10:33:34Z</time></trkpt><trkpt lat="44.5945524153197" lon="11.966503357861146"><ele>1.3333333333333333</ele><time>2026-04-25T10:33:35Z</time></trkpt><trkpt lat="44.594598246804075" lon="11.966777604528733"><ele>0.6666666666666666</ele><time>2026-04-25T10:33:36Z</time></trkpt><trkpt lat="44.59464248795424" lon="11.96705611152344"><ele>0.0</ele><time>2026-04-25T10:33:37Z</time></trkpt><trkpt lat="44.594686669691825" lon="11.96733711806894"><ele>0.3333333333333333</ele><time>2026-04-25T10:33:38Z</time></trkpt><trkpt lat="44.59472782329922" lon="11.96761849815626"><ele>0.6666666666666666</ele><time>2026-04-25T10:33:39Z</time></trkpt><trkpt lat="44.59476932951824" lon="11.967903421706213"><ele>1.0</ele><time>2026-04-25T10:33:40Z</time></trkpt><trkpt lat="44.59481037590145" lon="11.968191050940883"><ele>1.0</ele><time>2026-04-25T10:33:41Z</time></trkpt><trkpt lat="44.59485000505572" lon="11.968480935911396"><ele>1.0</ele><time>2026-04-25T10:33:42Z</time></trkpt><trkpt lat="44.594889543925035" lon="11.968772204209408"><ele>1.0</ele><time>2026-04-25T10:33:43Z</time></trkpt><trkpt lat="44.59492894160942" lon="11.969062450918315"><ele>1.3333333333333333</ele><time>2026-04-25T10:33:44Z</time></trkpt><trkpt lat="44.594967999731495" lon="11.969355398941293"><ele>1.6666666666666665</ele><time>2026-04-25T10:33:45Z</time></trkpt><trkpt lat="44.59500784579983" lon="11.969646617326008"><ele>2.0</ele><time>2026-04-25T10:33:46Z</time></trkpt><trkpt lat="44.59504867064999" lon="11.96993637590427"><ele>1.6666666666666665</ele><time>2026-04-25T10:33:47Z</time></trkpt><trkpt lat="44.59509332645069" lon="11.970223812438828"><ele>1.3333333333333333</ele><time>2026-04-25T10:33:48Z</time></trkpt><trkpt lat="44.595139259260506" lon="11.970511881627464"><ele>1.0</ele><time>2026-04-25T10:33:49Z</time></trkpt><trkpt lat="44.5951836857537" lon="11.970801086137666"><ele>1.0</ele><time>2026-04-25T10:33:50Z</time></trkpt><trkpt lat="44.595224091772714" lon="11.971089049643338"><ele>1.0</ele><time>2026-04-25T10:33:51Z</time></trkpt><trkpt lat="44.595264331042024" lon="11.971375799985593"><ele>1.0</ele><time>2026-04-25T10:33:52Z</time></trkpt><trkpt lat="44.59530471046775" lon="11.9716644918875"><ele>0.3333333333333333</ele><time>2026-04-25T10:33:53Z</time></trkpt><trkpt lat="44.59534495666311" lon="11.971952610272394"><ele>-0.3333333333333333</ele><time>2026-04-25T10:33:54Z</time></trkpt><trkpt lat="44.595385644786866" lon="11.972240434409413"><ele>-1.0</ele><time>2026-04-25T10:33:55Z</time></trkpt><trkpt lat="44.59542742601992" lon="11.972528246929846"><ele>-1.0</ele><time>2026-04-25T10:33:56Z</time></trkpt><trkpt lat="44.59547112692823" lon="11.972815104283711"><ele>-1.0</ele><time>2026-04-25T10:33:57Z</time></trkpt><trkpt lat="44.59551659613561" lon="11.973101730612306"><ele>-1.0</ele><time>2026-04-25T10:33:58Z</time></trkpt><trkpt lat="44.595562025213" lon="11.973378826203588"><ele>-1.0</ele><time>2026-04-25T10:33:59Z</time></trkpt><trkpt lat="44.59560609891501" lon="11.973644072279686"><ele>-1.0</ele><time>2026-04-25T10:34:00Z</time></trkpt><trkpt lat="44.595653785896864" lon="11.973889923208477"><ele>-1.0</ele><time>2026-04-25T10:34:01Z</time></trkpt><trkpt lat="44.59568790411248" lon="11.974112395486417"><ele>-0.3333333333333333</ele><time>2026-04-25T10:34:02Z</time></trkpt><trkpt lat="44.59573259836467" lon="11.974357536390782"><ele>0.3333333333333333</ele><time>2026-04-25T10:34:03Z</time></trkpt><trkpt lat="44.5957785606681" lon="11.97458973495782"><ele>1.0</ele><time>2026-04-25T10:34:04Z</time></trkpt><trkpt lat="44.59581974343485" lon="11.974814341374051"><ele>0.6666666666666666</ele><time>2026-04-25T10:34:05Z</time></trkpt><trkpt lat="44.59585017111367" lon="11.975032145585748"><ele>0.3333333333333333</ele><time>2026-04-25T10:34:06Z</time></trkpt><trkpt lat="44.595861291641775" lon="11.975254546052659"><ele>0.0</ele><time>2026-04-25T10:34:07Z</time></trkpt><trkpt lat="44.59585537844528" lon="11.975484727679431"><ele>0.0</ele><time>2026-04-25T10:34:08Z</time></trkpt><trkpt lat="44.59583702923725" lon="11.975718430024171"><ele>0.0</ele><time>2026-04-25T10:34:09Z</time></trkpt><trkpt lat="44.595811132325935" lon="11.975954565975908"><ele>0.0</ele><time>2026-04-25T10:34:10Z</time></trkpt><trkpt lat="44.59578967935003" lon="11.976195938768429"><ele>-0.3333333333333333</ele><time>2026-04-25T10:34:11Z</time></trkpt><trkpt lat="44.595777986453186" lon="11.976444699271138"><ele>-0.6666666666666666</ele><time>2026-04-25T10:34:12Z</time></trkpt><trkpt lat="44.59578059002172" lon="11.976700236256852"><ele>-1.0</ele><time>2026-04-25T10:34:13Z</time></trkpt><trkpt lat="44.59579780157102" lon="11.976958302817359"><ele>-0.3333333333333333</ele><time>2026-04-25T10:34:14Z</time></trkpt><trkpt lat="44.595818248444594" lon="11.977221811803716"><ele>0.3333333333333333</ele><time>2026-04-25T10:34:15Z</time></trkpt><trkpt lat="44.59583997250806" lon="11.977488688408128"><ele>1.0</ele><time>2026-04-25T10:34:16Z</time></trkpt><trkpt lat="44.595866601007316" lon="11.977755421964536"><ele>1.0</ele><time>2026-04-25T10:34:17Z</time></trkpt><trkpt lat="44.595898100912194" lon="11.978017477619808"><ele>1.0</ele><time>2026-04-25T10:34:18Z</time></trkpt><trkpt lat="44.595930942859404" lon="11.978278699601201"><ele>1.0</ele><time>2026-04-25T10:34:19Z</time></trkpt><trkpt lat="44.595963186718656" lon="11.97853515316053"><ele>1.3333333333333333</ele><time>2026-04-25T10:34:20Z</time></trkpt><trkpt lat="44.595996885926695" lon="11.97879348973897"><ele>1.6666666666666665</ele><time>2026-04-25T10:34:21Z</time></trkpt><trkpt lat="44.596033508187375" lon="11.979052810379397"><ele>2.0</ele><time>2026-04-25T10:34:22Z</time></trkpt><trkpt lat="44.5960680339605" lon="11.979314041140565"><ele>2.333333333333333</ele><time>2026-04-25T10:34:23Z</time></trkpt><trkpt lat="44.59609757305409" lon="11.979577135967734"><ele>2.6666666666666665</ele><time>2026-04-25T10:34:24Z</time></trkpt><trkpt lat="44.5961305097842" lon="11.979840206367614"><ele>3.0</ele><time>2026-04-25T10:34:25Z</time></trkpt><trkpt lat="44.59616208589504" lon="11.98010346877829"><ele>2.6666666666666665</ele><time>2026-04-25T10:34:26Z</time></trkpt><trkpt lat="44.59619168029066" lon="11.980372504799407"><ele>2.333333333333333</ele><time>2026-04-25T10:34:27Z</time></trkpt><trkpt lat="44.59621993518969" lon="11.98064596904616"><ele>2.0</ele><time>2026-04-25T10:34:28Z</time></trkpt><trkpt lat="44.59625201032373" lon="11.98092007391077"><ele>1.6666666666666665</ele><time>2026-04-25T10:34:29Z</time></trkpt><trkpt lat="44.59628932768053" lon="11.981193076957103"><ele>1.3333333333333333</ele><time>2026-04-25T10:34:30Z</time></trkpt><trkpt lat="44.59632864391072" lon="11.981467158630569"><ele>1.0</ele><time>2026-04-25T10:34:31Z</time></trkpt><trkpt lat="44.596370704996495" lon="11.981742671364573"><ele>1.0</ele><time>2026-04-25T10:34:32Z</time></trkpt><trkpt lat="44.596414835675695" lon="11.98201956382307"><ele>1.0</ele><time>2026-04-25T10:34:33Z</time></trkpt><trkpt lat="44.59646395520978" lon="11.982298642767816"><ele>1.0</ele><time>2026-04-25T10:34:34Z</time></trkpt><trkpt lat="44.59651173358817" lon="11.982579368582453"><ele>1.0</ele><time>2026-04-25T10:34:35Z</time></trkpt><trkpt lat="44.5965597644112" lon="11.982862355822581"><ele>1.0</ele><time>2026-04-25T10:34:36Z</time></trkpt><trkpt lat="44.596593354001556" lon="11.983146534770176"><ele>1.0</ele><time>2026-04-25T10:34:37Z</time></trkpt><trkpt lat="44.59662594476036" lon="11.983432345806111"><ele>1.3333333333333333</ele><time>2026-04-25T10:34:38Z</time></trkpt><trkpt lat="44.59666638645955" lon="11.983714877252945"><ele>1.6666666666666665</ele><time>2026-04-25T10:34:39Z</time></trkpt><trkpt lat="44.5967154389672" lon="11.984000295728805"><ele>2.0</ele><time>2026-04-25T10:34:40Z</time></trkpt><trkpt lat="44.596765014497905" lon="11.984285803126483"><ele>2.0</ele><time>2026-04-25T10:34:41Z</time></trkpt><trkpt lat="44.59681576267708" lon="11.984573169503452"><ele>2.0</ele><time>2026-04-25T10:34:42Z</time></trkpt><trkpt lat="44.5968673128996" lon="11.984857326104176"><ele>2.0</ele><time>2026-04-25T10:34:43Z</time></trkpt><trkpt lat="44.59692532026231" lon="11.985141456506824"><ele>2.0</ele><time>2026-04-25T10:34:44Z</time></trkpt><trkpt lat="44.5969906402132" lon="11.9854194764642"><ele>2.0</ele><time>2026-04-25T10:34:45Z</time></trkpt><trkpt lat="44.5970586256855" lon="11.9856949077801"><ele>2.0</ele><time>2026-04-25T10:34:46Z</time></trkpt><trkpt lat="44.597128997125935" lon="11.98596746070688"><ele>1.6666666666666665</ele><time>2026-04-25T10:34:47Z</time></trkpt><trkpt lat="44.59720021957162" lon="11.98624215050835"><ele>1.3333333333333333</ele><time>2026-04-25T10:34:48Z</time></trkpt><trkpt lat="44.59726956463704" lon="11.986517688556896"><ele>1.0</ele><time>2026-04-25T10:34:49Z</time></trkpt><trkpt lat="44.597336000590644" lon="11.98679554271953"><ele>1.0</ele><time>2026-04-25T10:34:50Z</time></trkpt><trkpt lat="44.59740277537971" lon="11.9870760775403"><ele>1.0</ele><time>2026-04-25T10:34:51Z</time></trkpt><trkpt lat="44.59746937441761" lon="11.987355631377218"><ele>1.0</ele><time>2026-04-25T10:34:52Z</time></trkpt><trkpt lat="44.597534489205486" lon="11.987634437319338"><ele>1.3333333333333333</ele><time>2026-04-25T10:34:53Z</time></trkpt><trkpt lat="44.597599667955926" lon="11.987909368900736"><ele>1.6666666666666665</ele><time>2026-04-25T10:34:54Z</time></trkpt><trkpt lat="44.59766794344805" lon="11.988181389461078"><ele>2.0</ele><time>2026-04-25T10:34:55Z</time></trkpt><trkpt lat="44.597734915664205" lon="11.98845906938903"><ele>2.0</ele><time>2026-04-25T10:34:56Z</time></trkpt><trkpt lat="44.59780224599347" lon="11.98873778525613"><ele>2.0</ele><time>2026-04-25T10:34:57Z</time></trkpt><trkpt lat="44.59786970752279" lon="11.989017719841966"><ele>2.0</ele><time>2026-04-25T10:34:58Z</time></trkpt><trkpt lat="44.59793708127219" lon="11.989298340742804"><ele>1.3333333333333333</ele><time>2026-04-25T10:34:59Z</time></trkpt><trkpt lat="44.59800507346899" lon="11.989581826001757"><ele>0.6666666666666666</ele><time>2026-04-25T10:35:00Z</time></trkpt><trkpt lat="44.598071138868534" lon="11.98986734880496"><ele>0.0</ele><time>2026-04-25T10:35:01Z</time></trkpt><trkpt lat="44.598132472284554" lon="11.990143153151381"><ele>0.0</ele><time>2026-04-25T10:35:02Z</time></trkpt><trkpt lat="44.5981899534987" lon="11.990406783505591"><ele>0.0</ele><time>2026-04-25T10:35:03Z</time></trkpt><trkpt lat="44.598247525641405" lon="11.990658456844216"><ele>0.0</ele><time>2026-04-25T10:35:04Z</time></trkpt><trkpt lat="44.59830400597982" lon="11.99089444401765"><ele>0.3333333333333333</ele><time>2026-04-25T10:35:05Z</time></trkpt><trkpt lat="44.59835501426528" lon="11.991133137047276"><ele>0.6666666666666666</ele><time>2026-04-25T10:35:06Z</time></trkpt><trkpt lat="44.59839994661296" lon="11.991381395925314"><ele>1.0</ele><time>2026-04-25T10:35:07Z</time></trkpt><trkpt lat="44.59843767369077" lon="11.991630159407956"><ele>1.0</ele><time>2026-04-25T10:35:08Z</time></trkpt><trkpt lat="44.59846945129479" lon="11.991883062172114"><ele>1.0</ele><time>2026-04-25T10:35:09Z</time></trkpt><trkpt lat="44.59850287861854" lon="11.992137562319574"><ele>1.0</ele><time>2026-04-25T10:35:10Z</time></trkpt><trkpt lat="44.59854039479996" lon="11.992393623490779"><ele>1.6666666666666665</ele><time>2026-04-25T10:35:11Z</time></trkpt><trkpt lat="44.598583569211144" lon="11.992643353456382"><ele>2.3333333333333335</ele><time>2026-04-25T10:35:12Z</time></trkpt><trkpt lat="44.59863112734846" lon="11.992885503684002"><ele>3.0</ele><time>2026-04-25T10:35:13Z</time></trkpt><trkpt lat="44.59868540051008" lon="11.99312176930514"><ele>2.0</ele><time>2026-04-25T10:35:14Z</time></trkpt><trkpt lat="44.598744179845504" lon="11.993354304640913"><ele>1.0</ele><time>2026-04-25T10:35:15Z</time></trkpt><trkpt lat="44.59880331320884" lon="11.993574486410251"><ele>0.0</ele><time>2026-04-25T10:35:16Z</time></trkpt><trkpt lat="44.5988644122128" lon="11.99378373715446"><ele>0.0</ele><time>2026-04-25T10:35:17Z</time></trkpt><trkpt lat="44.59892647040129" lon="11.993978893504858"><ele>0.0</ele><time>2026-04-25T10:35:18Z</time></trkpt><trkpt lat="44.59899589110374" lon="11.994176461840441"><ele>0.0</ele><time>2026-04-25T10:35:19Z</time></trkpt><trkpt lat="44.59907742409411" lon="11.994363291630824"><ele>0.3333333333333333</ele><time>2026-04-25T10:35:20Z</time></trkpt><trkpt lat="44.5991646020017" lon="11.994589795159985"><ele>0.6666666666666666</ele><time>2026-04-25T10:35:21Z</time></trkpt><trkpt lat="44.599236162887735" lon="11.994744031824501"><ele>1.0</ele><time>2026-04-25T10:35:22Z</time></trkpt><trkpt lat="44.59929491539641" lon="11.994952065185158"><ele>1.3333333333333333</ele><time>2026-04-25T10:35:23Z</time></trkpt><trkpt lat="44.59934278711204" lon="11.995173408135948"><ele>1.6666666666666665</ele><time>2026-04-25T10:35:24Z</time></trkpt><trkpt lat="44.59938424004849" lon="11.995402504967004"><ele>2.0</ele><time>2026-04-25T10:35:25Z</time></trkpt><trkpt lat="44.59942129578989" lon="11.995639101492886"><ele>2.0</ele><time>2026-04-25T10:35:26Z</time></trkpt><trkpt lat="44.59946167687769" lon="11.99587982918443"><ele>2.0</ele><time>2026-04-25T10:35:27Z</time></trkpt><trkpt lat="44.59950764116441" lon="11.996121300910833"><ele>2.0</ele><time>2026-04-25T10:35:28Z</time></trkpt><trkpt lat="44.599557204183206" lon="11.996379460702437"><ele>1.6666666666666665</ele><time>2026-04-25T10:35:29Z</time></trkpt><trkpt lat="44.59960132725132" lon="11.996633916175313"><ele>1.3333333333333333</ele><time>2026-04-25T10:35:30Z</time></trkpt><trkpt lat="44.59965493303758" lon="11.996883136400088"><ele>1.0</ele><time>2026-04-25T10:35:31Z</time></trkpt><trkpt lat="44.59969953136197" lon="11.997139773991496"><ele>1.0</ele><time>2026-04-25T10:35:32Z</time></trkpt><trkpt lat="44.59974629195967" lon="11.99739104736765"><ele>1.0</ele><time>2026-04-25T10:35:33Z</time></trkpt><trkpt lat="44.599789397214884" lon="11.997629669155906"><ele>1.0</ele><time>2026-04-25T10:35:34Z</time></trkpt><trkpt lat="44.599828799952945" lon="11.99786043062672"><ele>1.0</ele><time>2026-04-25T10:35:35Z</time></trkpt><trkpt lat="44.59986227904448" lon="11.99809559369277"><ele>1.0</ele><time>2026-04-25T10:35:36Z</time></trkpt><trkpt lat="44.599897468180316" lon="11.99832502477336"><ele>1.0</ele><time>2026-04-25T10:35:37Z</time></trkpt><trkpt lat="44.59993120973673" lon="11.998555648239703"><ele>1.0</ele><time>2026-04-25T10:35:38Z</time></trkpt><trkpt lat="44.599962019995786" lon="11.99879064216337"><ele>1.0</ele><time>2026-04-25T10:35:39Z</time></trkpt><trkpt lat="44.59999042916655" lon="11.999030510513146"><ele>1.0</ele><time>2026-04-25T10:35:40Z</time></trkpt><trkpt lat="44.60002269020633" lon="11.999273814198595"><ele>1.0</ele><time>2026-04-25T10:35:41Z</time></trkpt><trkpt lat="44.600057219913445" lon="11.999522335929923"><ele>1.0</ele><time>2026-04-25T10:35:42Z</time></trkpt><trkpt lat="44.600090596073535" lon="11.99977498861045"><ele>1.0</ele><time>2026-04-25T10:35:43Z</time></trkpt><trkpt lat="44.6001224989186" lon="12.000037413211372"><ele>1.0</ele><time>2026-04-25T10:35:44Z</time></trkpt><trkpt lat="44.60015139704135" lon="12.000305747955727"><ele>1.0</ele><time>2026-04-25T10:35:45Z</time></trkpt><trkpt lat="44.60017571469738" lon="12.0005789510558"><ele>1.0</ele><time>2026-04-25T10:35:46Z</time></trkpt><trkpt lat="44.60019282571999" lon="12.000857639480634"><ele>1.3333333333333333</ele><time>2026-04-25T10:35:47Z</time></trkpt><trkpt lat="44.600205300820704" lon="12.001135753358458"><ele>1.6666666666666665</ele><time>2026-04-25T10:35:48Z</time></trkpt><trkpt lat="44.60022129565364" lon="12.001412849994509"><ele>2.0</ele><time>2026-04-25T10:35:49Z</time></trkpt><trkpt lat="44.60023410156659" lon="12.001679975830793"><ele>2.333333333333333</ele><time>2026-04-25T10:35:50Z</time></trkpt><trkpt lat="44.60024510161029" lon="12.001939414424132"><ele>2.6666666666666665</ele><time>2026-04-25T10:35:51Z</time></trkpt><trkpt lat="44.6002566453267" lon="12.002194824479043"><ele>3.0</ele><time>2026-04-25T10:35:52Z</time></trkpt><trkpt lat="44.60027003357414" lon="12.002444002715963"><ele>2.6666666666666665</ele><time>2026-04-25T10:35:53Z</time></trkpt><trkpt lat="44.60028300349913" lon="12.002675218729353"><ele>2.333333333333333</ele><time>2026-04-25T10:35:54Z</time></trkpt><trkpt lat="44.6002944961268" lon="12.002888202358836"><ele>2.0</ele><time>2026-04-25T10:35:55Z</time></trkpt><trkpt lat="44.60030181370344" lon="12.003090717611189"><ele>2.0</ele><time>2026-04-25T10:35:56Z</time></trkpt><trkpt lat="44.60030110179246" lon="12.003294414368574"><ele>2.0</ele><time>2026-04-25T10:35:57Z</time></trkpt><trkpt lat="44.60029294288226" lon="12.003495025013724"><ele>2.0</ele><time>2026-04-25T10:35:58Z</time></trkpt><trkpt lat="44.60026423722242" lon="12.003708187481504"><ele>2.0</ele><time>2026-04-25T10:35:59Z</time></trkpt><trkpt lat="44.600235759340585" lon="12.003928297610662"><ele>1.6666666666666665</ele><time>2026-04-25T10:36:00Z</time></trkpt><trkpt lat="44.6002226513789" lon="12.004149025920603"><ele>1.3333333333333333</ele><time>2026-04-25T10:36:01Z</time></trkpt><trkpt lat="44.60022126170256" lon="12.004370290108652"><ele>1.0</ele><time>2026-04-25T10:36:02Z</time></trkpt><trkpt lat="44.600235041143925" lon="12.004579453254118"><ele>1.5</ele><time>2026-04-25T10:36:03Z</time></trkpt><trkpt lat="44.60025736249328" lon="12.00478610275328"><ele>2.0</ele><time>2026-04-25T10:36:04Z</time></trkpt><trkpt lat="44.60028237510456" lon="12.004986969900687"><ele>2.5</ele><time>2026-04-25T10:36:05Z</time></trkpt><trkpt lat="44.60030805509038" lon="12.005177159162386"><ele>3.0</ele><time>2026-04-25T10:36:06Z</time></trkpt><trkpt lat="44.600328990625506" lon="12.005362438225118"><ele>3.0</ele><time>2026-04-25T10:36:07Z</time></trkpt><trkpt lat="44.60033770581669" lon="12.005544061448155"><ele>3.0</ele><time>2026-04-25T10:36:08Z</time></trkpt><trkpt lat="44.60033308328784" lon="12.005731785202055"><ele>3.0</ele><time>2026-04-25T10:36:09Z</time></trkpt><trkpt lat="44.600305934713354" lon="12.00590882170082"><ele>3.0</ele><time>2026-04-25T10:36:10Z</time></trkpt><trkpt lat="44.60025910530663" lon="12.006075514830803"><ele>2.75</ele><time>2026-04-25T10:36:11Z</time></trkpt><trkpt lat="44.60018549694287" lon="12.006226292524307"><ele>2.5</ele><time>2026-04-25T10:36:12Z</time></trkpt><trkpt lat="44.600088606021025" lon="12.006356946466445"><ele>2.25</ele><time>2026-04-25T10:36:13Z</time></trkpt><trkpt lat="44.59997347453927" lon="12.006476412042236"><ele>2.0</ele><time>2026-04-25T10:36:14Z</time></trkpt><trkpt lat="44.59985031116147" lon="12.006596301876629"><ele>2.0</ele><time>2026-04-25T10:36:15Z</time></trkpt><trkpt lat="44.59972314808884" lon="12.006728540450402"><ele>2.0</ele><time>2026-04-25T10:36:16Z</time></trkpt><trkpt lat="44.599593928541225" lon="12.00686827417307"><ele>2.0</ele><time>2026-04-25T10:36:17Z</time></trkpt><trkpt lat="44.599466105328155" lon="12.007008049088228"><ele>2.6666666666666665</ele><time>2026-04-25T10:36:18Z</time></trkpt><trkpt lat="44.59933847436512" lon="12.007146175076784"><ele>3.333333333333333</ele><time>2026-04-25T10:36:19Z</time></trkpt><trkpt lat="44.599205202235055" lon="12.007286483288796"><ele>4.0</ele><time>2026-04-25T10:36:20Z</time></trkpt><trkpt lat="44.59906580556717" lon="12.007430236738083"><ele>4.0</ele><time>2026-04-25T10:36:21Z</time></trkpt><trkpt lat="44.59892322266705" lon="12.007573523427741"><ele>4.0</ele><time>2026-04-25T10:36:22Z</time></trkpt><trkpt lat="44.59877375831171" lon="12.007715558903211"><ele>4.0</ele><time>2026-04-25T10:36:23Z</time></trkpt><trkpt lat="44.598619372753795" lon="12.00785323956322"><ele>4.0</ele><time>2026-04-25T10:36:24Z</time></trkpt><trkpt lat="44.59846376756508" lon="12.007986634102839"><ele>4.0</ele><time>2026-04-25T10:36:25Z</time></trkpt><trkpt lat="44.598308297483044" lon="12.008114894337961"><ele>4.0</ele><time>2026-04-25T10:36:26Z</time></trkpt><trkpt lat="44.59815505109463" lon="12.008228115400383"><ele>4.0</ele><time>2026-04-25T10:36:27Z</time></trkpt><trkpt lat="44.598003637021286" lon="12.008326374419493"><ele>4.0</ele><time>2026-04-25T10:36:28Z</time></trkpt><trkpt lat="44.59786160376515" lon="12.008407758570321"><ele>4.0</ele><time>2026-04-25T10:36:29Z</time></trkpt><trkpt lat="44.597725192487985" lon="12.00847790718363"><ele>3.75</ele><time>2026-04-25T10:36:30Z</time></trkpt><trkpt lat="44.59759218715868" lon="12.008532577497855"><ele>3.5</ele><time>2026-04-25T10:36:31Z</time></trkpt><trkpt lat="44.59745644354912" lon="12.00856326226207"><ele>3.25</ele><time>2026-04-25T10:36:32Z</time></trkpt><trkpt lat="44.59731604013997" lon="12.008570943131824"><ele>3.0</ele><time>2026-04-25T10:36:33Z</time></trkpt><trkpt lat="44.59718383013904" lon="12.008543802866475"><ele>3.0</ele><time>2026-04-25T10:36:34Z</time></trkpt><trkpt lat="44.597048991266895" lon="12.008484667234168"><ele>3.0</ele><time>2026-04-25T10:36:35Z</time></trkpt><trkpt lat="44.59691228909714" lon="12.008404698541796"><ele>3.0</ele><time>2026-04-25T10:36:36Z</time></trkpt><trkpt lat="44.59677506186201" lon="12.008308161360677"><ele>3.0</ele><time>2026-04-25T10:36:37Z</time></trkpt><trkpt lat="44.596631274608846" lon="12.008209233612863"><ele>3.333333333333333</ele><time>2026-04-25T10:36:38Z</time></trkpt><trkpt lat="44.596488365056146" lon="12.008114202420419"><ele>3.6666666666666665</ele><time>2026-04-25T10:36:39Z</time></trkpt><trkpt lat="44.59634984358635" lon="12.008025023795204"><ele>4.0</ele><time>2026-04-25T10:36:40Z</time></trkpt><trkpt lat="44.59620814891736" lon="12.007948209058577"><ele>4.0</ele><time>2026-04-25T10:36:41Z</time></trkpt><trkpt lat="44.596057919756156" lon="12.007890079572608"><ele>4.0</ele><time>2026-04-25T10:36:42Z</time></trkpt><trkpt lat="44.595902830795765" lon="12.0078513737152"><ele>4.0</ele><time>2026-04-25T10:36:43Z</time></trkpt><trkpt lat="44.59574403730478" lon="12.007821736409626"><ele>4.0</ele><time>2026-04-25T10:36:44Z</time></trkpt><trkpt lat="44.59558612429067" lon="12.00779485262759"><ele>4.0</ele><time>2026-04-25T10:36:45Z</time></trkpt><trkpt lat="44.59543982122111" lon="12.007766096822175"><ele>4.0</ele><time>2026-04-25T10:36:46Z</time></trkpt><trkpt lat="44.59529236011003" lon="12.007720411443223"><ele>3.6666666666666665</ele><time>2026-04-25T10:36:47Z</time></trkpt><trkpt lat="44.595140964380604" lon="12.00765911342717"><ele>3.333333333333333</ele><time>2026-04-25T10:36:48Z</time></trkpt><trkpt lat="44.59498868979976" lon="12.007579772840083"><ele>3.0</ele><time>2026-04-25T10:36:49Z</time></trkpt><trkpt lat="44.594833844209546" lon="12.00749015200061"><ele>3.0</ele><time>2026-04-25T10:36:50Z</time></trkpt><trkpt lat="44.594676495973204" lon="12.007401169884918"><ele>3.0</ele><time>2026-04-25T10:36:51Z</time></trkpt><trkpt lat="44.59451541358827" lon="12.00731700201058"><ele>3.0</ele><time>2026-04-25T10:36:52Z</time></trkpt><trkpt lat="44.59435105895243" lon="12.007233805510657"><ele>3.0</ele><time>2026-04-25T10:36:53Z</time></trkpt><trkpt lat="44.59418479662149" lon="12.007156227901381"><ele>3.0</ele><time>2026-04-25T10:36:54Z</time></trkpt><trkpt lat="44.594022845347375" lon="12.007088870811295"><ele>3.0</ele><time>2026-04-25T10:36:55Z</time></trkpt><trkpt lat="44.59385987909649" lon="12.007029595915013"><ele>3.0</ele><time>2026-04-25T10:36:56Z</time></trkpt><trkpt lat="44.593695781501694" lon="12.006971646171577"><ele>3.0</ele><time>2026-04-25T10:36:57Z</time></trkpt><trkpt lat="44.59353056740255" lon="12.006919507039722"><ele>3.0</ele><time>2026-04-25T10:36:58Z</time></trkpt><trkpt lat="44.59336781569708" lon="12.006877562888398"><ele>3.0</ele><time>2026-04-25T10:36:59Z</time></trkpt><trkpt lat="44.59321369769604" lon="12.006848144301467"><ele>3.0</ele><time>2026-04-25T10:37:00Z</time></trkpt><trkpt lat="44.593065919447724" lon="12.00683187987408"><ele>3.0</ele><time>2026-04-25T10:37:01Z</time></trkpt><trkpt lat="44.59291595111731" lon="12.006833679028901"><ele>3.666666666666667</ele><time>2026-04-25T10:37:02Z</time></trkpt><trkpt lat="44.59276266485102" lon="12.006848274927954"><ele>4.333333333333334</ele><time>2026-04-25T10:37:03Z</time></trkpt><trkpt lat="44.59260638339143" lon="12.006866851916469"><ele>5.0</ele><time>2026-04-25T10:37:04Z</time></trkpt><trkpt lat="44.592449481040646" lon="12.006885549909514"><ele>5.0</ele><time>2026-04-25T10:37:05Z</time></trkpt><trkpt lat="44.592292792463354" lon="12.006903121443205"><ele>5.0</ele><time>2026-04-25T10:37:06Z</time></trkpt><trkpt lat="44.59214382047944" lon="12.00692222449508"><ele>5.0</ele><time>2026-04-25T10:37:07Z</time></trkpt><trkpt lat="44.59199672270061" lon="12.006944633638396"><ele>5.0</ele><time>2026-04-25T10:37:08Z</time></trkpt><trkpt lat="44.59185302437889" lon="12.006972928613065"><ele>5.0</ele><time>2026-04-25T10:37:09Z</time></trkpt><trkpt lat="44.59171445405782" lon="12.007013029302112"><ele>5.0</ele><time>2026-04-25T10:37:10Z</time></trkpt><trkpt lat="44.59157432163569" lon="12.007055724509115"><ele>5.0</ele><time>2026-04-25T10:37:11Z</time></trkpt><trkpt lat="44.59143571985955" lon="12.00710040321391"><ele>5.0</ele><time>2026-04-25T10:37:12Z</time></trkpt><trkpt lat="44.591295662189445" lon="12.007153606262147"><ele>5.0</ele><time>2026-04-25T10:37:13Z</time></trkpt><trkpt lat="44.59115341452413" lon="12.007210645666083"><ele>5.0</ele><time>2026-04-25T10:37:14Z</time></trkpt><trkpt lat="44.59100979060569" lon="12.00727110202011"><ele>5.0</ele><time>2026-04-25T10:37:15Z</time></trkpt><trkpt lat="44.59086072631739" lon="12.00733589604145"><ele>5.0</ele><time>2026-04-25T10:37:16Z</time></trkpt><trkpt lat="44.59070873409485" lon="12.007402994833585"><ele>5.0</ele><time>2026-04-25T10:37:17Z</time></trkpt><trkpt lat="44.59056092677539" lon="12.007472065550342"><ele>5.0</ele><time>2026-04-25T10:37:18Z</time></trkpt><trkpt lat="44.5904140896955" lon="12.007542173023541"><ele>5.333333333333334</ele><time>2026-04-25T10:37:19Z</time></trkpt><trkpt lat="44.5902640208955" lon="12.007610379590874"><ele>5.666666666666667</ele><time>2026-04-25T10:37:20Z</time></trkpt><trkpt lat="44.59011698560647" lon="12.007679937823598"><ele>6.0</ele><time>2026-04-25T10:37:21Z</time></trkpt><trkpt lat="44.589974477900256" lon="12.007746502647779"><ele>6.0</ele><time>2026-04-25T10:37:22Z</time></trkpt><trkpt lat="44.58983666043205" lon="12.007810942699097"><ele>6.0</ele><time>2026-04-25T10:37:23Z</time></trkpt><trkpt lat="44.58970425389913" lon="12.00786927223797"><ele>6.0</ele><time>2026-04-25T10:37:24Z</time></trkpt><trkpt lat="44.58957500012886" lon="12.007929215084275"><ele>6.0</ele><time>2026-04-25T10:37:25Z</time></trkpt><trkpt lat="44.58944580683966" lon="12.007989919702583"><ele>5.5</ele><time>2026-04-25T10:37:26Z</time></trkpt><trkpt lat="44.58931753802032" lon="12.008050058134952"><ele>5.0</ele><time>2026-04-25T10:37:27Z</time></trkpt><trkpt lat="44.589187958858275" lon="12.008111211868057"><ele>4.5</ele><time>2026-04-25T10:37:28Z</time></trkpt><trkpt lat="44.58905821688635" lon="12.008172752047942"><ele>4.0</ele><time>2026-04-25T10:37:29Z</time></trkpt><trkpt lat="44.58892454491111" lon="12.008232941170519"><ele>4.0</ele><time>2026-04-25T10:37:30Z</time></trkpt><trkpt lat="44.588786063539956" lon="12.008290625058905"><ele>4.0</ele><time>2026-04-25T10:37:31Z</time></trkpt><trkpt lat="44.58864506756416" lon="12.008346315838624"><ele>4.0</ele><time>2026-04-25T10:37:32Z</time></trkpt><trkpt lat="44.58850820731281" lon="12.008394196087563"><ele>4.0</ele><time>2026-04-25T10:37:33Z</time></trkpt><trkpt lat="44.5883719183245" lon="12.00843697349455"><ele>4.0</ele><time>2026-04-25T10:37:34Z</time></trkpt><trkpt lat="44.58823539397855" lon="12.008472083404097"><ele>4.0</ele><time>2026-04-25T10:37:35Z</time></trkpt><trkpt lat="44.58809722109221" lon="12.00850589565218"><ele>4.0</ele><time>2026-04-25T10:37:36Z</time></trkpt><trkpt lat="44.587960879561216" lon="12.008536774308757"><ele>4.0</ele><time>2026-04-25T10:37:37Z</time></trkpt><trkpt lat="44.58782548252145" lon="12.0085641520142"><ele>4.0</ele><time>2026-04-25T10:37:38Z</time></trkpt><trkpt lat="44.5876939334345" lon="12.008585653069058"><ele>4.0</ele><time>2026-04-25T10:37:39Z</time></trkpt><trkpt lat="44.587559252809335" lon="12.00859574739584"><ele>4.0</ele><time>2026-04-25T10:37:40Z</time></trkpt><trkpt lat="44.5874223154892" lon="12.008596861700894"><ele>4.0</ele><time>2026-04-25T10:37:41Z</time></trkpt><trkpt lat="44.58728274686047" lon="12.00859301086222"><ele>4.0</ele><time>2026-04-25T10:37:42Z</time></trkpt><trkpt lat="44.58714074801921" lon="12.008583493970544"><ele>4.0</ele><time>2026-04-25T10:37:43Z</time></trkpt><trkpt lat="44.58700284070763" lon="12.008569541669226"><ele>4.0</ele><time>2026-04-25T10:37:44Z</time></trkpt><trkpt lat="44.58687956934899" lon="12.008554367603889"><ele>4.0</ele><time>2026-04-25T10:37:45Z</time></trkpt><trkpt lat="44.58677003437853" lon="12.008538140864008"><ele>3.8000000000000003</ele><time>2026-04-25T10:37:46Z</time></trkpt><trkpt lat="44.58668115260991" lon="12.00852232659027"><ele>3.6000000000000005</ele><time>2026-04-25T10:37:47Z</time></trkpt><trkpt lat="44.58660779787921" lon="12.008508058959482"><ele>3.4</ele><time>2026-04-25T10:37:48Z</time></trkpt><trkpt lat="44.58649860294253" lon="12.008481306424981"><ele>3.2</ele><time>2026-04-25T10:37:50Z</time></trkpt><trkpt lat="44.58642461951594" lon="12.00844131730975"><ele>3.0</ele><time>2026-04-25T10:37:52Z</time></trkpt><trkpt lat="44.58637201050653" lon="12.00869421721072"><ele>3.0</ele><time>2026-04-25T10:37:54Z</time></trkpt><trkpt lat="44.5863850416569" lon="12.008798048042362"><ele>3.0</ele><time>2026-04-25T10:37:55Z</time></trkpt><trkpt lat="44.586397852382945" lon="12.008909450483902"><ele>3.0</ele><time>2026-04-25T10:37:56Z</time></trkpt><trkpt lat="44.58641262788263" lon="12.009036979232249"><ele>3.0</ele><time>2026-04-25T10:37:57Z</time></trkpt><trkpt lat="44.586425469593046" lon="12.00918108618329"><ele>3.0</ele><time>2026-04-25T10:37:58Z</time></trkpt><trkpt lat="44.586438198820424" lon="12.009342038063895"><ele>2.5</ele><time>2026-04-25T10:37:59Z</time></trkpt><trkpt lat="44.58645379427732" lon="12.009518845072483"><ele>2.0</ele><time>2026-04-25T10:38:00Z</time></trkpt><trkpt lat="44.586471691998206" lon="12.00971001849931"><ele>1.5</ele><time>2026-04-25T10:38:01Z</time></trkpt><trkpt lat="44.586490952361736" lon="12.00991772352958"><ele>1.0</ele><time>2026-04-25T10:38:02Z</time></trkpt><trkpt lat="44.586510022683036" lon="12.010123713777817"><ele>0.6666666666666666</ele><time>2026-04-25T10:38:03Z</time></trkpt><trkpt lat="44.586530234843515" lon="12.010344133014135"><ele>0.3333333333333333</ele><time>2026-04-25T10:38:04Z</time></trkpt><trkpt lat="44.586549101504" lon="12.010574982925288"><ele>0.0</ele><time>2026-04-25T10:38:05Z</time></trkpt><trkpt lat="44.586569554514654" lon="12.010813059919789"><ele>0.0</ele><time>2026-04-25T10:38:06Z</time></trkpt><trkpt lat="44.58659222663797" lon="12.011059470112295"><ele>0.0</ele><time>2026-04-25T10:38:07Z</time></trkpt><trkpt lat="44.58661411960667" lon="12.011302112611538"><ele>0.0</ele><time>2026-04-25T10:38:08Z</time></trkpt><trkpt lat="44.58663463744791" lon="12.011548009210868"><ele>0.0</ele><time>2026-04-25T10:38:09Z</time></trkpt><trkpt lat="44.586655351503474" lon="12.011795254909844"><ele>0.0</ele><time>2026-04-25T10:38:10Z</time></trkpt><trkpt lat="44.58667607065544" lon="12.01204419029643"><ele>0.0</ele><time>2026-04-25T10:38:11Z</time></trkpt><trkpt lat="44.58669745197467" lon="12.012296291771959"><ele>-0.6666666666666666</ele><time>2026-04-25T10:38:12Z</time></trkpt><trkpt lat="44.58671930107893" lon="12.012551853592534"><ele>-1.3333333333333333</ele><time>2026-04-25T10:38:13Z</time></trkpt><trkpt lat="44.586742155158255" lon="12.012813082142557"><ele>-2.0</ele><time>2026-04-25T10:38:14Z</time></trkpt><trkpt lat="44.58676499005511" lon="12.013063259865849"><ele>-2.0</ele><time>2026-04-25T10:38:15Z</time></trkpt><trkpt lat="44.586785446807916" lon="12.013304953272753"><ele>-2.0</ele><time>2026-04-25T10:38:16Z</time></trkpt><trkpt lat="44.58680913737908" lon="12.013547006085316"><ele>-2.0</ele><time>2026-04-25T10:38:17Z</time></trkpt><trkpt lat="44.58683306058086" lon="12.013786865769173"><ele>-2.0</ele><time>2026-04-25T10:38:18Z</time></trkpt><trkpt lat="44.586854200332674" lon="12.014030273271258"><ele>-2.0</ele><time>2026-04-25T10:38:19Z</time></trkpt><trkpt lat="44.58687310424167" lon="12.014277366996346"><ele>-2.0</ele><time>2026-04-25T10:38:20Z</time></trkpt><trkpt lat="44.5868945900246" lon="12.01452929290644"><ele>-2.0</ele><time>2026-04-25T10:38:21Z</time></trkpt><trkpt lat="44.58691548041478" lon="12.01478692229481"><ele>-2.0</ele><time>2026-04-25T10:38:22Z</time></trkpt><trkpt lat="44.58693557799456" lon="12.015046807758408"><ele>-2.0</ele><time>2026-04-25T10:38:23Z</time></trkpt><trkpt lat="44.586955952640594" lon="12.015310790315485"><ele>-2.333333333333333</ele><time>2026-04-25T10:38:24Z</time></trkpt><trkpt lat="44.586979130336374" lon="12.015577301338839"><ele>-2.6666666666666665</ele><time>2026-04-25T10:38:25Z</time></trkpt><trkpt lat="44.58700120198708" lon="12.015841008787383"><ele>-3.0</ele><time>2026-04-25T10:38:26Z</time></trkpt><trkpt lat="44.5870220155146" lon="12.016105266891675"><ele>-3.0</ele><time>2026-04-25T10:38:27Z</time></trkpt><trkpt lat="44.58704318677522" lon="12.01636950563894"><ele>-3.0</ele><time>2026-04-25T10:38:28Z</time></trkpt><trkpt lat="44.587064383518964" lon="12.016630533596528"><ele>-3.0</ele><time>2026-04-25T10:38:29Z</time></trkpt><trkpt lat="44.587085163913066" lon="12.016887651245622"><ele>-3.0</ele><time>2026-04-25T10:38:30Z</time></trkpt><trkpt lat="44.587105459498176" lon="12.017134862115988"><ele>-3.0</ele><time>2026-04-25T10:38:31Z</time></trkpt><trkpt lat="44.587127618189214" lon="12.017385274278599"><ele>-3.0</ele><time>2026-04-25T10:38:32Z</time></trkpt><trkpt lat="44.58714966832735" lon="12.017638326543167"><ele>-3.0</ele><time>2026-04-25T10:38:33Z</time></trkpt><trkpt lat="44.587170085835915" lon="12.017895883464785"><ele>-3.0</ele><time>2026-04-25T10:38:34Z</time></trkpt><trkpt lat="44.587191046921106" lon="12.018156811471107"><ele>-3.0</ele><time>2026-04-25T10:38:35Z</time></trkpt><trkpt lat="44.58721376355069" lon="12.01842276858877"><ele>-3.0</ele><time>2026-04-25T10:38:36Z</time></trkpt><trkpt lat="44.58723642886961" lon="12.01869263644418"><ele>-3.0</ele><time>2026-04-25T10:38:37Z</time></trkpt><trkpt lat="44.587258738945" lon="12.018965880395582"><ele>-3.0</ele><time>2026-04-25T10:38:38Z</time></trkpt><trkpt lat="44.58728140815878" lon="12.019236136505825"><ele>-3.0</ele><time>2026-04-25T10:38:39Z</time></trkpt><trkpt lat="44.58730417244882" lon="12.019508484433214"><ele>-3.0</ele><time>2026-04-25T10:38:40Z</time></trkpt><trkpt lat="44.58732601916057" lon="12.019779656547067"><ele>-3.0</ele><time>2026-04-25T10:38:41Z</time></trkpt><trkpt lat="44.58734842639976" lon="12.020052498387674"><ele>-3.0</ele><time>2026-04-25T10:38:42Z</time></trkpt><trkpt lat="44.58737196432808" lon="12.020326404497348"><ele>-3.0</ele><time>2026-04-25T10:38:43Z</time></trkpt><trkpt lat="44.58739511038736" lon="12.020600282783827"><ele>-3.0</ele><time>2026-04-25T10:38:44Z</time></trkpt><trkpt lat="44.58741783701103" lon="12.020875774661326"><ele>-3.0</ele><time>2026-04-25T10:38:45Z</time></trkpt><trkpt lat="44.587440291756046" lon="12.021149125257274"><ele>-3.0</ele><time>2026-04-25T10:38:46Z</time></trkpt><trkpt lat="44.58746428230996" lon="12.02142290243626"><ele>-3.0</ele><time>2026-04-25T10:38:47Z</time></trkpt><trkpt lat="44.58748835749676" lon="12.02169544909879"><ele>-3.0</ele><time>2026-04-25T10:38:48Z</time></trkpt><trkpt lat="44.58751192409083" lon="12.02197056013755"><ele>-3.0</ele><time>2026-04-25T10:38:49Z</time></trkpt><trkpt lat="44.58753519457992" lon="12.022247308150224"><ele>-3.0</ele><time>2026-04-25T10:38:50Z</time></trkpt><trkpt lat="44.58755795194872" lon="12.02252818078866"><ele>-3.0</ele><time>2026-04-25T10:38:51Z</time></trkpt><trkpt lat="44.58758167748099" lon="12.022812839398489"><ele>-3.0</ele><time>2026-04-25T10:38:52Z</time></trkpt><trkpt lat="44.58760609266814" lon="12.023094847687041"><ele>-3.0</ele><time>2026-04-25T10:38:53Z</time></trkpt><trkpt lat="44.587630278447286" lon="12.023374411172545"><ele>-3.333333333333333</ele><time>2026-04-25T10:38:54Z</time></trkpt><trkpt lat="44.587653498657296" lon="12.02364304097951"><ele>-3.6666666666666665</ele><time>2026-04-25T10:38:55Z</time></trkpt><trkpt lat="44.58767579072761" lon="12.023907986053882"><ele>-4.0</ele><time>2026-04-25T10:38:56Z</time></trkpt><trkpt lat="44.58769752635551" lon="12.024169311180685"><ele>-4.333333333333333</ele><time>2026-04-25T10:38:57Z</time></trkpt><trkpt lat="44.5877183329739" lon="12.02442996282126"><ele>-4.666666666666667</ele><time>2026-04-25T10:38:58Z</time></trkpt><trkpt lat="44.58773755470745" lon="12.024683291081853"><ele>-5.0</ele><time>2026-04-25T10:38:59Z</time></trkpt><trkpt lat="44.587757306982056" lon="12.024927244428993"><ele>-4.333333333333334</ele><time>2026-04-25T10:39:00Z</time></trkpt><trkpt lat="44.58777642774863" lon="12.025156990509597"><ele>-3.666666666666667</ele><time>2026-04-25T10:39:01Z</time></trkpt><trkpt lat="44.58779455382143" lon="12.025368642914556"><ele>-3.0</ele><time>2026-04-25T10:39:02Z</time></trkpt><trkpt lat="44.58781104144483" lon="12.025564744604313"><ele>-3.0</ele><time>2026-04-25T10:39:03Z</time></trkpt><trkpt lat="44.58782667669359" lon="12.025747021224891"><ele>-3.0</ele><time>2026-04-25T10:39:04Z</time></trkpt><trkpt lat="44.587844365656245" lon="12.025921057128311"><ele>-3.0</ele><time>2026-04-25T10:39:05Z</time></trkpt><trkpt lat="44.58786649242265" lon="12.026088671333559"><ele>-3.0</ele><time>2026-04-25T10:39:06Z</time></trkpt><trkpt lat="44.58789135172636" lon="12.026260243470139"><ele>-2.75</ele><time>2026-04-25T10:39:07Z</time></trkpt><trkpt lat="44.58791517333454" lon="12.026437776805599"><ele>-2.5</ele><time>2026-04-25T10:39:08Z</time></trkpt><trkpt lat="44.58794200184764" lon="12.026623956434314"><ele>-2.25</ele><time>2026-04-25T10:39:09Z</time></trkpt><trkpt lat="44.58797024528219" lon="12.026819421486604"><ele>-2.0</ele><time>2026-04-25T10:39:10Z</time></trkpt><trkpt lat="44.587996493770156" lon="12.027022475079324"><ele>-2.0</ele><time>2026-04-25T10:39:11Z</time></trkpt><trkpt lat="44.588026577896976" lon="12.027235288154921"><ele>-2.0</ele><time>2026-04-25T10:39:12Z</time></trkpt><trkpt lat="44.58806077973694" lon="12.027456067450823"><ele>-2.0</ele><time>2026-04-25T10:39:13Z</time></trkpt><trkpt lat="44.58809605478446" lon="12.02768235349849"><ele>-2.333333333333333</ele><time>2026-04-25T10:39:14Z</time></trkpt><trkpt lat="44.588128413955005" lon="12.02789872061779"><ele>-2.6666666666666665</ele><time>2026-04-25T10:39:15Z</time></trkpt><trkpt lat="44.588161870928325" lon="12.02811171804385"><ele>-3.0</ele><time>2026-04-25T10:39:16Z</time></trkpt><trkpt lat="44.58819393941326" lon="12.028323944467642"><ele>-3.0</ele><time>2026-04-25T10:39:17Z</time></trkpt><trkpt lat="44.588223716736486" lon="12.028537859002451"><ele>-3.0</ele><time>2026-04-25T10:39:18Z</time></trkpt><trkpt lat="44.588248122845286" lon="12.028752828657007"><ele>-3.0</ele><time>2026-04-25T10:39:19Z</time></trkpt><trkpt lat="44.58826282466624" lon="12.02897414794754"><ele>-3.0</ele><time>2026-04-25T10:39:20Z</time></trkpt><trkpt lat="44.58826545037572" lon="12.029199697521008"><ele>-3.0</ele><time>2026-04-25T10:39:21Z</time></trkpt><trkpt lat="44.58825960820288" lon="12.029429651296523"><ele>-3.0</ele><time>2026-04-25T10:39:22Z</time></trkpt><trkpt lat="44.58824595533813" lon="12.029660643995493"><ele>-3.0</ele><time>2026-04-25T10:39:23Z</time></trkpt><trkpt lat="44.588220173631704" lon="12.029890722446124"><ele>-3.0</ele><time>2026-04-25T10:39:24Z</time></trkpt><trkpt lat="44.588182235515774" lon="12.030123451633436"><ele>-3.0</ele><time>2026-04-25T10:39:25Z</time></trkpt><trkpt lat="44.588130437882135" lon="12.03035288856505"><ele>-3.333333333333333</ele><time>2026-04-25T10:39:26Z</time></trkpt><trkpt lat="44.58806415814908" lon="12.030580772795805"><ele>-3.6666666666666665</ele><time>2026-04-25T10:39:27Z</time></trkpt><trkpt lat="44.587987941926066" lon="12.0308089893016"><ele>-4.0</ele><time>2026-04-25T10:39:28Z</time></trkpt><trkpt lat="44.58790776517662" lon="12.031040228007095"><ele>-4.0</ele><time>2026-04-25T10:39:29Z</time></trkpt><trkpt lat="44.58782528807868" lon="12.031274189176203"><ele>-4.0</ele><time>2026-04-25T10:39:30Z</time></trkpt><trkpt lat="44.587740443142096" lon="12.031513829063433"><ele>-4.0</ele><time>2026-04-25T10:39:31Z</time></trkpt><trkpt lat="44.58765458274622" lon="12.031755230589113"><ele>-3.6666666666666665</ele><time>2026-04-25T10:39:32Z</time></trkpt><trkpt lat="44.58756702776656" lon="12.03200043096223"><ele>-3.333333333333333</ele><time>2026-04-25T10:39:33Z</time></trkpt><trkpt lat="44.58747843384612" lon="12.03224662405526"><ele>-3.0</ele><time>2026-04-25T10:39:34Z</time></trkpt><trkpt lat="44.5873887570921" lon="12.032491931505241"><ele>-2.6666666666666665</ele><time>2026-04-25T10:39:35Z</time></trkpt><trkpt lat="44.58729854175804" lon="12.032740204900783"><ele>-2.333333333333333</ele><time>2026-04-25T10:39:36Z</time></trkpt><trkpt lat="44.587208908374805" lon="12.032988409338424"><ele>-2.0</ele><time>2026-04-25T10:39:37Z</time></trkpt><trkpt lat="44.587118836923" lon="12.033236960871516"><ele>-2.0</ele><time>2026-04-25T10:39:38Z</time></trkpt><trkpt lat="44.58702821432056" lon="12.033485231737256"><ele>-2.0</ele><time>2026-04-25T10:39:39Z</time></trkpt><trkpt lat="44.586938075142044" lon="12.033733778052255"><ele>-2.0</ele><time>2026-04-25T10:39:40Z</time></trkpt><trkpt lat="44.58684902342175" lon="12.033982575067824"><ele>-2.333333333333333</ele><time>2026-04-25T10:39:41Z</time></trkpt><trkpt lat="44.5867602094232" lon="12.034233046124921"><ele>-2.6666666666666665</ele><time>2026-04-25T10:39:42Z</time></trkpt><trkpt lat="44.58666930442548" lon="12.034485210722556"><ele>-3.0</ele><time>2026-04-25T10:39:43Z</time></trkpt><trkpt lat="44.58657931824043" lon="12.034734177388946"><ele>-2.6666666666666665</ele><time>2026-04-25T10:39:44Z</time></trkpt><trkpt lat="44.58648755785502" lon="12.03498484289185"><ele>-2.333333333333333</ele><time>2026-04-25T10:39:45Z</time></trkpt><trkpt lat="44.586395587256845" lon="12.035235418811542"><ele>-2.0</ele><time>2026-04-25T10:39:46Z</time></trkpt><trkpt lat="44.5863049659411" lon="12.035490700715007"><ele>-2.0</ele><time>2026-04-25T10:39:47Z</time></trkpt><trkpt lat="44.58621388008305" lon="12.035745777139983"><ele>-2.0</ele><time>2026-04-25T10:39:48Z</time></trkpt><trkpt lat="44.586121565873846" lon="12.036002266508543"><ele>-2.0</ele><time>2026-04-25T10:39:49Z</time></trkpt><trkpt lat="44.58603012737901" lon="12.03625912182872"><ele>-2.6666666666666665</ele><time>2026-04-25T10:39:50Z</time></trkpt><trkpt lat="44.58593707693409" lon="12.036516247334161"><ele>-3.333333333333333</ele><time>2026-04-25T10:39:51Z</time></trkpt><trkpt lat="44.585842904374864" lon="12.036771322899291"><ele>-4.0</ele><time>2026-04-25T10:39:52Z</time></trkpt><trkpt lat="44.585750939668934" lon="12.037028538128764"><ele>-4.0</ele><time>2026-04-25T10:39:53Z</time></trkpt><trkpt lat="44.58566003855952" lon="12.037286975163365"><ele>-4.0</ele><time>2026-04-25T10:39:54Z</time></trkpt><trkpt lat="44.58556524711774" lon="12.037542598302974"><ele>-4.0</ele><time>2026-04-25T10:39:55Z</time></trkpt><trkpt lat="44.58547091753246" lon="12.037798562884301"><ele>-4.0</ele><time>2026-04-25T10:39:56Z</time></trkpt><trkpt lat="44.58537883914811" lon="12.038057053215564"><ele>-4.0</ele><time>2026-04-25T10:39:57Z</time></trkpt><trkpt lat="44.58528640553419" lon="12.03831659806347"><ele>-4.0</ele><time>2026-04-25T10:39:58Z</time></trkpt><trkpt lat="44.58519234431583" lon="12.038576244862563"><ele>-4.0</ele><time>2026-04-25T10:39:59Z</time></trkpt><trkpt lat="44.585098518190485" lon="12.038834009024779"><ele>-4.0</ele><time>2026-04-25T10:40:00Z</time></trkpt><trkpt lat="44.585005960131966" lon="12.039091501073562"><ele>-4.0</ele><time>2026-04-25T10:40:01Z</time></trkpt><trkpt lat="44.584911896660266" lon="12.039350197491821"><ele>-3.333333333333333</ele><time>2026-04-25T10:40:02Z</time></trkpt><trkpt lat="44.58481554392171" lon="12.039607627489568"><ele>-2.6666666666666665</ele><time>2026-04-25T10:40:03Z</time></trkpt><trkpt lat="44.584719276576514" lon="12.03986060303838"><ele>-2.0</ele><time>2026-04-25T10:40:04Z</time></trkpt><trkpt lat="44.58462045701894" lon="12.040111812208423"><ele>-2.0</ele><time>2026-04-25T10:40:05Z</time></trkpt><trkpt lat="44.584517995892554" lon="12.040363727722514"><ele>-2.0</ele><time>2026-04-25T10:40:06Z</time></trkpt><trkpt lat="44.58441229843048" lon="12.040615009494887"><ele>-2.0</ele><time>2026-04-25T10:40:07Z</time></trkpt><trkpt lat="44.58430591088418" lon="12.040869513213456"><ele>-2.6666666666666665</ele><time>2026-04-25T10:40:08Z</time></trkpt><trkpt lat="44.584201570211405" lon="12.04112594263268"><ele>-3.333333333333333</ele><time>2026-04-25T10:40:09Z</time></trkpt><trkpt lat="44.584098479599945" lon="12.041380566309995"><ele>-4.0</ele><time>2026-04-25T10:40:10Z</time></trkpt><trkpt lat="44.58399364600922" lon="12.041634818955089"><ele>-4.0</ele><time>2026-04-25T10:40:11Z</time></trkpt><trkpt lat="44.58388861847982" lon="12.041886260564628"><ele>-4.0</ele><time>2026-04-25T10:40:12Z</time></trkpt><trkpt lat="44.583785136640735" lon="12.042136442860594"><ele>-4.0</ele><time>2026-04-25T10:40:13Z</time></trkpt><trkpt lat="44.58368267965153" lon="12.042384100214113"><ele>-4.666666666666666</ele><time>2026-04-25T10:40:14Z</time></trkpt><trkpt lat="44.58358136132762" lon="12.042632134191383"><ele>-5.333333333333333</ele><time>2026-04-25T10:40:15Z</time></trkpt><trkpt lat="44.58348129797239" lon="12.042878127713836"><ele>-6.0</ele><time>2026-04-25T10:40:16Z</time></trkpt><trkpt lat="44.58338317286366" lon="12.043116584524842"><ele>-5.666666666666667</ele><time>2026-04-25T10:40:17Z</time></trkpt><trkpt lat="44.5832866947827" lon="12.043340239849114"><ele>-5.333333333333334</ele><time>2026-04-25T10:40:18Z</time></trkpt><trkpt lat="44.583189572190925" lon="12.043575118890656"><ele>-5.0</ele><time>2026-04-25T10:40:19Z</time></trkpt><trkpt lat="44.58309231834524" lon="12.043807663196938"><ele>-5.0</ele><time>2026-04-25T10:40:20Z</time></trkpt><trkpt lat="44.58299648529349" lon="12.04404257556522"><ele>-5.0</ele><time>2026-04-25T10:40:21Z</time></trkpt><trkpt lat="44.5829027488118" lon="12.04427907391725"><ele>-5.0</ele><time>2026-04-25T10:40:22Z</time></trkpt><trkpt lat="44.58281053816201" lon="12.044511897507741"><ele>-4.666666666666667</ele><time>2026-04-25T10:40:23Z</time></trkpt><trkpt lat="44.58272030147316" lon="12.044738754318645"><ele>-4.333333333333333</ele><time>2026-04-25T10:40:24Z</time></trkpt><trkpt lat="44.582626076126026" lon="12.04496598023026"><ele>-4.0</ele><time>2026-04-25T10:40:25Z</time></trkpt><trkpt lat="44.58253119059203" lon="12.045195442860482"><ele>-4.0</ele><time>2026-04-25T10:40:26Z</time></trkpt><trkpt lat="44.58243478320379" lon="12.045426400084843"><ele>-4.0</ele><time>2026-04-25T10:40:27Z</time></trkpt><trkpt lat="44.582337182671715" lon="12.045658001507883"><ele>-4.0</ele><time>2026-04-25T10:40:28Z</time></trkpt><trkpt lat="44.58223777259203" lon="12.045893505479219"><ele>-4.0</ele><time>2026-04-25T10:40:29Z</time></trkpt><trkpt lat="44.58214045989887" lon="12.04612960852073"><ele>-4.0</ele><time>2026-04-25T10:40:30Z</time></trkpt><trkpt lat="44.58204220175177" lon="12.046368566439819"><ele>-4.0</ele><time>2026-04-25T10:40:31Z</time></trkpt><trkpt lat="44.58194419368283" lon="12.046608092156553"><ele>-3.333333333333333</ele><time>2026-04-25T10:40:32Z</time></trkpt><trkpt lat="44.581845361882735" lon="12.046845702199414"><ele>-2.6666666666666665</ele><time>2026-04-25T10:40:33Z</time></trkpt><trkpt lat="44.58174677801085" lon="12.04708339588869"><ele>-2.0</ele><time>2026-04-25T10:40:34Z</time></trkpt><trkpt lat="44.58164623703529" lon="12.047323811215776"><ele>-2.6666666666666665</ele><time>2026-04-25T10:40:35Z</time></trkpt><trkpt lat="44.581547473975995" lon="12.047565720598685"><ele>-3.333333333333333</ele><time>2026-04-25T10:40:36Z</time></trkpt><trkpt lat="44.58144913706569" lon="12.04781008877039"><ele>-4.0</ele><time>2026-04-25T10:40:37Z</time></trkpt><trkpt lat="44.58134984680339" lon="12.048053184589433"><ele>-4.0</ele><time>2026-04-25T10:40:38Z</time></trkpt><trkpt lat="44.58125153776163" lon="12.048298136191141"><ele>-4.0</ele><time>2026-04-25T10:40:39Z</time></trkpt><trkpt lat="44.581151953460704" lon="12.048545875033907"><ele>-4.0</ele><time>2026-04-25T10:40:40Z</time></trkpt><trkpt lat="44.58105102219451" lon="12.048795890057027"><ele>-4.333333333333333</ele><time>2026-04-25T10:40:41Z</time></trkpt><trkpt lat="44.580947373419754" lon="12.049050506290016"><ele>-4.666666666666667</ele><time>2026-04-25T10:40:42Z</time></trkpt><trkpt lat="44.58084309453759" lon="12.049302619650895"><ele>-5.0</ele><time>2026-04-25T10:40:43Z</time></trkpt><trkpt lat="44.58073851849039" lon="12.049553125690053"><ele>-5.0</ele><time>2026-04-25T10:40:44Z</time></trkpt><trkpt lat="44.58063351618133" lon="12.049806964481537"><ele>-5.0</ele><time>2026-04-25T10:40:45Z</time></trkpt><trkpt lat="44.58052783381158" lon="12.050063199371882"><ele>-5.0</ele><time>2026-04-25T10:40:46Z</time></trkpt><trkpt lat="44.58042350765493" lon="12.050318361082422"><ele>-4.666666666666667</ele><time>2026-04-25T10:40:47Z</time></trkpt><trkpt lat="44.5803202085301" lon="12.050572267252374"><ele>-4.333333333333333</ele><time>2026-04-25T10:40:48Z</time></trkpt><trkpt lat="44.58021788294825" lon="12.050825301497765"><ele>-4.0</ele><time>2026-04-25T10:40:49Z</time></trkpt><trkpt lat="44.580117589489326" lon="12.051074969823443"><ele>-3.6666666666666665</ele><time>2026-04-25T10:40:50Z</time></trkpt><trkpt lat="44.5800167167009" lon="12.051322618712149"><ele>-3.333333333333333</ele><time>2026-04-25T10:40:51Z</time></trkpt><trkpt lat="44.579919576255364" lon="12.051558296469395"><ele>-3.0</ele><time>2026-04-25T10:40:52Z</time></trkpt><trkpt lat="44.57982556251233" lon="12.051787201304487"><ele>-3.0</ele><time>2026-04-25T10:40:53Z</time></trkpt><trkpt lat="44.579735197201586" lon="12.0520050283239"><ele>-3.0</ele><time>2026-04-25T10:40:54Z</time></trkpt><trkpt lat="44.57964801945437" lon="12.052216246089353"><ele>-3.0</ele><time>2026-04-25T10:40:55Z</time></trkpt><trkpt lat="44.579561951069415" lon="12.052423532498326"><ele>-3.0</ele><time>2026-04-25T10:40:56Z</time></trkpt><trkpt lat="44.5794777918448" lon="12.0526292541286"><ele>-3.0</ele><time>2026-04-25T10:40:57Z</time></trkpt><trkpt lat="44.57939319217853" lon="12.052839507844705"><ele>-3.0</ele><time>2026-04-25T10:40:58Z</time></trkpt><trkpt lat="44.579307815270326" lon="12.05305189379204"><ele>-3.0</ele><time>2026-04-25T10:40:59Z</time></trkpt><trkpt lat="44.57922219666657" lon="12.053265829799242"><ele>-3.0</ele><time>2026-04-25T10:41:00Z</time></trkpt><trkpt lat="44.57913596477114" lon="12.053482979759467"><ele>-3.0</ele><time>2026-04-25T10:41:01Z</time></trkpt><trkpt lat="44.579047714096475" lon="12.053706906818407"><ele>-3.0</ele><time>2026-04-25T10:41:02Z</time></trkpt><trkpt lat="44.57895618025008" lon="12.053933548829086"><ele>-3.0</ele><time>2026-04-25T10:41:03Z</time></trkpt><trkpt lat="44.57885898859681" lon="12.054174001869535"><ele>-3.0</ele><time>2026-04-25T10:41:04Z</time></trkpt><trkpt lat="44.57876677385304" lon="12.054404653180992"><ele>-3.333333333333333</ele><time>2026-04-25T10:41:05Z</time></trkpt><trkpt lat="44.57867772785413" lon="12.05463586133904"><ele>-3.6666666666666665</ele><time>2026-04-25T10:41:06Z</time></trkpt><trkpt lat="44.57858330284126" lon="12.05487037650639"><ele>-4.0</ele><time>2026-04-25T10:41:07Z</time></trkpt><trkpt lat="44.578493514126734" lon="12.055098670394255"><ele>-4.0</ele><time>2026-04-25T10:41:08Z</time></trkpt><trkpt lat="44.57840175352592" lon="12.055329723532106"><ele>-4.0</ele><time>2026-04-25T10:41:09Z</time></trkpt><trkpt lat="44.578311157410404" lon="12.055563117717083"><ele>-4.0</ele><time>2026-04-25T10:41:10Z</time></trkpt><trkpt lat="44.578218832799806" lon="12.055797453030314"><ele>-4.333333333333333</ele><time>2026-04-25T10:41:11Z</time></trkpt><trkpt lat="44.578124660059125" lon="12.05603285032562"><ele>-4.666666666666667</ele><time>2026-04-25T10:41:12Z</time></trkpt><trkpt lat="44.57802962211966" lon="12.056270845151744"><ele>-5.0</ele><time>2026-04-25T10:41:13Z</time></trkpt><trkpt lat="44.57793990955554" lon="12.056499709637073"><ele>-4.333333333333334</ele><time>2026-04-25T10:41:14Z</time></trkpt><trkpt lat="44.577850085565245" lon="12.056725917641446"><ele>-3.666666666666667</ele><time>2026-04-25T10:41:15Z</time></trkpt><trkpt lat="44.577761594704285" lon="12.05694948585195"><ele>-3.0</ele><time>2026-04-25T10:41:16Z</time></trkpt><trkpt lat="44.57766926066887" lon="12.057179391582725"><ele>-3.0</ele><time>2026-04-25T10:41:17Z</time></trkpt><trkpt lat="44.57757860584826" lon="12.057417298505932"><ele>-3.0</ele><time>2026-04-25T10:41:18Z</time></trkpt><trkpt lat="44.5774851313072" lon="12.057655158535237"><ele>-3.0</ele><time>2026-04-25T10:41:19Z</time></trkpt><trkpt lat="44.577386941715915" lon="12.05789792652985"><ele>-3.0</ele><time>2026-04-25T10:41:20Z</time></trkpt><trkpt lat="44.57728851604421" lon="12.058147079543147"><ele>-3.0</ele><time>2026-04-25T10:41:21Z</time></trkpt><trkpt lat="44.577188650534445" lon="12.058400618313003"><ele>-3.0</ele><time>2026-04-25T10:41:22Z</time></trkpt><trkpt lat="44.5770888646751" lon="12.058655773434765"><ele>-3.333333333333333</ele><time>2026-04-25T10:41:23Z</time></trkpt><trkpt lat="44.576986927678" lon="12.05890913565893"><ele>-3.6666666666666665</ele><time>2026-04-25T10:41:24Z</time></trkpt><trkpt lat="44.57688564642849" lon="12.05916516827639"><ele>-4.0</ele><time>2026-04-25T10:41:25Z</time></trkpt><trkpt lat="44.5767831218253" lon="12.059417859852925"><ele>-4.0</ele><time>2026-04-25T10:41:26Z</time></trkpt><trkpt lat="44.57668036014752" lon="12.059673136377087"><ele>-4.0</ele><time>2026-04-25T10:41:27Z</time></trkpt><trkpt lat="44.57657916732771" lon="12.059929100057248"><ele>-4.0</ele><time>2026-04-25T10:41:28Z</time></trkpt><trkpt lat="44.57647559484549" lon="12.06018018582023"><ele>-4.0</ele><time>2026-04-25T10:41:29Z</time></trkpt><trkpt lat="44.576378697838244" lon="12.060422634643444"><ele>-4.0</ele><time>2026-04-25T10:41:30Z</time></trkpt><trkpt lat="44.576281855433635" lon="12.060684854705055"><ele>-4.0</ele><time>2026-04-25T10:41:31Z</time></trkpt><trkpt lat="44.57617868554996" lon="12.060938754928769"><ele>-4.0</ele><time>2026-04-25T10:41:32Z</time></trkpt><trkpt lat="44.5760756823963" lon="12.061187111175112"><ele>-4.0</ele><time>2026-04-25T10:41:33Z</time></trkpt><trkpt lat="44.57597689425835" lon="12.061433034279323"><ele>-4.0</ele><time>2026-04-25T10:41:34Z</time></trkpt><trkpt lat="44.575879636317396" lon="12.0616799365055"><ele>-3.6666666666666665</ele><time>2026-04-25T10:41:35Z</time></trkpt><trkpt lat="44.57578629549313" lon="12.06191624243753"><ele>-3.333333333333333</ele><time>2026-04-25T10:41:36Z</time></trkpt><trkpt lat="44.57569682121876" lon="12.062142742060386"><ele>-3.0</ele><time>2026-04-25T10:41:37Z</time></trkpt><trkpt lat="44.575606171000494" lon="12.062365834505945"><ele>-3.0</ele><time>2026-04-25T10:41:38Z</time></trkpt><trkpt lat="44.57551926371258" lon="12.062582628313354"><ele>-3.0</ele><time>2026-04-25T10:41:39Z</time></trkpt><trkpt lat="44.57543587378008" lon="12.062788977374375"><ele>-3.0</ele><time>2026-04-25T10:41:40Z</time></trkpt><trkpt lat="44.57535265805722" lon="12.062991008295132"><ele>-3.333333333333333</ele><time>2026-04-25T10:41:41Z</time></trkpt><trkpt lat="44.57526268133689" lon="12.06319291242177"><ele>-3.6666666666666665</ele><time>2026-04-25T10:41:42Z</time></trkpt><trkpt lat="44.57516313447035" lon="12.0633914626469"><ele>-4.0</ele><time>2026-04-25T10:41:43Z</time></trkpt><trkpt lat="44.575056380022524" lon="12.063589016501567"><ele>-4.333333333333333</ele><time>2026-04-25T10:41:44Z</time></trkpt><trkpt lat="44.57494445957818" lon="12.06378983059797"><ele>-4.666666666666667</ele><time>2026-04-25T10:41:45Z</time></trkpt><trkpt lat="44.57482968573523" lon="12.063992785221682"><ele>-5.0</ele><time>2026-04-25T10:41:46Z</time></trkpt><trkpt lat="44.57471157955766" lon="12.064197951518343"><ele>-4.333333333333334</ele><time>2026-04-25T10:41:47Z</time></trkpt><trkpt lat="44.57459099610784" lon="12.064406004764644"><ele>-3.666666666666667</ele><time>2026-04-25T10:41:48Z</time></trkpt><trkpt lat="44.574474212659936" lon="12.064609745083358"><ele>-3.0</ele><time>2026-04-25T10:41:49Z</time></trkpt><trkpt lat="44.574360484846224" lon="12.064806346797852"><ele>-3.0</ele><time>2026-04-25T10:41:50Z</time></trkpt><trkpt lat="44.57425233808501" lon="12.064993047974047"><ele>-3.0</ele><time>2026-04-25T10:41:51Z</time></trkpt><trkpt lat="44.5741482085325" lon="12.06517303141863"><ele>-3.0</ele><time>2026-04-25T10:41:52Z</time></trkpt><trkpt lat="44.57404850041788" lon="12.065345346856644"><ele>-3.0</ele><time>2026-04-25T10:41:53Z</time></trkpt><trkpt lat="44.57395958278843" lon="12.06550778358859"><ele>-3.0</ele><time>2026-04-25T10:41:54Z</time></trkpt><trkpt lat="44.57387553119892" lon="12.065672242162785"><ele>-3.0</ele><time>2026-04-25T10:41:55Z</time></trkpt><trkpt lat="44.5738005505762" lon="12.065853826509207"><ele>-3.0</ele><time>2026-04-25T10:41:56Z</time></trkpt><trkpt lat="44.5737419540639" lon="12.066048138936042"><ele>-3.0</ele><time>2026-04-25T10:41:57Z</time></trkpt><trkpt lat="44.5736947320348" lon="12.066255600789404"><ele>-3.0</ele><time>2026-04-25T10:41:58Z</time></trkpt><trkpt lat="44.57365099768233" lon="12.06646612285845"><ele>-3.0</ele><time>2026-04-25T10:41:59Z</time></trkpt><trkpt lat="44.57360768454111" lon="12.066683064189128"><ele>-2.6666666666666665</ele><time>2026-04-25T10:42:00Z</time></trkpt><trkpt lat="44.57356204503341" lon="12.066907943233053"><ele>-2.333333333333333</ele><time>2026-04-25T10:42:01Z</time></trkpt><trkpt lat="44.57351787417517" lon="12.067140487882046"><ele>-2.0</ele><time>2026-04-25T10:42:02Z</time></trkpt><trkpt lat="44.57346839501519" lon="12.067377208247231"><ele>-2.333333333333333</ele><time>2026-04-25T10:42:03Z</time></trkpt><trkpt lat="44.57341704667725" lon="12.067617567936548"><ele>-2.6666666666666665</ele><time>2026-04-25T10:42:04Z</time></trkpt><trkpt lat="44.573366300909505" lon="12.067858418059616"><ele>-3.0</ele><time>2026-04-25T10:42:05Z</time></trkpt><trkpt lat="44.57331440550571" lon="12.06810375159717"><ele>-3.0</ele><time>2026-04-25T10:42:06Z</time></trkpt><trkpt lat="44.573261691266275" lon="12.06835216493144"><ele>-3.0</ele><time>2026-04-25T10:42:07Z</time></trkpt><trkpt lat="44.573210510368185" lon="12.06860528442113"><ele>-3.0</ele><time>2026-04-25T10:42:08Z</time></trkpt><trkpt lat="44.57315907598655" lon="12.068858926881044"><ele>-3.0</ele><time>2026-04-25T10:42:09Z</time></trkpt><trkpt lat="44.57310374486328" lon="12.069113102139848"><ele>-3.0</ele><time>2026-04-25T10:42:10Z</time></trkpt><trkpt lat="44.57304696639879" lon="12.069371984380084"><ele>-3.0</ele><time>2026-04-25T10:42:11Z</time></trkpt><trkpt lat="44.57299193163076" lon="12.069631921527375"><ele>-3.0</ele><time>2026-04-25T10:42:12Z</time></trkpt><trkpt lat="44.572938667018015" lon="12.069891963491107"><ele>-3.0</ele><time>2026-04-25T10:42:13Z</time></trkpt><trkpt lat="44.57288558131944" lon="12.070155328091973"><ele>-3.0</ele><time>2026-04-25T10:42:14Z</time></trkpt><trkpt lat="44.572830738480825" lon="12.07041804822005"><ele>-3.0</ele><time>2026-04-25T10:42:15Z</time></trkpt><trkpt lat="44.57277357432115" lon="12.070681453119851"><ele>-3.0</ele><time>2026-04-25T10:42:16Z</time></trkpt><trkpt lat="44.57271542796648" lon="12.07094622425719"><ele>-3.0</ele><time>2026-04-25T10:42:17Z</time></trkpt><trkpt lat="44.572658328812196" lon="12.071210626781083"><ele>-3.0</ele><time>2026-04-25T10:42:18Z</time></trkpt><trkpt lat="44.57260384247174" lon="12.0714776168124"><ele>-3.0</ele><time>2026-04-25T10:42:19Z</time></trkpt><trkpt lat="44.57255017549203" lon="12.071743137940535"><ele>-3.0</ele><time>2026-04-25T10:42:20Z</time></trkpt><trkpt lat="44.57249473440379" lon="12.072009807797555"><ele>-3.0</ele><time>2026-04-25T10:42:21Z</time></trkpt><trkpt lat="44.57243823793927" lon="12.072276733207259"><ele>-3.0</ele><time>2026-04-25T10:42:22Z</time></trkpt><trkpt lat="44.57238057861315" lon="12.072543143862868"><ele>-3.0</ele><time>2026-04-25T10:42:23Z</time></trkpt><trkpt lat="44.5723242451766" lon="12.072810765352811"><ele>-3.0</ele><time>2026-04-25T10:42:24Z</time></trkpt><trkpt lat="44.57227002526272" lon="12.073080239031217"><ele>-3.0</ele><time>2026-04-25T10:42:25Z</time></trkpt><trkpt lat="44.5722089424985" lon="12.07333354331232"><ele>-3.0</ele><time>2026-04-25T10:42:26Z</time></trkpt><trkpt lat="44.572159504205814" lon="12.073608439070405"><ele>-3.0</ele><time>2026-04-25T10:42:27Z</time></trkpt><trkpt lat="44.57210308260288" lon="12.073872596436628"><ele>-3.0</ele><time>2026-04-25T10:42:28Z</time></trkpt><trkpt lat="44.572048409067484" lon="12.074131427357234"><ele>-3.0</ele><time>2026-04-25T10:42:29Z</time></trkpt><trkpt lat="44.571994794394705" lon="12.074388993608075"><ele>-3.0</ele><time>2026-04-25T10:42:30Z</time></trkpt><trkpt lat="44.571942713608" lon="12.074636224271474"><ele>-3.0</ele><time>2026-04-25T10:42:31Z</time></trkpt><trkpt lat="44.57189170307387" lon="12.074885771920327"><ele>-3.0</ele><time>2026-04-25T10:42:32Z</time></trkpt><trkpt lat="44.5718409580495" lon="12.075122513310351"><ele>-3.0</ele><time>2026-04-25T10:42:33Z</time></trkpt><trkpt lat="44.57179091591906" lon="12.075357661110619"><ele>-3.0</ele><time>2026-04-25T10:42:34Z</time></trkpt><trkpt lat="44.57174270843312" lon="12.075590640481211"><ele>-3.0</ele><time>2026-04-25T10:42:35Z</time></trkpt><trkpt lat="44.5716954067523" lon="12.075819551709328"><ele>-2.6666666666666665</ele><time>2026-04-25T10:42:36Z</time></trkpt><trkpt lat="44.57164922206847" lon="12.076043792344555"><ele>-2.333333333333333</ele><time>2026-04-25T10:42:37Z</time></trkpt><trkpt lat="44.57160304050862" lon="12.076249358851795"><ele>-2.0</ele><time>2026-04-25T10:42:38Z</time></trkpt><trkpt lat="44.571566304910576" lon="12.076432098076856"><ele>-2.25</ele><time>2026-04-25T10:42:39Z</time></trkpt><trkpt lat="44.57153191942653" lon="12.076605012575826"><ele>-2.5</ele><time>2026-04-25T10:42:40Z</time></trkpt><trkpt lat="44.57149899114041" lon="12.07676163556874"><ele>-2.75</ele><time>2026-04-25T10:42:41Z</time></trkpt><trkpt lat="44.571466333098854" lon="12.07691045057731"><ele>-3.0</ele><time>2026-04-25T10:42:42Z</time></trkpt><trkpt lat="44.571436923815256" lon="12.077049901048143"><ele>-3.0</ele><time>2026-04-25T10:42:43Z</time></trkpt><trkpt lat="44.571411049237156" lon="12.077175052012786"><ele>-3.0</ele><time>2026-04-25T10:42:44Z</time></trkpt><trkpt lat="44.571384880690935" lon="12.077299170879328"><ele>-3.0</ele><time>2026-04-25T10:42:45Z</time></trkpt><trkpt lat="44.57135934372798" lon="12.077411181673503"><ele>-3.0</ele><time>2026-04-25T10:42:46Z</time></trkpt><trkpt lat="44.57133813232595" lon="12.07750884405776"><ele>-3.0</ele><time>2026-04-25T10:42:47Z</time></trkpt><trkpt lat="44.57131943902121" lon="12.07759568029487"><ele>-3.0</ele><time>2026-04-25T10:42:48Z</time></trkpt><trkpt lat="44.57125555951762" lon="12.077746829791865"><ele>-2.8333333333333335</ele><time>2026-04-25T10:42:50Z</time></trkpt><trkpt lat="44.57119868474709" lon="12.077792698152804"><ele>-2.6666666666666665</ele><time>2026-04-25T10:42:51Z</time></trkpt><trkpt lat="44.571131409557104" lon="12.077802985390099"><ele>-2.5</ele><time>2026-04-25T10:42:52Z</time></trkpt><trkpt lat="44.57105366656348" lon="12.077772391535586"><ele>-2.333333333333333</ele><time>2026-04-25T10:42:53Z</time></trkpt><trkpt lat="44.57095201322169" lon="12.077730236165289"><ele>-2.1666666666666665</ele><time>2026-04-25T10:42:54Z</time></trkpt><trkpt lat="44.570859058434486" lon="12.077684640839752"><ele>-2.0</ele><time>2026-04-25T10:42:55Z</time></trkpt><trkpt lat="44.570752218865564" lon="12.0776273785545"><ele>-2.0</ele><time>2026-04-25T10:42:56Z</time></trkpt><trkpt lat="44.570645032011086" lon="12.077580482200784"><ele>-2.0</ele><time>2026-04-25T10:42:57Z</time></trkpt><trkpt lat="44.570525156154766" lon="12.077520296214498"><ele>-2.0</ele><time>2026-04-25T10:42:58Z</time></trkpt><trkpt lat="44.5704033885437" lon="12.077467500225964"><ele>-2.0</ele><time>2026-04-25T10:42:59Z</time></trkpt><trkpt lat="44.57028453138766" lon="12.077413763826083"><ele>-2.25</ele><time>2026-04-25T10:43:00Z</time></trkpt><trkpt lat="44.57016008243573" lon="12.077355229933781"><ele>-2.5</ele><time>2026-04-25T10:43:01Z</time></trkpt><trkpt lat="44.57002888524417" lon="12.077296692084042"><ele>-2.75</ele><time>2026-04-25T10:43:02Z</time></trkpt><trkpt lat="44.56989383283917" lon="12.07723606856955"><ele>-3.0</ele><time>2026-04-25T10:43:03Z</time></trkpt><trkpt lat="44.569755993178696" lon="12.07717125339577"><ele>-3.0</ele><time>2026-04-25T10:43:04Z</time></trkpt><trkpt lat="44.56961614499536" lon="12.077102737081592"><ele>-3.0</ele><time>2026-04-25T10:43:05Z</time></trkpt><trkpt lat="44.56948322513497" lon="12.077040166321222"><ele>-3.0</ele><time>2026-04-25T10:43:06Z</time></trkpt><trkpt lat="44.56935413021608" lon="12.07698200837323"><ele>-3.0</ele><time>2026-04-25T10:43:07Z</time></trkpt><trkpt lat="44.56921939801993" lon="12.076921302496498"><ele>-3.0</ele><time>2026-04-25T10:43:08Z</time></trkpt><trkpt lat="44.56908470904588" lon="12.076860374257954"><ele>-3.0</ele><time>2026-04-25T10:43:09Z</time></trkpt><trkpt lat="44.56895003940494" lon="12.076798668005477"><ele>-3.0</ele><time>2026-04-25T10:43:10Z</time></trkpt><trkpt lat="44.56881456936319" lon="12.076734714799013"><ele>-3.0</ele><time>2026-04-25T10:43:11Z</time></trkpt><trkpt lat="44.56868788394409" lon="12.076676568472458"><ele>-2.75</ele><time>2026-04-25T10:43:12Z</time></trkpt><trkpt lat="44.56856692313988" lon="12.076620330070025"><ele>-2.5</ele><time>2026-04-25T10:43:13Z</time></trkpt><trkpt lat="44.56845027815437" lon="12.076566112165587"><ele>-2.25</ele><time>2026-04-25T10:43:14Z</time></trkpt><trkpt lat="44.568333806311955" lon="12.076511008749188"><ele>-2.0</ele><time>2026-04-25T10:43:15Z</time></trkpt><trkpt lat="44.56821706727777" lon="12.076458440383277"><ele>-2.0</ele><time>2026-04-25T10:43:16Z</time></trkpt><trkpt lat="44.56809869741609" lon="12.076406657830189"><ele>-2.0</ele><time>2026-04-25T10:43:17Z</time></trkpt><trkpt lat="44.5679778189043" lon="12.076353159038728"><ele>-2.0</ele><time>2026-04-25T10:43:18Z</time></trkpt><trkpt lat="44.567854667155146" lon="12.076298803248134"><ele>-2.0</ele><time>2026-04-25T10:43:19Z</time></trkpt><trkpt lat="44.56773512399142" lon="12.07624027179101"><ele>-2.25</ele><time>2026-04-25T10:43:20Z</time></trkpt><trkpt lat="44.567611324897605" lon="12.07618697206701"><ele>-2.5</ele><time>2026-04-25T10:43:21Z</time></trkpt><trkpt lat="44.567491015817616" lon="12.076131256541085"><ele>-2.75</ele><time>2026-04-25T10:43:22Z</time></trkpt><trkpt lat="44.567374696393074" lon="12.076078243494697"><ele>-3.0</ele><time>2026-04-25T10:43:23Z</time></trkpt><trkpt lat="44.567263726243425" lon="12.076028562972436"><ele>-3.0</ele><time>2026-04-25T10:43:24Z</time></trkpt><trkpt lat="44.567155154603725" lon="12.075980065802467"><ele>-3.0</ele><time>2026-04-25T10:43:25Z</time></trkpt><trkpt lat="44.56704467875237" lon="12.075929286081356"><ele>-3.0</ele><time>2026-04-25T10:43:26Z</time></trkpt><trkpt lat="44.566932691398605" lon="12.075875355892874"><ele>-3.0</ele><time>2026-04-25T10:43:27Z</time></trkpt><trkpt lat="44.566823153603664" lon="12.075824305953446"><ele>-2.6</ele><time>2026-04-25T10:43:28Z</time></trkpt><trkpt lat="44.566717572899066" lon="12.075779187409506"><ele>-2.1999999999999997</ele><time>2026-04-25T10:43:29Z</time></trkpt><trkpt lat="44.56662024317855" lon="12.07571227586831"><ele>-1.8</ele><time>2026-04-25T10:43:30Z</time></trkpt><trkpt lat="44.56652341014483" lon="12.075668961387619"><ele>-1.4</ele><time>2026-04-25T10:43:31Z</time></trkpt><trkpt lat="44.56643537996747" lon="12.075629387777802"><ele>-1.0</ele><time>2026-04-25T10:43:32Z</time></trkpt><trkpt lat="44.56634845979561" lon="12.075612959859715"><ele>-0.9999999999999999</ele><time>2026-04-25T10:43:33Z</time></trkpt><trkpt lat="44.566275612405825" lon="12.075580426120652"><ele>-1.0</ele><time>2026-04-25T10:43:34Z</time></trkpt><trkpt lat="44.56621115364783" lon="12.075554724298675"><ele>-1.0</ele><time>2026-04-25T10:43:35Z</time></trkpt><trkpt lat="44.56615075126481" lon="12.075529588870017"><ele>-1.0</ele><time>2026-04-25T10:43:36Z</time></trkpt><trkpt lat="44.5660569716973" lon="12.07549257684781"><ele>-0.9999999999999999</ele><time>2026-04-25T10:43:38Z</time></trkpt><trkpt lat="44.5659908283581" lon="12.075445923181235"><ele>-1.0</ele><time>2026-04-25T10:43:41Z</time></trkpt><trkpt lat="44.56591219180188" lon="12.07564926651682"><ele>-0.9999999999999999</ele><time>2026-04-25T10:43:44Z</time></trkpt><trkpt lat="44.56589821033231" lon="12.075752048359789"><ele>-1.0</ele><time>2026-04-25T10:43:45Z</time></trkpt><trkpt lat="44.56588815455597" lon="12.075866306209262"><ele>-1.0</ele><time>2026-04-25T10:43:46Z</time></trkpt><trkpt lat="44.56587809846027" lon="12.075980982107776"><ele>-1.0</ele><time>2026-04-25T10:43:47Z</time></trkpt><trkpt lat="44.56586606098422" lon="12.07610204996684"><ele>-0.9999999999999999</ele><time>2026-04-25T10:43:48Z</time></trkpt><trkpt lat="44.565846253153914" lon="12.076233844602083"><ele>-1.0</ele><time>2026-04-25T10:43:49Z</time></trkpt><trkpt lat="44.565824493311254" lon="12.076379434417555"><ele>-1.0</ele><time>2026-04-25T10:43:50Z</time></trkpt><trkpt lat="44.56580131051343" lon="12.076536619815897"><ele>-1.0</ele><time>2026-04-25T10:43:51Z</time></trkpt><trkpt lat="44.565779338146626" lon="12.076693866157976"><ele>-1.0</ele><time>2026-04-25T10:43:52Z</time></trkpt><trkpt lat="44.56575658085455" lon="12.076851836280845"><ele>-1.0</ele><time>2026-04-25T10:43:53Z</time></trkpt><trkpt lat="44.56573749239428" lon="12.077002891537287"><ele>-1.0</ele><time>2026-04-25T10:43:54Z</time></trkpt><trkpt lat="44.56571763888174" lon="12.077152156233439"><ele>-1.0</ele><time>2026-04-25T10:43:55Z</time></trkpt><trkpt lat="44.565697280058366" lon="12.07730699801285"><ele>-1.0</ele><time>2026-04-25T10:43:56Z</time></trkpt><trkpt lat="44.56567358115726" lon="12.077465668049395"><ele>-1.0</ele><time>2026-04-25T10:43:57Z</time></trkpt><trkpt lat="44.56564919080212" lon="12.077623111122728"><ele>-1.0</ele><time>2026-04-25T10:43:58Z</time></trkpt><trkpt lat="44.565625508338876" lon="12.077772391066663"><ele>-1.0</ele><time>2026-04-25T10:43:59Z</time></trkpt><trkpt lat="44.56560066873936" lon="12.077923368917334"><ele>-1.0</ele><time>2026-04-25T10:44:00Z</time></trkpt><trkpt lat="44.56557352025192" lon="12.078080298096648"><ele>-1.0</ele><time>2026-04-25T10:44:01Z</time></trkpt><trkpt lat="44.56554165985417" lon="12.078242906320066"><ele>-0.75</ele><time>2026-04-25T10:44:02Z</time></trkpt><trkpt lat="44.56550636003675" lon="12.078410461735736"><ele>-0.5</ele><time>2026-04-25T10:44:03Z</time></trkpt><trkpt lat="44.56546637136622" lon="12.07858079473169"><ele>-0.25</ele><time>2026-04-25T10:44:04Z</time></trkpt><trkpt lat="44.5654305442872" lon="12.07873207947094"><ele>0.0</ele><time>2026-04-25T10:44:05Z</time></trkpt><trkpt lat="44.56539547262752" lon="12.078869755844467"><ele>0.0</ele><time>2026-04-25T10:44:06Z</time></trkpt><trkpt lat="44.56536188669538" lon="12.079005322440494"><ele>0.0</ele><time>2026-04-25T10:44:07Z</time></trkpt><trkpt lat="44.56532515490545" lon="12.07915161858865"><ele>0.0</ele><time>2026-04-25T10:44:08Z</time></trkpt><trkpt lat="44.56528709746761" lon="12.079307076448417"><ele>0.0</ele><time>2026-04-25T10:44:09Z</time></trkpt><trkpt lat="44.56524838645205" lon="12.0794746647465"><ele>0.0</ele><time>2026-04-25T10:44:10Z</time></trkpt><trkpt lat="44.5652064417931" lon="12.07965068846297"><ele>0.0</ele><time>2026-04-25T10:44:11Z</time></trkpt><trkpt lat="44.565161120444685" lon="12.079835857436237"><ele>0.0</ele><time>2026-04-25T10:44:12Z</time></trkpt><trkpt lat="44.56511244973663" lon="12.080033037077348"><ele>0.0</ele><time>2026-04-25T10:44:13Z</time></trkpt><trkpt lat="44.565061834556786" lon="12.08023817259378"><ele>0.0</ele><time>2026-04-25T10:44:14Z</time></trkpt><trkpt lat="44.56501314315478" lon="12.080438244655385"><ele>0.0</ele><time>2026-04-25T10:44:15Z</time></trkpt><trkpt lat="44.56496454879762" lon="12.080643614691091"><ele>0.0</ele><time>2026-04-25T10:44:16Z</time></trkpt><trkpt lat="44.56491654745367" lon="12.080853532528428"><ele>-0.3333333333333333</ele><time>2026-04-25T10:44:17Z</time></trkpt><trkpt lat="44.564865194358696" lon="12.081067838487693"><ele>-0.6666666666666666</ele><time>2026-04-25T10:44:18Z</time></trkpt><trkpt lat="44.56481259263933" lon="12.081286053586792"><ele>-1.0</ele><time>2026-04-25T10:44:19Z</time></trkpt><trkpt lat="44.564760516085244" lon="12.081492587750725"><ele>-0.75</ele><time>2026-04-25T10:44:20Z</time></trkpt><trkpt lat="44.56470955659124" lon="12.08168965396517"><ele>-0.5</ele><time>2026-04-25T10:44:21Z</time></trkpt><trkpt lat="44.56466004558543" lon="12.081883731998078"><ele>-0.25</ele><time>2026-04-25T10:44:22Z</time></trkpt><trkpt lat="44.56461278460884" lon="12.082080348297524"><ele>0.0</ele><time>2026-04-25T10:44:23Z</time></trkpt><trkpt lat="44.564566149058656" lon="12.082278572438389"><ele>-0.75</ele><time>2026-04-25T10:44:24Z</time></trkpt><trkpt lat="44.56452115322577" lon="12.082469647408635"><ele>-1.5</ele><time>2026-04-25T10:44:25Z</time></trkpt><trkpt lat="44.56447896704602" lon="12.082641147264091"><ele>-2.25</ele><time>2026-04-25T10:44:26Z</time></trkpt><trkpt lat="44.56443860085" lon="12.082803405997112"><ele>-3.0</ele><time>2026-04-25T10:44:27Z</time></trkpt><trkpt lat="44.56440036066146" lon="12.082960089423658"><ele>-3.0</ele><time>2026-04-25T10:44:28Z</time></trkpt><trkpt lat="44.564370128290975" lon="12.083108008951381"><ele>-3.0</ele><time>2026-04-25T10:44:29Z</time></trkpt><trkpt lat="44.56435604301058" lon="12.083253031056534"><ele>-3.0</ele><time>2026-04-25T10:44:30Z</time></trkpt><trkpt lat="44.564366290048284" lon="12.083395819774417"><ele>-3.0</ele><time>2026-04-25T10:44:31Z</time></trkpt><trkpt lat="44.564403473930874" lon="12.08353102561828"><ele>-3.0</ele><time>2026-04-25T10:44:32Z</time></trkpt><trkpt lat="44.564465155268536" lon="12.083649112228164"><ele>-3.0</ele><time>2026-04-25T10:44:33Z</time></trkpt><trkpt lat="44.56454958784733" lon="12.083751200655959"><ele>-3.0</ele><time>2026-04-25T10:44:34Z</time></trkpt><trkpt lat="44.56464464521336" lon="12.083852272625116"><ele>-3.0</ele><time>2026-04-25T10:44:35Z</time></trkpt><trkpt lat="44.56473433604199" lon="12.08395343270512"><ele>-3.0</ele><time>2026-04-25T10:44:36Z</time></trkpt><trkpt lat="44.564830376156024" lon="12.084045232589771"><ele>-3.0</ele><time>2026-04-25T10:44:37Z</time></trkpt><trkpt lat="44.564909729371635" lon="12.08414243674794"><ele>-3.0</ele><time>2026-04-25T10:44:38Z</time></trkpt><trkpt lat="44.56498886739615" lon="12.08422749249928"><ele>-3.0</ele><time>2026-04-25T10:44:39Z</time></trkpt><trkpt lat="44.565063850800755" lon="12.0843084661341"><ele>-3.0</ele><time>2026-04-25T10:44:40Z</time></trkpt><trkpt lat="44.56513102280445" lon="12.084390064670917"><ele>-3.0</ele><time>2026-04-25T10:44:41Z</time></trkpt><trkpt lat="44.56518897334606" lon="12.084487380801376"><ele>-3.0</ele><time>2026-04-25T10:44:42Z</time></trkpt><trkpt lat="44.565234018998424" lon="12.084604715045451"><ele>-3.0</ele><time>2026-04-25T10:44:43Z</time></trkpt><trkpt lat="44.56526088952119" lon="12.084738969603606"><ele>-3.0</ele><time>2026-04-25T10:44:44Z</time></trkpt><trkpt lat="44.565265382720376" lon="12.084884407009024"><ele>-3.0</ele><time>2026-04-25T10:44:45Z</time></trkpt><trkpt lat="44.56524871037689" lon="12.08504128000623"><ele>-3.0</ele><time>2026-04-25T10:44:46Z</time></trkpt><trkpt lat="44.565212708767305" lon="12.08520399515611"><ele>-2.75</ele><time>2026-04-25T10:44:47Z</time></trkpt><trkpt lat="44.56516124736948" lon="12.085377250888257"><ele>-2.5</ele><time>2026-04-25T10:44:48Z</time></trkpt><trkpt lat="44.56510362132165" lon="12.085562131924423"><ele>-2.25</ele><time>2026-04-25T10:44:49Z</time></trkpt><trkpt lat="44.56504124238973" lon="12.085750621358153"><ele>-2.0</ele><time>2026-04-25T10:44:50Z</time></trkpt><trkpt lat="44.56499039511028" lon="12.085934142691416"><ele>-1.6666666666666665</ele><time>2026-04-25T10:44:51Z</time></trkpt><trkpt lat="44.564935991521864" lon="12.086126153767573"><ele>-1.3333333333333333</ele><time>2026-04-25T10:44:52Z</time></trkpt><trkpt lat="44.564876795430955" lon="12.086325821440852"><ele>-1.0</ele><time>2026-04-25T10:44:53Z</time></trkpt><trkpt lat="44.564818690557495" lon="12.086525743075473"><ele>-1.0</ele><time>2026-04-25T10:44:54Z</time></trkpt><trkpt lat="44.56475941123038" lon="12.086732361651233"><ele>-1.0</ele><time>2026-04-25T10:44:55Z</time></trkpt><trkpt lat="44.56469929044493" lon="12.086939187370117"><ele>-1.0</ele><time>2026-04-25T10:44:56Z</time></trkpt><trkpt lat="44.564633619299975" lon="12.087149433291975"><ele>-1.0</ele><time>2026-04-25T10:44:57Z</time></trkpt><trkpt lat="44.564568813788306" lon="12.087361413508207"><ele>-1.0</ele><time>2026-04-25T10:44:58Z</time></trkpt><trkpt lat="44.56450326777555" lon="12.0875718952073"><ele>-1.0</ele><time>2026-04-25T10:44:59Z</time></trkpt><trkpt lat="44.56443771008986" lon="12.087782800044048"><ele>-1.3333333333333333</ele><time>2026-04-25T10:45:00Z</time></trkpt><trkpt lat="44.56437211202686" lon="12.087996881638542"><ele>-1.6666666666666665</ele><time>2026-04-25T10:45:01Z</time></trkpt><trkpt lat="44.564308628019376" lon="12.088215013537104"><ele>-2.0</ele><time>2026-04-25T10:45:02Z</time></trkpt><trkpt lat="44.56423402594679" lon="12.088421544151979"><ele>-2.0</ele><time>2026-04-25T10:45:03Z</time></trkpt><trkpt lat="44.5641644894616" lon="12.088651087231739"><ele>-2.0</ele><time>2026-04-25T10:45:04Z</time></trkpt><trkpt lat="44.56409590011659" lon="12.08887750376287"><ele>-2.0</ele><time>2026-04-25T10:45:05Z</time></trkpt><trkpt lat="44.56402872890308" lon="12.089099238973416"><ele>-2.333333333333333</ele><time>2026-04-25T10:45:06Z</time></trkpt><trkpt lat="44.5639633926665" lon="12.08931491684345"><ele>-2.6666666666666665</ele><time>2026-04-25T10:45:07Z</time></trkpt><trkpt lat="44.56391303960264" lon="12.089536196434967"><ele>-3.0</ele><time>2026-04-25T10:45:08Z</time></trkpt><trkpt lat="44.563848261548905" lon="12.089748391843175"><ele>-3.0</ele><time>2026-04-25T10:45:09Z</time></trkpt><trkpt lat="44.56378469252669" lon="12.089951163541645"><ele>-3.0</ele><time>2026-04-25T10:45:10Z</time></trkpt><trkpt lat="44.563725393251694" lon="12.090148461458666"><ele>-3.0</ele><time>2026-04-25T10:45:11Z</time></trkpt><trkpt lat="44.56366288684223" lon="12.090336495045344"><ele>-3.0</ele><time>2026-04-25T10:45:12Z</time></trkpt><trkpt lat="44.563601579387765" lon="12.0905198276556"><ele>-3.0</ele><time>2026-04-25T10:45:13Z</time></trkpt><trkpt lat="44.563543080963704" lon="12.090706628167652"><ele>-3.0</ele><time>2026-04-25T10:45:14Z</time></trkpt><trkpt lat="44.56348536009997" lon="12.090896740885608"><ele>-3.0</ele><time>2026-04-25T10:45:15Z</time></trkpt><trkpt lat="44.563429017427595" lon="12.091092924618293"><ele>-3.0</ele><time>2026-04-25T10:45:16Z</time></trkpt><trkpt lat="44.56336866941236" lon="12.091292520215507"><ele>-3.0</ele><time>2026-04-25T10:45:17Z</time></trkpt><trkpt lat="44.563305375692835" lon="12.091492615150212"><ele>-3.0</ele><time>2026-04-25T10:45:18Z</time></trkpt><trkpt lat="44.56324334711887" lon="12.09169581085506"><ele>-2.6666666666666665</ele><time>2026-04-25T10:45:19Z</time></trkpt><trkpt lat="44.56318491755152" lon="12.09189328068407"><ele>-2.333333333333333</ele><time>2026-04-25T10:45:20Z</time></trkpt><trkpt lat="44.56312623675895" lon="12.092090868342199"><ele>-2.0</ele><time>2026-04-25T10:45:21Z</time></trkpt><trkpt lat="44.56306786077295" lon="12.092291165422699"><ele>-2.0</ele><time>2026-04-25T10:45:22Z</time></trkpt><trkpt lat="44.56300906864079" lon="12.092493890545466"><ele>-2.0</ele><time>2026-04-25T10:45:23Z</time></trkpt><trkpt lat="44.56294138290224" lon="12.092697394139654"><ele>-2.0</ele><time>2026-04-25T10:45:24Z</time></trkpt><trkpt lat="44.562874104518166" lon="12.0928914494271"><ele>-2.0</ele><time>2026-04-25T10:45:25Z</time></trkpt><trkpt lat="44.562816054766394" lon="12.093089744578599"><ele>-2.0</ele><time>2026-04-25T10:45:26Z</time></trkpt><trkpt lat="44.56275964071208" lon="12.093275268481783"><ele>-2.0</ele><time>2026-04-25T10:45:27.001Z</time></trkpt><trkpt lat="44.56270261936443" lon="12.093457632169246"><ele>-2.0</ele><time>2026-04-25T10:45:28.001Z</time></trkpt><trkpt lat="44.562652201935975" lon="12.093632017550158"><ele>-1.8</ele><time>2026-04-25T10:45:29.001Z</time></trkpt><trkpt lat="44.56260270522776" lon="12.093782067311333"><ele>-1.6</ele><time>2026-04-25T10:45:30.001Z</time></trkpt><trkpt lat="44.56255772311954" lon="12.093926077976661"><ele>-1.4000000000000001</ele><time>2026-04-25T10:45:31.001Z</time></trkpt><trkpt lat="44.562535313819716" lon="12.094062820320469"><ele>-1.2000000000000002</ele><time>2026-04-25T10:45:32.001Z</time></trkpt><trkpt lat="44.56252774848741" lon="12.094177187356333"><ele>-1.0</ele><time>2026-04-25T10:45:33.001Z</time></trkpt><trkpt lat="44.5625382826107" lon="12.094294742438763"><ele>-0.8</ele><time>2026-04-25T10:45:34.001Z</time></trkpt><trkpt lat="44.56256565778941" lon="12.09438665050407"><ele>-0.6000000000000001</ele><time>2026-04-25T10:45:35.001Z</time></trkpt><trkpt lat="44.56260184757521" lon="12.094472679779498"><ele>-0.4</ele><time>2026-04-25T10:45:36.001Z</time></trkpt><trkpt lat="44.562740319814544" lon="12.094542730827053"><ele>-0.2</ele><time>2026-04-25T10:45:38Z</time></trkpt><trkpt lat="44.562803229400714" lon="12.094630887143367"><ele>0.0</ele><time>2026-04-25T10:45:39Z</time></trkpt><trkpt lat="44.56288434478773" lon="12.094720941674447"><ele>-0.5</ele><time>2026-04-25T10:45:40Z</time></trkpt><trkpt lat="44.56296801493165" lon="12.09481073671476"><ele>-1.0</ele><time>2026-04-25T10:45:41Z</time></trkpt><trkpt lat="44.563069695812594" lon="12.094919860930588"><ele>-1.5</ele><time>2026-04-25T10:45:42Z</time></trkpt><trkpt lat="44.56319245927204" lon="12.095035320336251"><ele>-2.0</ele><time>2026-04-25T10:45:43Z</time></trkpt><trkpt lat="44.563298275793265" lon="12.09516970064088"><ele>-2.25</ele><time>2026-04-25T10:45:44Z</time></trkpt><trkpt lat="44.563412587423436" lon="12.095292507691559"><ele>-2.5</ele><time>2026-04-25T10:45:45Z</time></trkpt><trkpt lat="44.56352789500806" lon="12.095411551000469"><ele>-2.75</ele><time>2026-04-25T10:45:46Z</time></trkpt><trkpt lat="44.56364551310107" lon="12.095533588053575"><ele>-3.0</ele><time>2026-04-25T10:45:47Z</time></trkpt><trkpt lat="44.56376090525044" lon="12.095662878194887"><ele>-2.5</ele><time>2026-04-25T10:45:48Z</time></trkpt><trkpt lat="44.56387530113866" lon="12.09579169032975"><ele>-2.0</ele><time>2026-04-25T10:45:49Z</time></trkpt><trkpt lat="44.56399208268287" lon="12.095914484196635"><ele>-1.5</ele><time>2026-04-25T10:45:50Z</time></trkpt><trkpt lat="44.56410109695061" lon="12.09603023746298"><ele>-1.0</ele><time>2026-04-25T10:45:51Z</time></trkpt><trkpt lat="44.564204618194516" lon="12.096147118439387"><ele>-1.0</ele><time>2026-04-25T10:45:52Z</time></trkpt><trkpt lat="44.56430816970342" lon="12.09626186527923"><ele>-1.0</ele><time>2026-04-25T10:45:53Z</time></trkpt><trkpt lat="44.564410623948284" lon="12.096373259689926"><ele>-1.0</ele><time>2026-04-25T10:45:54Z</time></trkpt><trkpt lat="44.56451210131139" lon="12.096480400139916"><ele>-1.0</ele><time>2026-04-25T10:45:55Z</time></trkpt><trkpt lat="44.56460838273097" lon="12.096583431625119"><ele>-1.4</ele><time>2026-04-25T10:45:56Z</time></trkpt><trkpt lat="44.564701553195796" lon="12.096685126084541"><ele>-1.8</ele><time>2026-04-25T10:45:57Z</time></trkpt><trkpt lat="44.5647886829046" lon="12.096784614093773"><ele>-2.1999999999999997</ele><time>2026-04-25T10:45:58Z</time></trkpt><trkpt lat="44.56486985268742" lon="12.096878393609598"><ele>-2.6</ele><time>2026-04-25T10:45:59Z</time></trkpt><trkpt lat="44.564949634985105" lon="12.096970973321293"><ele>-3.0</ele><time>2026-04-25T10:46:00Z</time></trkpt><trkpt lat="44.56503266178651" lon="12.09706157761045"><ele>-3.0</ele><time>2026-04-25T10:46:01Z</time></trkpt><trkpt lat="44.565120991110355" lon="12.097145724107447"><ele>-3.0</ele><time>2026-04-25T10:46:02Z</time></trkpt><trkpt lat="44.56521217046741" lon="12.097226291016534"><ele>-3.0</ele><time>2026-04-25T10:46:03Z</time></trkpt><trkpt lat="44.56530754663168" lon="12.097308242622422"><ele>-3.0</ele><time>2026-04-25T10:46:04Z</time></trkpt><trkpt lat="44.565409418262696" lon="12.097391525617589"><ele>-3.0</ele><time>2026-04-25T10:46:05Z</time></trkpt><trkpt lat="44.565513733632784" lon="12.09748069747067"><ele>-3.0</ele><time>2026-04-25T10:46:06Z</time></trkpt><trkpt lat="44.565622292123734" lon="12.097568208428171"><ele>-3.0</ele><time>2026-04-25T10:46:07Z</time></trkpt><trkpt lat="44.56572687283366" lon="12.097652440262662"><ele>-3.0</ele><time>2026-04-25T10:46:08Z</time></trkpt><trkpt lat="44.565827276359784" lon="12.097734626939877"><ele>-3.0</ele><time>2026-04-25T10:46:09Z</time></trkpt><trkpt lat="44.56592971462922" lon="12.097818768028867"><ele>-3.0</ele><time>2026-04-25T10:46:10Z</time></trkpt><trkpt lat="44.56603542171676" lon="12.097901218165617"><ele>-3.0</ele><time>2026-04-25T10:46:11Z</time></trkpt><trkpt lat="44.56614155958152" lon="12.09798270501834"><ele>-3.0</ele><time>2026-04-25T10:46:12Z</time></trkpt><trkpt lat="44.56624529100121" lon="12.09806204213584"><ele>-3.0</ele><time>2026-04-25T10:46:13Z</time></trkpt><trkpt lat="44.56634319495151" lon="12.098136881993035"><ele>-3.5</ele><time>2026-04-25T10:46:14Z</time></trkpt><trkpt lat="44.56644352800771" lon="12.098213870225617"><ele>-4.0</ele><time>2026-04-25T10:46:15Z</time></trkpt><trkpt lat="44.56654721811018" lon="12.098291442457649"><ele>-4.5</ele><time>2026-04-25T10:46:16Z</time></trkpt><trkpt lat="44.56665342403227" lon="12.098376170191841"><ele>-5.0</ele><time>2026-04-25T10:46:17Z</time></trkpt><trkpt lat="44.566760858783795" lon="12.098470194702427"><ele>-5.0</ele><time>2026-04-25T10:46:18Z</time></trkpt><trkpt lat="44.56687040708781" lon="12.098566582832175"><ele>-5.0</ele><time>2026-04-25T10:46:19Z</time></trkpt><trkpt lat="44.56698845566666" lon="12.098662163704121"><ele>-5.0</ele><time>2026-04-25T10:46:20Z</time></trkpt><trkpt lat="44.567112031136" lon="12.09876170160913"><ele>-5.0</ele><time>2026-04-25T10:46:21Z</time></trkpt><trkpt lat="44.56724053273483" lon="12.09886569322193"><ele>-4.75</ele><time>2026-04-25T10:46:22Z</time></trkpt><trkpt lat="44.56735904247959" lon="12.098960188744526"><ele>-4.5</ele><time>2026-04-25T10:46:23Z</time></trkpt><trkpt lat="44.567474866826196" lon="12.099053214890782"><ele>-4.25</ele><time>2026-04-25T10:46:24Z</time></trkpt><trkpt lat="44.56759367320153" lon="12.09914854065518"><ele>-4.0</ele><time>2026-04-25T10:46:25Z</time></trkpt><trkpt lat="44.56771923776629" lon="12.099249701802211"><ele>-4.0</ele><time>2026-04-25T10:46:26Z</time></trkpt><trkpt lat="44.56784617446503" lon="12.099348128299797"><ele>-4.0</ele><time>2026-04-25T10:46:27Z</time></trkpt><trkpt lat="44.56797597483923" lon="12.099452370293182"><ele>-4.0</ele><time>2026-04-25T10:46:28Z</time></trkpt><trkpt lat="44.568107080976304" lon="12.09955876521622"><ele>-4.0</ele><time>2026-04-25T10:46:29Z</time></trkpt><trkpt lat="44.568242361399776" lon="12.099667300558039"><ele>-4.0</ele><time>2026-04-25T10:46:30Z</time></trkpt><trkpt lat="44.568377390327704" lon="12.099777694345327"><ele>-4.0</ele><time>2026-04-25T10:46:31Z</time></trkpt><trkpt lat="44.56851042342577" lon="12.0998883255316"><ele>-4.0</ele><time>2026-04-25T10:46:32Z</time></trkpt><trkpt lat="44.56864391206922" lon="12.09999821461453"><ele>-3.6666666666666665</ele><time>2026-04-25T10:46:33Z</time></trkpt><trkpt lat="44.5687767471492" lon="12.100107993993046"><ele>-3.333333333333333</ele><time>2026-04-25T10:46:34Z</time></trkpt><trkpt lat="44.568909993681295" lon="12.100217188387381"><ele>-3.0</ele><time>2026-04-25T10:46:35Z</time></trkpt><trkpt lat="44.56904554470451" lon="12.100326959830713"><ele>-3.0</ele><time>2026-04-25T10:46:36Z</time></trkpt><trkpt lat="44.56918090938992" lon="12.100435459607107"><ele>-3.0</ele><time>2026-04-25T10:46:37Z</time></trkpt><trkpt lat="44.569318487131405" lon="12.100546903592113"><ele>-3.0</ele><time>2026-04-25T10:46:38Z</time></trkpt><trkpt lat="44.569457197387045" lon="12.100661910309515"><ele>-3.0</ele><time>2026-04-25T10:46:39Z</time></trkpt><trkpt lat="44.56959223917888" lon="12.100773399424247"><ele>-3.0</ele><time>2026-04-25T10:46:40Z</time></trkpt><trkpt lat="44.5697300971025" lon="12.10088648330393"><ele>-3.0</ele><time>2026-04-25T10:46:41Z</time></trkpt><trkpt lat="44.5698651797623" lon="12.100999395856828"><ele>-3.0</ele><time>2026-04-25T10:46:42Z</time></trkpt><trkpt lat="44.569992506404425" lon="12.101106805721663"><ele>-3.0</ele><time>2026-04-25T10:46:43Z</time></trkpt><trkpt lat="44.57011450530352" lon="12.101208671591955"><ele>-3.0</ele><time>2026-04-25T10:46:44Z</time></trkpt><trkpt lat="44.570229475657584" lon="12.101303136867568"><ele>-3.0</ele><time>2026-04-25T10:46:45Z</time></trkpt><trkpt lat="44.57034303308619" lon="12.101395609065923"><ele>-2.75</ele><time>2026-04-25T10:46:46Z</time></trkpt><trkpt lat="44.570452992969" lon="12.101476636391494"><ele>-2.5</ele><time>2026-04-25T10:46:47Z</time></trkpt><trkpt lat="44.57056467831432" lon="12.10155023159912"><ele>-2.25</ele><time>2026-04-25T10:46:48Z</time></trkpt><trkpt lat="44.57067699256025" lon="12.101621829802513"><ele>-2.0</ele><time>2026-04-25T10:46:49Z</time></trkpt><trkpt lat="44.570796283790756" lon="12.101694415631387"><ele>-2.0</ele><time>2026-04-25T10:46:50Z</time></trkpt><trkpt lat="44.57092187625659" lon="12.101752014166602"><ele>-2.0</ele><time>2026-04-25T10:46:51Z</time></trkpt><trkpt lat="44.57104387870434" lon="12.101799295484474"><ele>-2.0</ele><time>2026-04-25T10:46:52Z</time></trkpt><trkpt lat="44.571159041716676" lon="12.101834808864847"><ele>-2.0</ele><time>2026-04-25T10:46:53Z</time></trkpt><trkpt lat="44.57126662888696" lon="12.101860699498722"><ele>-2.0</ele><time>2026-04-25T10:46:54Z</time></trkpt><trkpt lat="44.5713777091849" lon="12.101883395664075"><ele>-2.0</ele><time>2026-04-25T10:46:55Z</time></trkpt><trkpt lat="44.5714884584831" lon="12.101903384891141"><ele>-2.0</ele><time>2026-04-25T10:46:56Z</time></trkpt><trkpt lat="44.57160561834469" lon="12.10193232274182"><ele>-2.0</ele><time>2026-04-25T10:46:57Z</time></trkpt><trkpt lat="44.57173189347357" lon="12.101970870309144"><ele>-2.0</ele><time>2026-04-25T10:46:58Z</time></trkpt><trkpt lat="44.571868782224186" lon="12.102004968819685"><ele>-2.0</ele><time>2026-04-25T10:46:59Z</time></trkpt><trkpt lat="44.57201143022007" lon="12.102038709686864"><ele>-2.0</ele><time>2026-04-25T10:47:00Z</time></trkpt><trkpt lat="44.57215421891166" lon="12.102072932236037"><ele>-2.0</ele><time>2026-04-25T10:47:01Z</time></trkpt><trkpt lat="44.57229387591935" lon="12.102104852811134"><ele>-2.0</ele><time>2026-04-25T10:47:02Z</time></trkpt><trkpt lat="44.57242715895309" lon="12.102136728451761"><ele>-2.0</ele><time>2026-04-25T10:47:03Z</time></trkpt><trkpt lat="44.57255368120078" lon="12.102169747806805"><ele>-2.0</ele><time>2026-04-25T10:47:04Z</time></trkpt><trkpt lat="44.57267162722732" lon="12.102199549601643"><ele>-2.0</ele><time>2026-04-25T10:47:05Z</time></trkpt><trkpt lat="44.57278504387791" lon="12.102230910291183"><ele>-2.0</ele><time>2026-04-25T10:47:06Z</time></trkpt><trkpt lat="44.57289720200192" lon="12.102272870581286"><ele>-2.0</ele><time>2026-04-25T10:47:07Z</time></trkpt><trkpt lat="44.57301728908825" lon="12.102331263772635"><ele>-2.0</ele><time>2026-04-25T10:47:08Z</time></trkpt><trkpt lat="44.57314239902037" lon="12.102404183704733"><ele>-2.0</ele><time>2026-04-25T10:47:09Z</time></trkpt><trkpt lat="44.57327699046613" lon="12.102479481301705"><ele>-2.0</ele><time>2026-04-25T10:47:10Z</time></trkpt><trkpt lat="44.573423470278286" lon="12.102561919927975"><ele>-2.0</ele><time>2026-04-25T10:47:11Z</time></trkpt><trkpt lat="44.5735732010304" lon="12.102647914353758"><ele>-2.0</ele><time>2026-04-25T10:47:12Z</time></trkpt><trkpt lat="44.57372672010482" lon="12.102735687749492"><ele>-2.0</ele><time>2026-04-25T10:47:13Z</time></trkpt><trkpt lat="44.57388455843964" lon="12.102823099466548"><ele>-2.0</ele><time>2026-04-25T10:47:14Z</time></trkpt><trkpt lat="44.57403145731143" lon="12.102910423119464"><ele>-2.0</ele><time>2026-04-25T10:47:15Z</time></trkpt><trkpt lat="44.574182389170446" lon="12.102996692144716"><ele>-2.0</ele><time>2026-04-25T10:47:16Z</time></trkpt><trkpt lat="44.57433677765819" lon="12.1030804573031"><ele>-2.0</ele><time>2026-04-25T10:47:17Z</time></trkpt><trkpt lat="44.57449376660931" lon="12.1031625448495"><ele>-2.0</ele><time>2026-04-25T10:47:18Z</time></trkpt><trkpt lat="44.57465000265649" lon="12.10325154477618"><ele>-2.0</ele><time>2026-04-25T10:47:19Z</time></trkpt><trkpt lat="44.57480341145287" lon="12.103338277616928"><ele>-2.0</ele><time>2026-04-25T10:47:20Z</time></trkpt><trkpt lat="44.57495241865642" lon="12.103420935718425"><ele>-2.0</ele><time>2026-04-25T10:47:21Z</time></trkpt><trkpt lat="44.57509899080465" lon="12.10350226990147"><ele>-2.0</ele><time>2026-04-25T10:47:22Z</time></trkpt><trkpt lat="44.5752432818785" lon="12.103582534238864"><ele>-2.0</ele><time>2026-04-25T10:47:23Z</time></trkpt><trkpt lat="44.575387784536495" lon="12.103663849945217"><ele>-2.0</ele><time>2026-04-25T10:47:24Z</time></trkpt><trkpt lat="44.575528372280914" lon="12.103737734982268"><ele>-2.0</ele><time>2026-04-25T10:47:25Z</time></trkpt><trkpt lat="44.57566992436286" lon="12.103812997098359"><ele>-2.0</ele><time>2026-04-25T10:47:26Z</time></trkpt><trkpt lat="44.57581547536798" lon="12.103893707308151"><ele>-2.0</ele><time>2026-04-25T10:47:27Z</time></trkpt><trkpt lat="44.57595937878496" lon="12.103977693075668"><ele>-2.0</ele><time>2026-04-25T10:47:28Z</time></trkpt><trkpt lat="44.57610273988782" lon="12.104060627793599"><ele>-2.0</ele><time>2026-04-25T10:47:29Z</time></trkpt><trkpt lat="44.576249477322946" lon="12.104144476143373"><ele>-2.0</ele><time>2026-04-25T10:47:30Z</time></trkpt><trkpt lat="44.57639358313628" lon="12.104225653926623"><ele>-2.25</ele><time>2026-04-25T10:47:31Z</time></trkpt><trkpt lat="44.57653805252445" lon="12.104307699084695"><ele>-2.5</ele><time>2026-04-25T10:47:32Z</time></trkpt><trkpt lat="44.57668363248971" lon="12.10438622823369"><ele>-2.75</ele><time>2026-04-25T10:47:33Z</time></trkpt><trkpt lat="44.57680891528684" lon="12.10445991587139"><ele>-3.0</ele><time>2026-04-25T10:47:34Z</time></trkpt><trkpt lat="44.57692105448286" lon="12.104515885270764"><ele>-3.25</ele><time>2026-04-25T10:47:35Z</time></trkpt><trkpt lat="44.577037607232384" lon="12.104574496339817"><ele>-3.5</ele><time>2026-04-25T10:47:36Z</time></trkpt><trkpt lat="44.57715342098434" lon="12.104617961486106"><ele>-3.75</ele><time>2026-04-25T10:47:37Z</time></trkpt><trkpt lat="44.5772685527671" lon="12.104645994241379"><ele>-4.0</ele><time>2026-04-25T10:47:38Z</time></trkpt><trkpt lat="44.57738800703895" lon="12.104658217985065"><ele>-4.0</ele><time>2026-04-25T10:47:39Z</time></trkpt><trkpt lat="44.57750145307331" lon="12.104650552287314"><ele>-4.0</ele><time>2026-04-25T10:47:40Z</time></trkpt><trkpt lat="44.57760846037472" lon="12.104655372086384"><ele>-4.0</ele><time>2026-04-25T10:47:41Z</time></trkpt><trkpt lat="44.57771047492197" lon="12.104634459988844"><ele>-4.0</ele><time>2026-04-25T10:47:42Z</time></trkpt><trkpt lat="44.577814114274226" lon="12.104612695141011"><ele>-4.0</ele><time>2026-04-25T10:47:43Z</time></trkpt><trkpt lat="44.57791701512091" lon="12.1045895180661"><ele>-4.25</ele><time>2026-04-25T10:47:44Z</time></trkpt><trkpt lat="44.578026660761644" lon="12.104564821852874"><ele>-4.5</ele><time>2026-04-25T10:47:45Z</time></trkpt><trkpt lat="44.57814162900942" lon="12.104525447069106"><ele>-4.75</ele><time>2026-04-25T10:47:46Z</time></trkpt><trkpt lat="44.57825799075632" lon="12.104503080863084"><ele>-5.0</ele><time>2026-04-25T10:47:47Z</time></trkpt><trkpt lat="44.57837837919716" lon="12.104479514415308"><ele>-5.0</ele><time>2026-04-25T10:47:48Z</time></trkpt><trkpt lat="44.57849208812214" lon="12.104447779996569"><ele>-5.0</ele><time>2026-04-25T10:47:49Z</time></trkpt><trkpt lat="44.57860953937298" lon="12.10441841592484"><ele>-5.0</ele><time>2026-04-25T10:47:50Z</time></trkpt><trkpt lat="44.578728165593624" lon="12.104391343174605"><ele>-5.0</ele><time>2026-04-25T10:47:51Z</time></trkpt><trkpt lat="44.578844304406395" lon="12.104361355908688"><ele>-4.25</ele><time>2026-04-25T10:47:52Z</time></trkpt><trkpt lat="44.57895960888468" lon="12.10432725035429"><ele>-3.5</ele><time>2026-04-25T10:47:53Z</time></trkpt><trkpt lat="44.57907905891475" lon="12.104292022525119"><ele>-2.75</ele><time>2026-04-25T10:47:54Z</time></trkpt><trkpt lat="44.57919859687179" lon="12.10425311751248"><ele>-2.0</ele><time>2026-04-25T10:47:55Z</time></trkpt><trkpt lat="44.57931988027846" lon="12.104206849455927"><ele>-2.0</ele><time>2026-04-25T10:47:56Z</time></trkpt><trkpt lat="44.57944468260923" lon="12.104154757066627"><ele>-2.0</ele><time>2026-04-25T10:47:57Z</time></trkpt><trkpt lat="44.579574631551175" lon="12.104100552093985"><ele>-2.0</ele><time>2026-04-25T10:47:58Z</time></trkpt><trkpt lat="44.57970790262962" lon="12.104044381064755"><ele>-2.0</ele><time>2026-04-25T10:47:59Z</time></trkpt><trkpt lat="44.57984554811075" lon="12.10398704337773"><ele>-2.0</ele><time>2026-04-25T10:48:00Z</time></trkpt><trkpt lat="44.57997758299844" lon="12.103930687962434"><ele>-2.0</ele><time>2026-04-25T10:48:01Z</time></trkpt><trkpt lat="44.58011247165605" lon="12.103879445138807"><ele>-2.0</ele><time>2026-04-25T10:48:02Z</time></trkpt><trkpt lat="44.58024238233127" lon="12.103821070574584"><ele>-2.0</ele><time>2026-04-25T10:48:03Z</time></trkpt><trkpt lat="44.580375115803434" lon="12.103764422361783"><ele>-2.0</ele><time>2026-04-25T10:48:04Z</time></trkpt><trkpt lat="44.58050917569509" lon="12.103705843582624"><ele>-2.0</ele><time>2026-04-25T10:48:05Z</time></trkpt><trkpt lat="44.58064329772791" lon="12.103647819220757"><ele>-2.0</ele><time>2026-04-25T10:48:06Z</time></trkpt><trkpt lat="44.58077486271875" lon="12.103590327405943"><ele>-2.0</ele><time>2026-04-25T10:48:07Z</time></trkpt><trkpt lat="44.58090512570085" lon="12.103533929025765"><ele>-2.0</ele><time>2026-04-25T10:48:08Z</time></trkpt><trkpt lat="44.581034513257976" lon="12.103480002365474"><ele>-2.0</ele><time>2026-04-25T10:48:09Z</time></trkpt><trkpt lat="44.581165376692745" lon="12.103423028081043"><ele>-2.0</ele><time>2026-04-25T10:48:10Z</time></trkpt><trkpt lat="44.581297801653236" lon="12.103364219528919"><ele>-2.0</ele><time>2026-04-25T10:48:11Z</time></trkpt><trkpt lat="44.58143390360348" lon="12.103303700906892"><ele>-1.75</ele><time>2026-04-25T10:48:12Z</time></trkpt><trkpt lat="44.581576437250106" lon="12.103264535216022"><ele>-1.5</ele><time>2026-04-25T10:48:13Z</time></trkpt><trkpt lat="44.58171601629574" lon="12.103205041085367"><ele>-1.25</ele><time>2026-04-25T10:48:14Z</time></trkpt><trkpt lat="44.581858306101566" lon="12.103143481475245"><ele>-1.0</ele><time>2026-04-25T10:48:15Z</time></trkpt><trkpt lat="44.581997783436044" lon="12.103059905889754"><ele>-1.3333333333333333</ele><time>2026-04-25T10:48:16Z</time></trkpt><trkpt lat="44.582143167728546" lon="12.10299883564908"><ele>-1.6666666666666665</ele><time>2026-04-25T10:48:17Z</time></trkpt><trkpt lat="44.58228900616848" lon="12.102935618719847"><ele>-2.0</ele><time>2026-04-25T10:48:18Z</time></trkpt><trkpt lat="44.58243550281726" lon="12.102874828824001"><ele>-2.0</ele><time>2026-04-25T10:48:19Z</time></trkpt><trkpt lat="44.58258275656759" lon="12.102813863332612"><ele>-2.0</ele><time>2026-04-25T10:48:20Z</time></trkpt><trkpt lat="44.58272902894749" lon="12.102752538645742"><ele>-2.0</ele><time>2026-04-25T10:48:21Z</time></trkpt><trkpt lat="44.58287424872848" lon="12.102690441206306"><ele>-1.3333333333333333</ele><time>2026-04-25T10:48:22Z</time></trkpt><trkpt lat="44.583021289443764" lon="12.102629523115139"><ele>-0.6666666666666666</ele><time>2026-04-25T10:48:23Z</time></trkpt><trkpt lat="44.58317272041124" lon="12.102572664418567"><ele>0.0</ele><time>2026-04-25T10:48:24Z</time></trkpt><trkpt lat="44.58332515795179" lon="12.102517481074864"><ele>0.0</ele><time>2026-04-25T10:48:25Z</time></trkpt><trkpt lat="44.58348753173252" lon="12.102470700172802"><ele>0.0</ele><time>2026-04-25T10:48:26Z</time></trkpt><trkpt lat="44.58365417872968" lon="12.102431041911377"><ele>0.0</ele><time>2026-04-25T10:48:27Z</time></trkpt><trkpt lat="44.58378635414812" lon="12.102391926160465"><ele>0.0</ele><time>2026-04-25T10:48:28Z</time></trkpt><trkpt lat="44.58394005602874" lon="12.102371638141449"><ele>0.0</ele><time>2026-04-25T10:48:29Z</time></trkpt><trkpt lat="44.584099620974186" lon="12.102361545390645"><ele>0.0</ele><time>2026-04-25T10:48:30Z</time></trkpt><trkpt lat="44.58426446802774" lon="12.102362794700952"><ele>0.0</ele><time>2026-04-25T10:48:31Z</time></trkpt><trkpt lat="44.5844237888103" lon="12.102393897279711"><ele>0.0</ele><time>2026-04-25T10:48:32Z</time></trkpt><trkpt lat="44.584589166809096" lon="12.102392833011093"><ele>0.0</ele><time>2026-04-25T10:48:33Z</time></trkpt><trkpt lat="44.58475361148272" lon="12.10242680637569"><ele>-0.3333333333333333</ele><time>2026-04-25T10:48:34Z</time></trkpt><trkpt lat="44.584913559894126" lon="12.102466882112203"><ele>-0.6666666666666666</ele><time>2026-04-25T10:48:35Z</time></trkpt><trkpt lat="44.585075272542845" lon="12.102517389127751"><ele>-1.0</ele><time>2026-04-25T10:48:36Z</time></trkpt><trkpt lat="44.58523929811668" lon="12.10257681295337"><ele>-1.0</ele><time>2026-04-25T10:48:37Z</time></trkpt><trkpt lat="44.585401819992825" lon="12.10263602098484"><ele>-1.0</ele><time>2026-04-25T10:48:38Z</time></trkpt><trkpt lat="44.585568622251344" lon="12.10268829894756"><ele>-1.0</ele><time>2026-04-25T10:48:39Z</time></trkpt><trkpt lat="44.58573732533538" lon="12.102732131497573"><ele>-1.0</ele><time>2026-04-25T10:48:40Z</time></trkpt><trkpt lat="44.585907303421145" lon="12.102770438012454"><ele>-1.0</ele><time>2026-04-25T10:48:41Z</time></trkpt><trkpt lat="44.58607416163121" lon="12.102799806656195"><ele>-1.0</ele><time>2026-04-25T10:48:42Z</time></trkpt><trkpt lat="44.5862395883154" lon="12.102819599403043"><ele>-1.0</ele><time>2026-04-25T10:48:43Z</time></trkpt><trkpt lat="44.58640603999" lon="12.102825980115599"><ele>-1.0</ele><time>2026-04-25T10:48:44Z</time></trkpt><trkpt lat="44.58657274378088" lon="12.102824615524826"><ele>-1.0</ele><time>2026-04-25T10:48:45Z</time></trkpt><trkpt lat="44.586740442096485" lon="12.102816494575666"><ele>-1.0</ele><time>2026-04-25T10:48:46Z</time></trkpt><trkpt lat="44.58690818334513" lon="12.10280092372954"><ele>-1.0</ele><time>2026-04-25T10:48:47Z</time></trkpt><trkpt lat="44.58707633121362" lon="12.102775016774435"><ele>-1.0</ele><time>2026-04-25T10:48:48Z</time></trkpt><trkpt lat="44.58723808681222" lon="12.102732221447019"><ele>-1.6666666666666665</ele><time>2026-04-25T10:48:49Z</time></trkpt><trkpt lat="44.58740629407441" lon="12.102682282632493"><ele>-2.3333333333333335</ele><time>2026-04-25T10:48:50Z</time></trkpt><trkpt lat="44.587567758842376" lon="12.102617053759936"><ele>-3.0</ele><time>2026-04-25T10:48:51Z</time></trkpt><trkpt lat="44.58771913464068" lon="12.102520356067426"><ele>-3.0</ele><time>2026-04-25T10:48:52Z</time></trkpt><trkpt lat="44.58788079899905" lon="12.102447271822829"><ele>-3.0</ele><time>2026-04-25T10:48:53Z</time></trkpt><trkpt lat="44.58804101775416" lon="12.10235974332074"><ele>-3.0</ele><time>2026-04-25T10:48:54Z</time></trkpt><trkpt lat="44.58820205544659" lon="12.102256558365267"><ele>-3.0</ele><time>2026-04-25T10:48:55Z</time></trkpt><trkpt lat="44.588360432160044" lon="12.102168047210359"><ele>-3.0</ele><time>2026-04-25T10:48:56Z</time></trkpt><trkpt lat="44.58852304938965" lon="12.102087929631292"><ele>-3.0</ele><time>2026-04-25T10:48:57Z</time></trkpt><trkpt lat="44.58868108541776" lon="12.102000799557663"><ele>-2.3333333333333335</ele><time>2026-04-25T10:48:58Z</time></trkpt><trkpt lat="44.58884295502602" lon="12.101908888980622"><ele>-1.6666666666666665</ele><time>2026-04-25T10:48:59Z</time></trkpt><trkpt lat="44.58900441752854" lon="12.101815732813172"><ele>-1.0</ele><time>2026-04-25T10:49:00Z</time></trkpt><trkpt lat="44.58916388336964" lon="12.1017292246523"><ele>-1.0</ele><time>2026-04-25T10:49:01Z</time></trkpt><trkpt lat="44.58932388458221" lon="12.101634042321836"><ele>-1.0</ele><time>2026-04-25T10:49:02Z</time></trkpt><trkpt lat="44.589484678171594" lon="12.101543293716205"><ele>-1.0</ele><time>2026-04-25T10:49:03Z</time></trkpt><trkpt lat="44.5896489071894" lon="12.101453359571101"><ele>-1.6666666666666665</ele><time>2026-04-25T10:49:04Z</time></trkpt><trkpt lat="44.589811420538226" lon="12.101360017420298"><ele>-2.3333333333333335</ele><time>2026-04-25T10:49:05Z</time></trkpt><trkpt lat="44.58997494585299" lon="12.101272981863676"><ele>-3.0</ele><time>2026-04-25T10:49:06Z</time></trkpt><trkpt lat="44.5901406671392" lon="12.101180972461036"><ele>-3.0</ele><time>2026-04-25T10:49:07Z</time></trkpt><trkpt lat="44.59031309612706" lon="12.101129375440454"><ele>-3.0</ele><time>2026-04-25T10:49:08Z</time></trkpt><trkpt lat="44.590474220835624" lon="12.101044989665116"><ele>-3.0</ele><time>2026-04-25T10:49:09Z</time></trkpt><trkpt lat="44.59065030393465" lon="12.100984159870244"><ele>-1.3333333333333335</ele><time>2026-04-25T10:49:10Z</time></trkpt><trkpt lat="44.590825555681796" lon="12.100928497736545"><ele>0.33333333333333326</ele><time>2026-04-25T10:49:11Z</time></trkpt><trkpt lat="44.59099765485424" lon="12.100890774312598"><ele>2.0</ele><time>2026-04-25T10:49:12Z</time></trkpt><trkpt lat="44.59117291190567" lon="12.100856364792943"><ele>2.333333333333333</ele><time>2026-04-25T10:49:13Z</time></trkpt><trkpt lat="44.59135227841328" lon="12.100825184436431"><ele>2.6666666666666665</ele><time>2026-04-25T10:49:14Z</time></trkpt><trkpt lat="44.59152764831828" lon="12.100804004662766"><ele>3.0</ele><time>2026-04-25T10:49:15Z</time></trkpt><trkpt lat="44.59170379867661" lon="12.100784945872853"><ele>3.0</ele><time>2026-04-25T10:49:16Z</time></trkpt><trkpt lat="44.591882766569206" lon="12.10076601902689"><ele>3.0</ele><time>2026-04-25T10:49:17Z</time></trkpt><trkpt lat="44.59204721343995" lon="12.100741493412949"><ele>3.0</ele><time>2026-04-25T10:49:18Z</time></trkpt><trkpt lat="44.59221756436287" lon="12.100717623848658"><ele>1.6666666666666667</ele><time>2026-04-25T10:49:19Z</time></trkpt><trkpt lat="44.59238691486377" lon="12.100701189769698"><ele>0.33333333333333337</ele><time>2026-04-25T10:49:20Z</time></trkpt><trkpt lat="44.59255672387889" lon="12.10068106051956"><ele>-1.0</ele><time>2026-04-25T10:49:21Z</time></trkpt><trkpt lat="44.5927271707288" lon="12.100660167020191"><ele>-1.3333333333333333</ele><time>2026-04-25T10:49:22Z</time></trkpt><trkpt lat="44.59289893421614" lon="12.10063672887734"><ele>-1.6666666666666665</ele><time>2026-04-25T10:49:23Z</time></trkpt><trkpt lat="44.59306736603275" lon="12.100612813586812"><ele>-2.0</ele><time>2026-04-25T10:49:24Z</time></trkpt><trkpt lat="44.593238719376046" lon="12.100588969874956"><ele>-2.0</ele><time>2026-04-25T10:49:25Z</time></trkpt><trkpt lat="44.59340943134617" lon="12.100568917946097"><ele>-2.0</ele><time>2026-04-25T10:49:26Z</time></trkpt><trkpt lat="44.59357898527304" lon="12.100549573584408"><ele>-2.0</ele><time>2026-04-25T10:49:27Z</time></trkpt><trkpt lat="44.5937506010515" lon="12.100527871980928"><ele>-1.6666666666666665</ele><time>2026-04-25T10:49:28Z</time></trkpt><trkpt lat="44.593921849505016" lon="12.10050647583765"><ele>-1.3333333333333333</ele><time>2026-04-25T10:49:29Z</time></trkpt><trkpt lat="44.59409343341482" lon="12.100484193598302"><ele>-1.0</ele><time>2026-04-25T10:49:30Z</time></trkpt><trkpt lat="44.59426537436716" lon="12.10046197303492"><ele>-1.0</ele><time>2026-04-25T10:49:31Z</time></trkpt><trkpt lat="44.59443828351419" lon="12.100437099235101"><ele>-1.0</ele><time>2026-04-25T10:49:32Z</time></trkpt><trkpt lat="44.59461132993516" lon="12.100414319998617"><ele>-1.0</ele><time>2026-04-25T10:49:33Z</time></trkpt><trkpt lat="44.594786722193405" lon="12.100391773601192"><ele>-1.3333333333333333</ele><time>2026-04-25T10:49:34Z</time></trkpt><trkpt lat="44.594961501779075" lon="12.100368948550594"><ele>-1.6666666666666665</ele><time>2026-04-25T10:49:35Z</time></trkpt><trkpt lat="44.5951378352947" lon="12.100347295234533"><ele>-2.0</ele><time>2026-04-25T10:49:36Z</time></trkpt><trkpt lat="44.595313351877145" lon="12.10032649622016"><ele>-2.0</ele><time>2026-04-25T10:49:37Z</time></trkpt><trkpt lat="44.59549016849185" lon="12.100304301261657"><ele>-2.0</ele><time>2026-04-25T10:49:38Z</time></trkpt><trkpt lat="44.59566750403949" lon="12.100281917232037"><ele>-2.0</ele><time>2026-04-25T10:49:39Z</time></trkpt><trkpt lat="44.5958452545006" lon="12.100258269234763"><ele>-2.0</ele><time>2026-04-25T10:49:40Z</time></trkpt><trkpt lat="44.596021315881124" lon="12.100233616181075"><ele>-2.0</ele><time>2026-04-25T10:49:41Z</time></trkpt><trkpt lat="44.596198767757485" lon="12.100210103503748"><ele>-2.0</ele><time>2026-04-25T10:49:42Z</time></trkpt><trkpt lat="44.596375265415695" lon="12.100187721245272"><ele>-1.6666666666666665</ele><time>2026-04-25T10:49:43Z</time></trkpt><trkpt lat="44.596551612533055" lon="12.100169603801453"><ele>-1.3333333333333333</ele><time>2026-04-25T10:49:44Z</time></trkpt><trkpt lat="44.596727403692356" lon="12.100153404021459"><ele>-1.0</ele><time>2026-04-25T10:49:45Z</time></trkpt><trkpt lat="44.59690491516127" lon="12.100132638809203"><ele>-1.0</ele><time>2026-04-25T10:49:46Z</time></trkpt><trkpt lat="44.59708168483404" lon="12.100109321526332"><ele>-1.0</ele><time>2026-04-25T10:49:47Z</time></trkpt><trkpt lat="44.59725760921181" lon="12.100086314987465"><ele>-1.0</ele><time>2026-04-25T10:49:48Z</time></trkpt><trkpt lat="44.597433198478164" lon="12.100064085521288"><ele>-1.0</ele><time>2026-04-25T10:49:49Z</time></trkpt><trkpt lat="44.59760763593082" lon="12.10004069323031"><ele>-1.0</ele><time>2026-04-25T10:49:50Z</time></trkpt><trkpt lat="44.597781854551954" lon="12.100010047597287"><ele>-1.0</ele><time>2026-04-25T10:49:51Z</time></trkpt><trkpt lat="44.59795347387929" lon="12.099971391935735"><ele>-1.0</ele><time>2026-04-25T10:49:52Z</time></trkpt><trkpt lat="44.59812597706761" lon="12.099924812824147"><ele>-1.0</ele><time>2026-04-25T10:49:53Z</time></trkpt><trkpt lat="44.59829695016118" lon="12.099872267667523"><ele>-1.0</ele><time>2026-04-25T10:49:54Z</time></trkpt><trkpt lat="44.598468896853696" lon="12.099816842046263"><ele>-1.6666666666666665</ele><time>2026-04-25T10:49:55Z</time></trkpt><trkpt lat="44.59864114961466" lon="12.099759343432387"><ele>-2.3333333333333335</ele><time>2026-04-25T10:49:56Z</time></trkpt><trkpt lat="44.59881254367046" lon="12.099700648679635"><ele>-3.0</ele><time>2026-04-25T10:49:57Z</time></trkpt><trkpt lat="44.5989868922873" lon="12.099645885882069"><ele>-3.0</ele><time>2026-04-25T10:49:58Z</time></trkpt><trkpt lat="44.59916125634512" lon="12.099592474345263"><ele>-3.0</ele><time>2026-04-25T10:49:59Z</time></trkpt><trkpt lat="44.599334939994414" lon="12.099538979276701"><ele>-3.0</ele><time>2026-04-25T10:50:00Z</time></trkpt><trkpt lat="44.59951096763273" lon="12.099483991307824"><ele>-2.3333333333333335</ele><time>2026-04-25T10:50:01Z</time></trkpt><trkpt lat="44.59968460999294" lon="12.099428885540796"><ele>-1.6666666666666665</ele><time>2026-04-25T10:50:02Z</time></trkpt><trkpt lat="44.5998595815505" lon="12.099373551415107"><ele>-1.0</ele><time>2026-04-25T10:50:03Z</time></trkpt><trkpt lat="44.60003227517636" lon="12.099318020863645"><ele>-1.0</ele><time>2026-04-25T10:50:04Z</time></trkpt><trkpt lat="44.60020551066967" lon="12.099258930112118"><ele>-1.0</ele><time>2026-04-25T10:50:05Z</time></trkpt><trkpt lat="44.60037863350329" lon="12.099204297329525"><ele>-1.0</ele><time>2026-04-25T10:50:06Z</time></trkpt><trkpt lat="44.60055277090765" lon="12.099153350801213"><ele>-1.0</ele><time>2026-04-25T10:50:07Z</time></trkpt><trkpt lat="44.60072844918747" lon="12.099107534673978"><ele>-1.0</ele><time>2026-04-25T10:50:08Z</time></trkpt><trkpt lat="44.60090397330804" lon="12.099073177310993"><ele>-1.0</ele><time>2026-04-25T10:50:09Z</time></trkpt><trkpt lat="44.6010824809386" lon="12.099045815203917"><ele>-0.6666666666666666</ele><time>2026-04-25T10:50:10Z</time></trkpt><trkpt lat="44.601258357353075" lon="12.099024214525336"><ele>-0.3333333333333333</ele><time>2026-04-25T10:50:11Z</time></trkpt><trkpt lat="44.60143528439589" lon="12.09900424800478"><ele>0.0</ele><time>2026-04-25T10:50:12Z</time></trkpt><trkpt lat="44.60161426300325" lon="12.09898238887618"><ele>0.0</ele><time>2026-04-25T10:50:13Z</time></trkpt><trkpt lat="44.601789381282096" lon="12.098959048181392"><ele>0.0</ele><time>2026-04-25T10:50:14Z</time></trkpt><trkpt lat="44.601961517614434" lon="12.09893681950859"><ele>0.0</ele><time>2026-04-25T10:50:15Z</time></trkpt><trkpt lat="44.60211390582488" lon="12.098917421260303"><ele>-0.5</ele><time>2026-04-25T10:50:16Z</time></trkpt><trkpt lat="44.60225830761388" lon="12.098897391655312"><ele>-1.0</ele><time>2026-04-25T10:50:17Z</time></trkpt><trkpt lat="44.60239450253434" lon="12.098880894204967"><ele>-1.5</ele><time>2026-04-25T10:50:18Z</time></trkpt><trkpt lat="44.60251833343333" lon="12.098867549489501"><ele>-2.0</ele><time>2026-04-25T10:50:19Z</time></trkpt><trkpt lat="44.602639535077856" lon="12.098854018662093"><ele>-2.0</ele><time>2026-04-25T10:50:20Z</time></trkpt><trkpt lat="44.60275467683934" lon="12.098842051297437"><ele>-2.0</ele><time>2026-04-25T10:50:21Z</time></trkpt><trkpt lat="44.602863412401" lon="12.098829846075832"><ele>-2.0</ele><time>2026-04-25T10:50:22Z</time></trkpt><trkpt lat="44.60296763227162" lon="12.09881947728377"><ele>-2.0</ele><time>2026-04-25T10:50:23Z</time></trkpt><trkpt lat="44.60306585660651" lon="12.098808029313329"><ele>-2.0</ele><time>2026-04-25T10:50:24Z</time></trkpt><trkpt lat="44.6031567110411" lon="12.098795431935185"><ele>-1.6</ele><time>2026-04-25T10:50:25Z</time></trkpt><trkpt lat="44.603243929999785" lon="12.098784003997663"><ele>-1.2000000000000002</ele><time>2026-04-25T10:50:26Z</time></trkpt><trkpt lat="44.603335288267324" lon="12.098772133644461"><ele>-0.8</ele><time>2026-04-25T10:50:27Z</time></trkpt><trkpt lat="44.603432654875135" lon="12.098757284375866"><ele>-0.4</ele><time>2026-04-25T10:50:28Z</time></trkpt><trkpt lat="44.60353154427828" lon="12.09874052503061"><ele>0.0</ele><time>2026-04-25T10:50:29Z</time></trkpt><trkpt lat="44.60363942921854" lon="12.098722085358501"><ele>0.0</ele><time>2026-04-25T10:50:30Z</time></trkpt><trkpt lat="44.6037579168105" lon="12.098707299328764"><ele>0.0</ele><time>2026-04-25T10:50:31Z</time></trkpt><trkpt lat="44.60388432826804" lon="12.09869140282669"><ele>0.0</ele><time>2026-04-25T10:50:32Z</time></trkpt><trkpt lat="44.60401861269265" lon="12.098679641308108"><ele>0.0</ele><time>2026-04-25T10:50:33Z</time></trkpt><trkpt lat="44.604158770806954" lon="12.09866574388913"><ele>0.0</ele><time>2026-04-25T10:50:34Z</time></trkpt><trkpt lat="44.60430889421011" lon="12.098650983395814"><ele>0.0</ele><time>2026-04-25T10:50:35Z</time></trkpt><trkpt lat="44.60445369065721" lon="12.098640504360707"><ele>0.0</ele><time>2026-04-25T10:50:36Z</time></trkpt><trkpt lat="44.60459893786985" lon="12.098628072293051"><ele>0.0</ele><time>2026-04-25T10:50:37Z</time></trkpt><trkpt lat="44.60474719944753" lon="12.098614840137815"><ele>0.0</ele><time>2026-04-25T10:50:38Z</time></trkpt><trkpt lat="44.604897164544404" lon="12.098601495901596"><ele>0.0</ele><time>2026-04-25T10:50:39Z</time></trkpt><trkpt lat="44.605049586100456" lon="12.098591886503021"><ele>0.0</ele><time>2026-04-25T10:50:40Z</time></trkpt><trkpt lat="44.605203881166744" lon="12.098584989558928"><ele>-0.3333333333333333</ele><time>2026-04-25T10:50:41Z</time></trkpt><trkpt lat="44.60536002524907" lon="12.098576905967606"><ele>-0.6666666666666666</ele><time>2026-04-25T10:50:42Z</time></trkpt><trkpt lat="44.60551350796351" lon="12.098568785488364"><ele>-1.0</ele><time>2026-04-25T10:50:43Z</time></trkpt><trkpt lat="44.6056714143406" lon="12.098558765736382"><ele>-1.0</ele><time>2026-04-25T10:50:44Z</time></trkpt><trkpt lat="44.60582821489866" lon="12.098549303920551"><ele>-1.0</ele><time>2026-04-25T10:50:45Z</time></trkpt><trkpt lat="44.60597803729997" lon="12.098539638738568"><ele>-1.0</ele><time>2026-04-25T10:50:46Z</time></trkpt><trkpt lat="44.60612185040149" lon="12.098528647035765"><ele>-0.75</ele><time>2026-04-25T10:50:47Z</time></trkpt><trkpt lat="44.60626247571611" lon="12.098516767045483"><ele>-0.5</ele><time>2026-04-25T10:50:48Z</time></trkpt><trkpt lat="44.60640845100528" lon="12.098507756218645"><ele>-0.25</ele><time>2026-04-25T10:50:49Z</time></trkpt><trkpt lat="44.60655878842709" lon="12.098498612635755"><ele>0.0</ele><time>2026-04-25T10:50:50Z</time></trkpt><trkpt lat="44.6067160318942" lon="12.098487741362506"><ele>0.0</ele><time>2026-04-25T10:50:51Z</time></trkpt><trkpt lat="44.606877315596876" lon="12.09850154859218"><ele>0.0</ele><time>2026-04-25T10:50:52Z</time></trkpt><trkpt lat="44.60704014892433" lon="12.0984933820391"><ele>0.0</ele><time>2026-04-25T10:50:53Z</time></trkpt><trkpt lat="44.60720722242947" lon="12.09848500282842"><ele>-0.6666666666666666</ele><time>2026-04-25T10:50:54Z</time></trkpt><trkpt lat="44.60737471115373" lon="12.098476104107476"><ele>-1.3333333333333333</ele><time>2026-04-25T10:50:55Z</time></trkpt><trkpt lat="44.60754365155983" lon="12.09846674801124"><ele>-2.0</ele><time>2026-04-25T10:50:56Z</time></trkpt><trkpt lat="44.60771600590261" lon="12.098457202849378"><ele>-2.333333333333333</ele><time>2026-04-25T10:50:57Z</time></trkpt><trkpt lat="44.60788549049719" lon="12.098447816605507"><ele>-2.6666666666666665</ele><time>2026-04-25T10:50:58Z</time></trkpt><trkpt lat="44.60805718769973" lon="12.09841951709773"><ele>-3.0</ele><time>2026-04-25T10:50:59Z</time></trkpt><trkpt lat="44.608228969459354" lon="12.098413410373407"><ele>-3.0</ele><time>2026-04-25T10:51:00Z</time></trkpt><trkpt lat="44.60840097252398" lon="12.09840683480391"><ele>-3.0</ele><time>2026-04-25T10:51:01Z</time></trkpt><trkpt lat="44.60856839404483" lon="12.098400277603679"><ele>-3.0</ele><time>2026-04-25T10:51:02Z</time></trkpt><trkpt lat="44.60873717925537" lon="12.098388675814174"><ele>-2.6666666666666665</ele><time>2026-04-25T10:51:03Z</time></trkpt><trkpt lat="44.6089067543613" lon="12.09837911472627"><ele>-2.333333333333333</ele><time>2026-04-25T10:51:04Z</time></trkpt><trkpt lat="44.60907846468517" lon="12.098368440765007"><ele>-2.0</ele><time>2026-04-25T10:51:05Z</time></trkpt><trkpt lat="44.60924923806943" lon="12.098356888190546"><ele>-2.0</ele><time>2026-04-25T10:51:06Z</time></trkpt><trkpt lat="44.609420665928376" lon="12.098345377881808"><ele>-2.0</ele><time>2026-04-25T10:51:07Z</time></trkpt><trkpt lat="44.60959292821039" lon="12.09833584233561"><ele>-2.0</ele><time>2026-04-25T10:51:08Z</time></trkpt><trkpt lat="44.609765471798646" lon="12.098326288988375"><ele>-1.6666666666666665</ele><time>2026-04-25T10:51:09Z</time></trkpt><trkpt lat="44.60993890032284" lon="12.09831802757226"><ele>-1.3333333333333333</ele><time>2026-04-25T10:51:10Z</time></trkpt><trkpt lat="44.61011080644781" lon="12.098310513857594"><ele>-1.0</ele><time>2026-04-25T10:51:11Z</time></trkpt><trkpt lat="44.61028425238691" lon="12.09830023865811"><ele>-1.0</ele><time>2026-04-25T10:51:12Z</time></trkpt><trkpt lat="44.61045752734543" lon="12.098286334335526"><ele>-1.0</ele><time>2026-04-25T10:51:13Z</time></trkpt><trkpt lat="44.61063127458453" lon="12.09827215661674"><ele>-1.0</ele><time>2026-04-25T10:51:14Z</time></trkpt><trkpt lat="44.61080734204671" lon="12.098284061854706"><ele>-1.0</ele><time>2026-04-25T10:51:15Z</time></trkpt><trkpt lat="44.61098198333586" lon="12.09827446761434"><ele>-1.0</ele><time>2026-04-25T10:51:16Z</time></trkpt><trkpt lat="44.61115700968617" lon="12.098264852223295"><ele>-1.0</ele><time>2026-04-25T10:51:17Z</time></trkpt><trkpt lat="44.611331881793426" lon="12.098255245304706"><ele>-1.3333333333333333</ele><time>2026-04-25T10:51:18Z</time></trkpt><trkpt lat="44.61150681958439" lon="12.098225245382194"><ele>-1.6666666666666665</ele><time>2026-04-25T10:51:19Z</time></trkpt><trkpt lat="44.61168306078968" lon="12.09821954161337"><ele>-2.0</ele><time>2026-04-25T10:51:20Z</time></trkpt><trkpt lat="44.6118587253824" lon="12.098214268763442"><ele>-1.6666666666666665</ele><time>2026-04-25T10:51:21Z</time></trkpt><trkpt lat="44.61203521781254" lon="12.098205545599352"><ele>-1.3333333333333333</ele><time>2026-04-25T10:51:22Z</time></trkpt><trkpt lat="44.61221109997051" lon="12.09819440639966"><ele>-1.0</ele><time>2026-04-25T10:51:23Z</time></trkpt><trkpt lat="44.61238701107762" lon="12.098182507529357"><ele>-1.0</ele><time>2026-04-25T10:51:24Z</time></trkpt><trkpt lat="44.612562271325956" lon="12.098171324790428"><ele>-1.0</ele><time>2026-04-25T10:51:25Z</time></trkpt><trkpt lat="44.61274010033175" lon="12.098161796223868"><ele>-1.0</ele><time>2026-04-25T10:51:26Z</time></trkpt><trkpt lat="44.612918017554726" lon="12.098152872579693"><ele>-0.6666666666666666</ele><time>2026-04-25T10:51:27Z</time></trkpt><trkpt lat="44.6130959315741" lon="12.098143793414724"><ele>-0.3333333333333333</ele><time>2026-04-25T10:51:28Z</time></trkpt><trkpt lat="44.61327371719513" lon="12.09813485900323"><ele>0.0</ele><time>2026-04-25T10:51:29Z</time></trkpt><trkpt lat="44.6134519171523" lon="12.0981246959334"><ele>0.0</ele><time>2026-04-25T10:51:30Z</time></trkpt><trkpt lat="44.61362702800949" lon="12.098114274671907"><ele>0.0</ele><time>2026-04-25T10:51:31Z</time></trkpt><trkpt lat="44.61380256799374" lon="12.098102951270802"><ele>0.0</ele><time>2026-04-25T10:51:32Z</time></trkpt><trkpt lat="44.61397683214194" lon="12.098091626333623"><ele>-0.3333333333333333</ele><time>2026-04-25T10:51:33Z</time></trkpt><trkpt lat="44.61414780702043" lon="12.098081150622559"><ele>-0.6666666666666666</ele><time>2026-04-25T10:51:34Z</time></trkpt><trkpt lat="44.61430798464082" lon="12.098069898531126"><ele>-1.0</ele><time>2026-04-25T10:51:35Z</time></trkpt><trkpt lat="44.61446692056144" lon="12.098082864143516"><ele>-1.6666666666666665</ele><time>2026-04-25T10:51:36Z</time></trkpt><trkpt lat="44.614623929013085" lon="12.098074255659226"><ele>-2.3333333333333335</ele><time>2026-04-25T10:51:37Z</time></trkpt><trkpt lat="44.61478011690992" lon="12.0980656339998"><ele>-3.0</ele><time>2026-04-25T10:51:38Z</time></trkpt><trkpt lat="44.61493729627085" lon="12.098056823093298"><ele>-3.0</ele><time>2026-04-25T10:51:39Z</time></trkpt><trkpt lat="44.61509569979971" lon="12.098047943564424"><ele>-3.0</ele><time>2026-04-25T10:51:40Z</time></trkpt><trkpt lat="44.61525702859504" lon="12.098038900055649"><ele>-3.0</ele><time>2026-04-25T10:51:41Z</time></trkpt><trkpt lat="44.61542086767641" lon="12.09802971582904"><ele>-2.3333333333333335</ele><time>2026-04-25T10:51:42Z</time></trkpt><trkpt lat="44.61559127557364" lon="12.098020163378658"><ele>-1.6666666666666665</ele><time>2026-04-25T10:51:43Z</time></trkpt><trkpt lat="44.61576466277811" lon="12.098010443919444"><ele>-1.0</ele><time>2026-04-25T10:51:44Z</time></trkpt><trkpt lat="44.61593903701029" lon="12.098000669130895"><ele>-1.0</ele><time>2026-04-25T10:51:45Z</time></trkpt><trkpt lat="44.61611623751058" lon="12.097990036991796"><ele>-1.0</ele><time>2026-04-25T10:51:46Z</time></trkpt><trkpt lat="44.61628820426796" lon="12.097979660897847"><ele>-1.0</ele><time>2026-04-25T10:51:47Z</time></trkpt><trkpt lat="44.616448087063766" lon="12.097970013923927"><ele>-1.25</ele><time>2026-04-25T10:51:48Z</time></trkpt><trkpt lat="44.61659784945779" lon="12.097960977592416"><ele>-1.5</ele><time>2026-04-25T10:51:49Z</time></trkpt><trkpt lat="44.616742396010125" lon="12.097952539994257"><ele>-1.75</ele><time>2026-04-25T10:51:50Z</time></trkpt><trkpt lat="44.61688186199512" lon="12.097944842392483"><ele>-2.0</ele><time>2026-04-25T10:51:51Z</time></trkpt><trkpt lat="44.61701944188111" lon="12.097937248891316"><ele>-2.0</ele><time>2026-04-25T10:51:52Z</time></trkpt><trkpt lat="44.617157868472304" lon="12.097929655810926"><ele>-2.0</ele><time>2026-04-25T10:51:53Z</time></trkpt><trkpt lat="44.61729667923988" lon="12.097922615395191"><ele>-2.0</ele><time>2026-04-25T10:51:54Z</time></trkpt><trkpt lat="44.617435991233734" lon="12.097915549559163"><ele>-2.0</ele><time>2026-04-25T10:51:55Z</time></trkpt><trkpt lat="44.61757443807748" lon="12.097892283454282"><ele>-2.0</ele><time>2026-04-25T10:51:56Z</time></trkpt><trkpt lat="44.61770989752965" lon="12.097893302031025"><ele>-2.0</ele><time>2026-04-25T10:51:57Z</time></trkpt><trkpt lat="44.61784674861093" lon="12.097897468465339"><ele>-2.0</ele><time>2026-04-25T10:51:58Z</time></trkpt><trkpt lat="44.61798524281497" lon="12.097912812044148"><ele>-2.0</ele><time>2026-04-25T10:51:59Z</time></trkpt><trkpt lat="44.61812590366498" lon="12.09793527829244"><ele>-2.25</ele><time>2026-04-25T10:52:00Z</time></trkpt><trkpt lat="44.61826809310892" lon="12.097966503321077"><ele>-2.5</ele><time>2026-04-25T10:52:01Z</time></trkpt><trkpt lat="44.618411817898526" lon="12.098009702283878"><ele>-2.75</ele><time>2026-04-25T10:52:02Z</time></trkpt><trkpt lat="44.61855753175002" lon="12.098060342219842"><ele>-3.0</ele><time>2026-04-25T10:52:03Z</time></trkpt><trkpt lat="44.618703361247434" lon="12.098120042376118"><ele>-3.0</ele><time>2026-04-25T10:52:04Z</time></trkpt><trkpt lat="44.618846048734824" lon="12.098194202587962"><ele>-3.0</ele><time>2026-04-25T10:52:05Z</time></trkpt><trkpt lat="44.618987482128965" lon="12.098280712162394"><ele>-3.0</ele><time>2026-04-25T10:52:06Z</time></trkpt><trkpt lat="44.61912637133983" lon="12.098378498863832"><ele>-3.0</ele><time>2026-04-25T10:52:07Z</time></trkpt><trkpt lat="44.61926352301955" lon="12.098486838431977"><ele>-3.0</ele><time>2026-04-25T10:52:08Z</time></trkpt><trkpt lat="44.619400025371085" lon="12.09861202985042"><ele>-3.0</ele><time>2026-04-25T10:52:09Z</time></trkpt><trkpt lat="44.619534133617954" lon="12.098749865317433"><ele>-3.0</ele><time>2026-04-25T10:52:10Z</time></trkpt><trkpt lat="44.61966465262608" lon="12.098900394104108"><ele>-3.0</ele><time>2026-04-25T10:52:11Z</time></trkpt><trkpt lat="44.619770799096045" lon="12.099014343000919"><ele>-3.0</ele><time>2026-04-25T10:52:12Z</time></trkpt><trkpt lat="44.619889570566556" lon="12.09917115676576"><ele>-2.6666666666666665</ele><time>2026-04-25T10:52:13Z</time></trkpt><trkpt lat="44.6200063761861" lon="12.09933293015932"><ele>-2.333333333333333</ele><time>2026-04-25T10:52:14Z</time></trkpt><trkpt lat="44.62012428084455" lon="12.099499263854923"><ele>-2.0</ele><time>2026-04-25T10:52:15Z</time></trkpt><trkpt lat="44.62023750817802" lon="12.099659470636807"><ele>-2.0</ele><time>2026-04-25T10:52:16Z</time></trkpt><trkpt lat="44.620344894851044" lon="12.099813540662891"><ele>-2.0</ele><time>2026-04-25T10:52:17Z</time></trkpt><trkpt lat="44.62044890812051" lon="12.099964167146402"><ele>-2.0</ele><time>2026-04-25T10:52:18Z</time></trkpt><trkpt lat="44.6205576729737" lon="12.100112018301493"><ele>-2.0</ele><time>2026-04-25T10:52:19Z</time></trkpt><trkpt lat="44.620671283716554" lon="12.100259793595107"><ele>-2.0</ele><time>2026-04-25T10:52:20Z</time></trkpt><trkpt lat="44.620789454513336" lon="12.100404049640845"><ele>-2.0</ele><time>2026-04-25T10:52:21Z</time></trkpt><trkpt lat="44.62091434513072" lon="12.100539433309446"><ele>-2.0</ele><time>2026-04-25T10:52:22Z</time></trkpt><trkpt lat="44.621047697968834" lon="12.100666073549773"><ele>-2.0</ele><time>2026-04-25T10:52:23Z</time></trkpt><trkpt lat="44.6211891077788" lon="12.100788203171273"><ele>-2.0</ele><time>2026-04-25T10:52:24Z</time></trkpt><trkpt lat="44.621334261592686" lon="12.100899788501243"><ele>-1.6666666666666665</ele><time>2026-04-25T10:52:25Z</time></trkpt><trkpt lat="44.62148648706589" lon="12.101003329209748"><ele>-1.3333333333333333</ele><time>2026-04-25T10:52:26Z</time></trkpt><trkpt lat="44.62164377120252" lon="12.10109609938159"><ele>-1.0</ele><time>2026-04-25T10:52:27Z</time></trkpt><trkpt lat="44.62180585844507" lon="12.101176988032432"><ele>-1.0</ele><time>2026-04-25T10:52:28Z</time></trkpt><trkpt lat="44.621972909081215" lon="12.10124523423494"><ele>-1.0</ele><time>2026-04-25T10:52:29Z</time></trkpt><trkpt lat="44.622145773919904" lon="12.101299121507164"><ele>-1.0</ele><time>2026-04-25T10:52:30Z</time></trkpt><trkpt lat="44.622320708128505" lon="12.101340240541756"><ele>-0.6666666666666666</ele><time>2026-04-25T10:52:31Z</time></trkpt><trkpt lat="44.62249856047133" lon="12.101367356109902"><ele>-0.3333333333333333</ele><time>2026-04-25T10:52:32Z</time></trkpt><trkpt lat="44.622679577253706" lon="12.10137614520768"><ele>0.0</ele><time>2026-04-25T10:52:33Z</time></trkpt><trkpt lat="44.62286279602724" lon="12.101372484373265"><ele>0.0</ele><time>2026-04-25T10:52:34Z</time></trkpt><trkpt lat="44.62304556014987" lon="12.101359199263852"><ele>0.0</ele><time>2026-04-25T10:52:35Z</time></trkpt><trkpt lat="44.62323135835028" lon="12.101341488363644"><ele>0.0</ele><time>2026-04-25T10:52:36Z</time></trkpt><trkpt lat="44.62341711186864" lon="12.101325542528691"><ele>0.0</ele><time>2026-04-25T10:52:37Z</time></trkpt><trkpt lat="44.62360165688278" lon="12.101310719354338"><ele>0.0</ele><time>2026-04-25T10:52:38Z</time></trkpt><trkpt lat="44.62378296037309" lon="12.101293964870068"><ele>0.0</ele><time>2026-04-25T10:52:39Z</time></trkpt><trkpt lat="44.62396125538703" lon="12.101276956487919"><ele>0.0</ele><time>2026-04-25T10:52:40Z</time></trkpt><trkpt lat="44.62414169368608" lon="12.101261459568153"><ele>0.0</ele><time>2026-04-25T10:52:41Z</time></trkpt><trkpt lat="44.62432345800077" lon="12.101246623460215"><ele>0.0</ele><time>2026-04-25T10:52:42Z</time></trkpt><trkpt lat="44.624506516918444" lon="12.101231479558416"><ele>-0.6666666666666666</ele><time>2026-04-25T10:52:43Z</time></trkpt><trkpt lat="44.6246915046139" lon="12.101214880218313"><ele>-1.3333333333333333</ele><time>2026-04-25T10:52:44Z</time></trkpt><trkpt lat="44.624877498411685" lon="12.101199460839258"><ele>-2.0</ele><time>2026-04-25T10:52:45Z</time></trkpt><trkpt lat="44.6250659927649" lon="12.101187854481008"><ele>-2.0</ele><time>2026-04-25T10:52:46Z</time></trkpt><trkpt lat="44.62525465720524" lon="12.101180602321369"><ele>-2.0</ele><time>2026-04-25T10:52:47Z</time></trkpt><trkpt lat="44.62544571217652" lon="12.101181154436855"><ele>-2.0</ele><time>2026-04-25T10:52:48Z</time></trkpt><trkpt lat="44.625639408286524" lon="12.101193447325208"><ele>-2.0</ele><time>2026-04-25T10:52:49Z</time></trkpt><trkpt lat="44.62583223327804" lon="12.101215498615389"><ele>-2.0</ele><time>2026-04-25T10:52:50Z</time></trkpt><trkpt lat="44.626025160426906" lon="12.10124461888384"><ele>-2.0</ele><time>2026-04-25T10:52:51Z</time></trkpt><trkpt lat="44.62621742081791" lon="12.101281767020646"><ele>-2.333333333333333</ele><time>2026-04-25T10:52:52Z</time></trkpt><trkpt lat="44.62641160753429" lon="12.101321384374218"><ele>-2.6666666666666665</ele><time>2026-04-25T10:52:53Z</time></trkpt><trkpt lat="44.62660704112419" lon="12.101360018042033"><ele>-3.0</ele><time>2026-04-25T10:52:54Z</time></trkpt><trkpt lat="44.62680170267317" lon="12.101401490383665"><ele>-2.6666666666666665</ele><time>2026-04-25T10:52:55Z</time></trkpt><trkpt lat="44.627000083439704" lon="12.10144495400219"><ele>-2.333333333333333</ele><time>2026-04-25T10:52:56Z</time></trkpt><trkpt lat="44.62720049663206" lon="12.101488272389101"><ele>-2.0</ele><time>2026-04-25T10:52:57Z</time></trkpt><trkpt lat="44.62740069835901" lon="12.101530388633666"><ele>-2.0</ele><time>2026-04-25T10:52:58Z</time></trkpt><trkpt lat="44.62760085849971" lon="12.101572246279693"><ele>-2.0</ele><time>2026-04-25T10:52:59Z</time></trkpt><trkpt lat="44.62780175250747" lon="12.101612995530195"><ele>-2.0</ele><time>2026-04-25T10:53:00Z</time></trkpt><trkpt lat="44.62800360932717" lon="12.101653121224068"><ele>-1.6666666666666665</ele><time>2026-04-25T10:53:01Z</time></trkpt><trkpt lat="44.62820425446903" lon="12.101693951409148"><ele>-1.3333333333333333</ele><time>2026-04-25T10:53:02Z</time></trkpt><trkpt lat="44.628404334241644" lon="12.101735641150913"><ele>-1.0</ele><time>2026-04-25T10:53:03Z</time></trkpt><trkpt lat="44.62860251994209" lon="12.101778612488195"><ele>-0.6666666666666666</ele><time>2026-04-25T10:53:04Z</time></trkpt><trkpt lat="44.6287994776133" lon="12.101822403905958"><ele>-0.3333333333333333</ele><time>2026-04-25T10:53:05Z</time></trkpt><trkpt lat="44.628996328809876" lon="12.101865028370907"><ele>0.0</ele><time>2026-04-25T10:53:06Z</time></trkpt><trkpt lat="44.6291922885109" lon="12.1019070149464"><ele>0.0</ele><time>2026-04-25T10:53:07Z</time></trkpt><trkpt lat="44.62938850119322" lon="12.101947545569002"><ele>0.0</ele><time>2026-04-25T10:53:08Z</time></trkpt><trkpt lat="44.62958355234752" lon="12.101988840338306"><ele>0.0</ele><time>2026-04-25T10:53:09Z</time></trkpt><trkpt lat="44.629779142068806" lon="12.102030320703877"><ele>-0.6666666666666666</ele><time>2026-04-25T10:53:10Z</time></trkpt><trkpt lat="44.62997436827352" lon="12.1020700670155"><ele>-1.3333333333333333</ele><time>2026-04-25T10:53:11Z</time></trkpt><trkpt lat="44.630169276946724" lon="12.102108469790062"><ele>-2.0</ele><time>2026-04-25T10:53:12Z</time></trkpt><trkpt lat="44.6303633307896" lon="12.102146953864308"><ele>-2.0</ele><time>2026-04-25T10:53:13Z</time></trkpt><trkpt lat="44.63055648882867" lon="12.102186121950115"><ele>-2.0</ele><time>2026-04-25T10:53:14Z</time></trkpt><trkpt lat="44.630752488592265" lon="12.102227930859547"><ele>-2.0</ele><time>2026-04-25T10:53:15Z</time></trkpt><trkpt lat="44.630948334571265" lon="12.102269681271347"><ele>-2.0</ele><time>2026-04-25T10:53:16Z</time></trkpt><trkpt lat="44.63114436823541" lon="12.102311503434187"><ele>-2.0</ele><time>2026-04-25T10:53:17Z</time></trkpt><trkpt lat="44.631342377859056" lon="12.102353345517935"><ele>-2.0</ele><time>2026-04-25T10:53:18Z</time></trkpt><trkpt lat="44.63154081561279" lon="12.102394130262626"><ele>-2.0</ele><time>2026-04-25T10:53:19Z</time></trkpt><trkpt lat="44.631738045685566" lon="12.102434605449771"><ele>-2.0</ele><time>2026-04-25T10:53:20Z</time></trkpt><trkpt lat="44.631935434573194" lon="12.102476051294646"><ele>-2.0</ele><time>2026-04-25T10:53:21Z</time></trkpt><trkpt lat="44.63213412773123" lon="12.10251809309878"><ele>-2.0</ele><time>2026-04-25T10:53:22Z</time></trkpt><trkpt lat="44.63233143707964" lon="12.10256022844931"><ele>-2.0</ele><time>2026-04-25T10:53:23Z</time></trkpt><trkpt lat="44.63252724287486" lon="12.102602020061681"><ele>-2.0</ele><time>2026-04-25T10:53:24Z</time></trkpt><trkpt lat="44.63272107912902" lon="12.102641174033518"><ele>-1.6666666666666665</ele><time>2026-04-25T10:53:25Z</time></trkpt><trkpt lat="44.63291335750987" lon="12.102681633730516"><ele>-1.3333333333333333</ele><time>2026-04-25T10:53:26Z</time></trkpt><trkpt lat="44.63309871515015" lon="12.102723126839797"><ele>-1.0</ele><time>2026-04-25T10:53:27Z</time></trkpt><trkpt lat="44.63327501085371" lon="12.102764176333302"><ele>-1.0</ele><time>2026-04-25T10:53:28Z</time></trkpt><trkpt lat="44.6334415921263" lon="12.10280304006115"><ele>-1.0</ele><time>2026-04-25T10:53:29Z</time></trkpt><trkpt lat="44.63359849773184" lon="12.102843016543238"><ele>-1.0</ele><time>2026-04-25T10:53:30Z</time></trkpt><trkpt lat="44.63374915457189" lon="12.102889445015458"><ele>-1.0</ele><time>2026-04-25T10:53:31Z</time></trkpt><trkpt lat="44.633897639883436" lon="12.102939769994546"><ele>-1.0</ele><time>2026-04-25T10:53:32Z</time></trkpt><trkpt lat="44.63404340417568" lon="12.102994521827885"><ele>-1.0</ele><time>2026-04-25T10:53:33Z</time></trkpt><trkpt lat="44.63419424781113" lon="12.103058521132578"><ele>-1.0</ele><time>2026-04-25T10:53:34Z</time></trkpt><trkpt lat="44.634343499283816" lon="12.10312986870229"><ele>-1.0</ele><time>2026-04-25T10:53:35Z</time></trkpt><trkpt lat="44.63448665830074" lon="12.103205068681604"><ele>-1.0</ele><time>2026-04-25T10:53:36Z</time></trkpt><trkpt lat="44.634628658445735" lon="12.103282618038872"><ele>-1.0</ele><time>2026-04-25T10:53:37Z</time></trkpt><trkpt lat="44.634773287264544" lon="12.103359078988913"><ele>-1.0</ele><time>2026-04-25T10:53:38Z</time></trkpt><trkpt lat="44.63491876805549" lon="12.103434850338996"><ele>-1.0</ele><time>2026-04-25T10:53:39Z</time></trkpt><trkpt lat="44.635067048035374" lon="12.103511050837504"><ele>-1.0</ele><time>2026-04-25T10:53:40Z</time></trkpt><trkpt lat="44.635218309059155" lon="12.103586550626853"><ele>-1.0</ele><time>2026-04-25T10:53:41Z</time></trkpt><trkpt lat="44.63537068008187" lon="12.10366571654433"><ele>-1.0</ele><time>2026-04-25T10:53:42Z</time></trkpt><trkpt lat="44.63552320788291" lon="12.103746143024082"><ele>-1.3333333333333333</ele><time>2026-04-25T10:53:43Z</time></trkpt><trkpt lat="44.635675853890966" lon="12.103825925130373"><ele>-1.6666666666666665</ele><time>2026-04-25T10:53:44Z</time></trkpt><trkpt lat="44.63582843235978" lon="12.103908659661132"><ele>-2.0</ele><time>2026-04-25T10:53:45Z</time></trkpt><trkpt lat="44.63598130925845" lon="12.103989619378426"><ele>-2.0</ele><time>2026-04-25T10:53:46Z</time></trkpt><trkpt lat="44.63613549360175" lon="12.104067442356996"><ele>-2.0</ele><time>2026-04-25T10:53:47Z</time></trkpt><trkpt lat="44.636291077496075" lon="12.104147078649591"><ele>-2.0</ele><time>2026-04-25T10:53:48Z</time></trkpt><trkpt lat="44.636447368398606" lon="12.10422617546434"><ele>-1.3333333333333333</ele><time>2026-04-25T10:53:49Z</time></trkpt><trkpt lat="44.636604908541536" lon="12.104309362324745"><ele>-0.6666666666666666</ele><time>2026-04-25T10:53:50Z</time></trkpt><trkpt lat="44.63676319663738" lon="12.104395521804248"><ele>0.0</ele><time>2026-04-25T10:53:51Z</time></trkpt><trkpt lat="44.636923563259224" lon="12.10448136248355"><ele>-0.3333333333333333</ele><time>2026-04-25T10:53:52Z</time></trkpt><trkpt lat="44.63708535278282" lon="12.104567066755383"><ele>-0.6666666666666666</ele><time>2026-04-25T10:53:53Z</time></trkpt><trkpt lat="44.63724724991737" lon="12.104653992582822"><ele>-1.0</ele><time>2026-04-25T10:53:54Z</time></trkpt><trkpt lat="44.637410254021006" lon="12.10474109392274"><ele>-1.0</ele><time>2026-04-25T10:53:55Z</time></trkpt><trkpt lat="44.637573634710684" lon="12.104830386708805"><ele>-1.0</ele><time>2026-04-25T10:53:56Z</time></trkpt><trkpt lat="44.63773964214771" lon="12.10492671954371"><ele>-1.0</ele><time>2026-04-25T10:53:57Z</time></trkpt><trkpt lat="44.63790713272625" lon="12.105028667629215"><ele>-1.0</ele><time>2026-04-25T10:53:58Z</time></trkpt><trkpt lat="44.63806821967935" lon="12.105132298066007"><ele>-1.0</ele><time>2026-04-25T10:53:59Z</time></trkpt><trkpt lat="44.63822586310456" lon="12.105235994385158"><ele>-1.0</ele><time>2026-04-25T10:54:00Z</time></trkpt><trkpt lat="44.63837953349407" lon="12.105338321805828"><ele>-1.0</ele><time>2026-04-25T10:54:01Z</time></trkpt><trkpt lat="44.638525068086054" lon="12.105435904219487"><ele>-1.0</ele><time>2026-04-25T10:54:02Z</time></trkpt><trkpt lat="44.638666991690165" lon="12.105529995130414"><ele>-1.0</ele><time>2026-04-25T10:54:03Z</time></trkpt><trkpt lat="44.63880759729614" lon="12.105623256835544"><ele>-1.3333333333333333</ele><time>2026-04-25T10:54:04Z</time></trkpt><trkpt lat="44.63894916396337" lon="12.105718571529847"><ele>-1.6666666666666665</ele><time>2026-04-25T10:54:05Z</time></trkpt><trkpt lat="44.63908796000861" lon="12.105814038426756"><ele>-2.0</ele><time>2026-04-25T10:54:06Z</time></trkpt><trkpt lat="44.63922153416736" lon="12.105905286956604"><ele>-2.0</ele><time>2026-04-25T10:54:07Z</time></trkpt><trkpt lat="44.639356439356376" lon="12.105996016824808"><ele>-2.0</ele><time>2026-04-25T10:54:08Z</time></trkpt><trkpt lat="44.639486245008214" lon="12.106085846161635"><ele>-2.0</ele><time>2026-04-25T10:54:09Z</time></trkpt><trkpt lat="44.639610987173526" lon="12.106171171357994"><ele>-2.0</ele><time>2026-04-25T10:54:10Z</time></trkpt><trkpt lat="44.63973029918609" lon="12.106251630839404"><ele>-2.0</ele><time>2026-04-25T10:54:11Z</time></trkpt><trkpt lat="44.639848823301854" lon="12.106333200501155"><ele>-2.0</ele><time>2026-04-25T10:54:12Z</time></trkpt><trkpt lat="44.63996923413995" lon="12.10641654126879"><ele>-2.0</ele><time>2026-04-25T10:54:13Z</time></trkpt><trkpt lat="44.640090856336215" lon="12.106501422941571"><ele>-2.0</ele><time>2026-04-25T10:54:14Z</time></trkpt><trkpt lat="44.64021668738658" lon="12.106591142580216"><ele>-2.0</ele><time>2026-04-25T10:54:15Z</time></trkpt><trkpt lat="44.640345747195795" lon="12.10668397707594"><ele>-2.0</ele><time>2026-04-25T10:54:16Z</time></trkpt><trkpt lat="44.64047361596767" lon="12.10677417680865"><ele>-2.0</ele><time>2026-04-25T10:54:17Z</time></trkpt><trkpt lat="44.640598832082844" lon="12.106860118322711"><ele>-2.0</ele><time>2026-04-25T10:54:18Z</time></trkpt><trkpt lat="44.64072650118508" lon="12.10694565487333"><ele>-2.0</ele><time>2026-04-25T10:54:19Z</time></trkpt><trkpt lat="44.64084676733749" lon="12.107027928893528"><ele>-2.0</ele><time>2026-04-25T10:54:20Z</time></trkpt><trkpt lat="44.640963035580114" lon="12.107107503362181"><ele>-2.0</ele><time>2026-04-25T10:54:21Z</time></trkpt><trkpt lat="44.64108080203176" lon="12.107186472782594"><ele>-2.0</ele><time>2026-04-25T10:54:22Z</time></trkpt><trkpt lat="44.641203406280404" lon="12.107267741333528"><ele>-2.25</ele><time>2026-04-25T10:54:23Z</time></trkpt><trkpt lat="44.64133213509508" lon="12.107351736968694"><ele>-2.5</ele><time>2026-04-25T10:54:24Z</time></trkpt><trkpt lat="44.64146843005347" lon="12.107438152858336"><ele>-2.75</ele><time>2026-04-25T10:54:25Z</time></trkpt><trkpt lat="44.64161017131742" lon="12.10752731215"><ele>-3.0</ele><time>2026-04-25T10:54:26Z</time></trkpt><trkpt lat="44.64175760805399" lon="12.107612408654006"><ele>-3.0</ele><time>2026-04-25T10:54:27Z</time></trkpt><trkpt lat="44.64191350068347" lon="12.107691452819457"><ele>-3.0</ele><time>2026-04-25T10:54:28Z</time></trkpt><trkpt lat="44.6420763769893" lon="12.107760503743533"><ele>-3.0</ele><time>2026-04-25T10:54:29Z</time></trkpt><trkpt lat="44.64224444201774" lon="12.107820451056918"><ele>-2.6666666666666665</ele><time>2026-04-25T10:54:30Z</time></trkpt><trkpt lat="44.6424092396037" lon="12.107868502214533"><ele>-2.333333333333333</ele><time>2026-04-25T10:54:31Z</time></trkpt><trkpt lat="44.64257810193114" lon="12.107904797026736"><ele>-2.0</ele><time>2026-04-25T10:54:32Z</time></trkpt><trkpt lat="44.64274731211396" lon="12.107952322535372"><ele>-1.6666666666666665</ele><time>2026-04-25T10:54:33Z</time></trkpt><trkpt lat="44.642923955612574" lon="12.107948420931297"><ele>-1.3333333333333333</ele><time>2026-04-25T10:54:34Z</time></trkpt><trkpt lat="44.6431001289334" lon="12.107962515159514"><ele>-1.0</ele><time>2026-04-25T10:54:35Z</time></trkpt><trkpt lat="44.643277608713554" lon="12.107965709086852"><ele>-1.0</ele><time>2026-04-25T10:54:36Z</time></trkpt><trkpt lat="44.64345669481479" lon="12.107957259464621"><ele>-1.0</ele><time>2026-04-25T10:54:37Z</time></trkpt><trkpt lat="44.64363362732126" lon="12.107937627061597"><ele>-1.0</ele><time>2026-04-25T10:54:38Z</time></trkpt><trkpt lat="44.64380773469035" lon="12.107908508586407"><ele>-1.3333333333333333</ele><time>2026-04-25T10:54:39Z</time></trkpt><trkpt lat="44.643978305969306" lon="12.107877919549454"><ele>-1.6666666666666665</ele><time>2026-04-25T10:54:40Z</time></trkpt><trkpt lat="44.64414794750987" lon="12.10785058026883"><ele>-2.0</ele><time>2026-04-25T10:54:41Z</time></trkpt><trkpt lat="44.64431861176646" lon="12.10782303906182"><ele>-1.6666666666666665</ele><time>2026-04-25T10:54:42Z</time></trkpt><trkpt lat="44.64449061001338" lon="12.107796667290835"><ele>-1.3333333333333333</ele><time>2026-04-25T10:54:43Z</time></trkpt><trkpt lat="44.64466409098287" lon="12.107770859138396"><ele>-1.0</ele><time>2026-04-25T10:54:44Z</time></trkpt><trkpt lat="44.64483995037313" lon="12.10774359404487"><ele>-1.0</ele><time>2026-04-25T10:54:45Z</time></trkpt><trkpt lat="44.64501626014636" lon="12.107718587549092"><ele>-1.0</ele><time>2026-04-25T10:54:46Z</time></trkpt><trkpt lat="44.64519444475715" lon="12.107692986989122"><ele>-1.0</ele><time>2026-04-25T10:54:47Z</time></trkpt><trkpt lat="44.64537296987143" lon="12.107668621973303"><ele>-1.3333333333333333</ele><time>2026-04-25T10:54:48Z</time></trkpt><trkpt lat="44.64555392612796" lon="12.107642655074148"><ele>-1.6666666666666665</ele><time>2026-04-25T10:54:49Z</time></trkpt><trkpt lat="44.64573161363838" lon="12.107614376871284"><ele>-2.0</ele><time>2026-04-25T10:54:50Z</time></trkpt><trkpt lat="44.645900116286064" lon="12.107584494638358"><ele>-2.0</ele><time>2026-04-25T10:54:51Z</time></trkpt><trkpt lat="44.646068198204816" lon="12.107554900728344"><ele>-2.0</ele><time>2026-04-25T10:54:52Z</time></trkpt><trkpt lat="44.64623538829788" lon="12.107527682477325"><ele>-2.0</ele><time>2026-04-25T10:54:53Z</time></trkpt><trkpt lat="44.64640314166678" lon="12.1075014980061"><ele>-2.333333333333333</ele><time>2026-04-25T10:54:54Z</time></trkpt><trkpt lat="44.646573947982354" lon="12.107479075239906"><ele>-2.6666666666666665</ele><time>2026-04-25T10:54:55Z</time></trkpt><trkpt lat="44.64674364733633" lon="12.107459559511074"><ele>-3.0</ele><time>2026-04-25T10:54:56Z</time></trkpt><trkpt lat="44.64691160900881" lon="12.107436617765183"><ele>-2.6666666666666665</ele><time>2026-04-25T10:54:57Z</time></trkpt><trkpt lat="44.647082878749835" lon="12.10741193900433"><ele>-2.333333333333333</ele><time>2026-04-25T10:54:58Z</time></trkpt><trkpt lat="44.64725511552157" lon="12.107387821255994"><ele>-2.0</ele><time>2026-04-25T10:54:59Z</time></trkpt><trkpt lat="44.64742981736042" lon="12.107363082341632"><ele>-1.6666666666666665</ele><time>2026-04-25T10:55:00Z</time></trkpt><trkpt lat="44.64760331175169" lon="12.10733758472277"><ele>-1.3333333333333333</ele><time>2026-04-25T10:55:01Z</time></trkpt><trkpt lat="44.64777695517313" lon="12.107312940314609"><ele>-1.0</ele><time>2026-04-25T10:55:02Z</time></trkpt><trkpt lat="44.64794869998427" lon="12.107288536399949"><ele>-0.6666666666666666</ele><time>2026-04-25T10:55:03Z</time></trkpt><trkpt lat="44.64811294088561" lon="12.107261792609219"><ele>-0.3333333333333333</ele><time>2026-04-25T10:55:04Z</time></trkpt><trkpt lat="44.648280635081896" lon="12.107232936962703"><ele>0.0</ele><time>2026-04-25T10:55:05Z</time></trkpt><trkpt lat="44.64844854201293" lon="12.107206387000556"><ele>0.0</ele><time>2026-04-25T10:55:06Z</time></trkpt><trkpt lat="44.648616089252585" lon="12.107182145690913"><ele>0.0</ele><time>2026-04-25T10:55:07Z</time></trkpt><trkpt lat="44.64878565658386" lon="12.107160053222172"><ele>0.0</ele><time>2026-04-25T10:55:08Z</time></trkpt><trkpt lat="44.648954169042845" lon="12.10713672787769"><ele>0.0</ele><time>2026-04-25T10:55:09Z</time></trkpt><trkpt lat="44.64912371165134" lon="12.107109813723827"><ele>0.0</ele><time>2026-04-25T10:55:10Z</time></trkpt><trkpt lat="44.64929476298894" lon="12.107082209783263"><ele>0.0</ele><time>2026-04-25T10:55:11Z</time></trkpt><trkpt lat="44.64946651130737" lon="12.107056691861748"><ele>-0.6666666666666666</ele><time>2026-04-25T10:55:12Z</time></trkpt><trkpt lat="44.6496393384289" lon="12.107031845029463"><ele>-1.3333333333333333</ele><time>2026-04-25T10:55:13Z</time></trkpt><trkpt lat="44.649813533190645" lon="12.107005331950825"><ele>-2.0</ele><time>2026-04-25T10:55:14Z</time></trkpt><trkpt lat="44.64999070332826" lon="12.106978921677475"><ele>-2.0</ele><time>2026-04-25T10:55:15Z</time></trkpt><trkpt lat="44.65016987911094" lon="12.106952032029016"><ele>-2.0</ele><time>2026-04-25T10:55:16Z</time></trkpt><trkpt lat="44.65035100683713" lon="12.106923182416923"><ele>-2.0</ele><time>2026-04-25T10:55:17Z</time></trkpt><trkpt lat="44.65053412506198" lon="12.106893651599853"><ele>-2.0</ele><time>2026-04-25T10:55:18Z</time></trkpt><trkpt lat="44.65072123196336" lon="12.106865581943683"><ele>-2.0</ele><time>2026-04-25T10:55:19Z</time></trkpt><trkpt lat="44.65090996535986" lon="12.10683942670295"><ele>-2.0</ele><time>2026-04-25T10:55:20Z</time></trkpt><trkpt lat="44.65109928703784" lon="12.106811172341704"><ele>-1.6666666666666665</ele><time>2026-04-25T10:55:21Z</time></trkpt><trkpt lat="44.65127637367034" lon="12.106782350908006"><ele>-1.3333333333333333</ele><time>2026-04-25T10:55:22Z</time></trkpt><trkpt lat="44.651443485571804" lon="12.10675755357409"><ele>-1.0</ele><time>2026-04-25T10:55:23Z</time></trkpt><trkpt lat="44.65160974345061" lon="12.1067331165971"><ele>-1.0</ele><time>2026-04-25T10:55:24Z</time></trkpt><trkpt lat="44.651770470164905" lon="12.106708478765063"><ele>-1.0</ele><time>2026-04-25T10:55:25Z</time></trkpt><trkpt lat="44.65192737398301" lon="12.106687228756796"><ele>-1.0</ele><time>2026-04-25T10:55:26Z</time></trkpt><trkpt lat="44.65206783276501" lon="12.106668522922135"><ele>-0.8</ele><time>2026-04-25T10:55:27Z</time></trkpt><trkpt lat="44.652186194092934" lon="12.106671644823487"><ele>-0.6000000000000001</ele><time>2026-04-25T10:55:28Z</time></trkpt><trkpt lat="44.65228643818108" lon="12.106673827143661"><ele>-0.4</ele><time>2026-04-25T10:55:29Z</time></trkpt><trkpt lat="44.6523752102252" lon="12.106679592589497"><ele>-0.2</ele><time>2026-04-25T10:55:30Z</time></trkpt><trkpt lat="44.65246244661581" lon="12.106688868461239"><ele>0.0</ele><time>2026-04-25T10:55:31Z</time></trkpt><trkpt lat="44.65255293869247" lon="12.106698302531445"><ele>0.0</ele><time>2026-04-25T10:55:32Z</time></trkpt><trkpt lat="44.65265121999799" lon="12.106712827906557"><ele>0.0</ele><time>2026-04-25T10:55:33Z</time></trkpt><trkpt lat="44.6527685861351" lon="12.106723784732823"><ele>0.0</ele><time>2026-04-25T10:55:34Z</time></trkpt><trkpt lat="44.652897190179594" lon="12.10675201626061"><ele>0.0</ele><time>2026-04-25T10:55:35Z</time></trkpt><trkpt lat="44.65302764914004" lon="12.106782356057375"><ele>0.0</ele><time>2026-04-25T10:55:36Z</time></trkpt><trkpt lat="44.65316821424048" lon="12.106820661469873"><ele>0.0</ele><time>2026-04-25T10:55:37Z</time></trkpt><trkpt lat="44.6533160792867" lon="12.106864758525397"><ele>0.0</ele><time>2026-04-25T10:55:38Z</time></trkpt><trkpt lat="44.65346003450512" lon="12.10692379743856"><ele>0.0</ele><time>2026-04-25T10:55:39Z</time></trkpt><trkpt lat="44.65360220852184" lon="12.106986162306434"><ele>-1.0</ele><time>2026-04-25T10:55:40Z</time></trkpt><trkpt lat="44.65374837837076" lon="12.10706255959435"><ele>-2.0</ele><time>2026-04-25T10:55:41Z</time></trkpt><trkpt lat="44.65390314353636" lon="12.107142588521691"><ele>-3.0</ele><time>2026-04-25T10:55:42Z</time></trkpt><trkpt lat="44.65406009031866" lon="12.107229491777332"><ele>-3.0</ele><time>2026-04-25T10:55:43Z</time></trkpt><trkpt lat="44.65421501293449" lon="12.107319094841515"><ele>-3.0</ele><time>2026-04-25T10:55:44Z</time></trkpt><trkpt lat="44.654367124260474" lon="12.107417613096008"><ele>-3.0</ele><time>2026-04-25T10:55:45Z</time></trkpt><trkpt lat="44.654515273040154" lon="12.10752156937323"><ele>-2.6666666666666665</ele><time>2026-04-25T10:55:46Z</time></trkpt><trkpt lat="44.6546610453856" lon="12.107634712740579"><ele>-2.333333333333333</ele><time>2026-04-25T10:55:47Z</time></trkpt><trkpt lat="44.654807826540065" lon="12.107755433403078"><ele>-2.0</ele><time>2026-04-25T10:55:48Z</time></trkpt><trkpt lat="44.654954900940304" lon="12.107885178963157"><ele>-2.0</ele><time>2026-04-25T10:55:49Z</time></trkpt><trkpt lat="44.65510019382513" lon="12.108021725885159"><ele>-2.0</ele><time>2026-04-25T10:55:50Z</time></trkpt><trkpt lat="44.65524294026505" lon="12.108165624682151"><ele>-2.0</ele><time>2026-04-25T10:55:51Z</time></trkpt><trkpt lat="44.65537998457568" lon="12.108318483703075"><ele>-2.0</ele><time>2026-04-25T10:55:52Z</time></trkpt><trkpt lat="44.655511613067574" lon="12.108484172146275"><ele>-2.0</ele><time>2026-04-25T10:55:53Z</time></trkpt><trkpt lat="44.655645055242736" lon="12.108658167551459"><ele>-2.0</ele><time>2026-04-25T10:55:54Z</time></trkpt><trkpt lat="44.65577538656613" lon="12.108844684568174"><ele>-2.0</ele><time>2026-04-25T10:55:55Z</time></trkpt><trkpt lat="44.65590992121386" lon="12.109032396733829"><ele>-2.0</ele><time>2026-04-25T10:55:56Z</time></trkpt><trkpt lat="44.65603384706313" lon="12.10921914921509"><ele>-2.0</ele><time>2026-04-25T10:55:57Z</time></trkpt><trkpt lat="44.65616277898027" lon="12.109417474458278"><ele>-1.6666666666666665</ele><time>2026-04-25T10:55:58Z</time></trkpt><trkpt lat="44.65628867167695" lon="12.109616624280422"><ele>-1.3333333333333333</ele><time>2026-04-25T10:55:59Z</time></trkpt><trkpt lat="44.65641066777792" lon="12.109808108270943"><ele>-1.0</ele><time>2026-04-25T10:56:00Z</time></trkpt><trkpt lat="44.65653431183307" lon="12.110002406687085"><ele>-0.6666666666666666</ele><time>2026-04-25T10:56:01Z</time></trkpt><trkpt lat="44.65666142389414" lon="12.110196837601118"><ele>-0.3333333333333333</ele><time>2026-04-25T10:56:02Z</time></trkpt><trkpt lat="44.656792739976375" lon="12.110394468870615"><ele>0.0</ele><time>2026-04-25T10:56:03Z</time></trkpt><trkpt lat="44.6569249996905" lon="12.11059665928706"><ele>-0.6666666666666666</ele><time>2026-04-25T10:56:04Z</time></trkpt><trkpt lat="44.65705677019578" lon="12.110802987470924"><ele>-1.3333333333333333</ele><time>2026-04-25T10:56:05Z</time></trkpt><trkpt lat="44.65718581380314" lon="12.111006274323891"><ele>-2.0</ele><time>2026-04-25T10:56:06Z</time></trkpt><trkpt lat="44.657313001061354" lon="12.111202198909062"><ele>-2.0</ele><time>2026-04-25T10:56:07Z</time></trkpt><trkpt lat="44.65743952676332" lon="12.111394400366894"><ele>-2.0</ele><time>2026-04-25T10:56:08Z</time></trkpt><trkpt lat="44.657566913995254" lon="12.11157918529381"><ele>-2.0</ele><time>2026-04-25T10:56:09Z</time></trkpt><trkpt lat="44.65769865571376" lon="12.111754590436453"><ele>-2.0</ele><time>2026-04-25T10:56:10Z</time></trkpt><trkpt lat="44.65783411486739" lon="12.111921999393383"><ele>-2.0</ele><time>2026-04-25T10:56:11Z</time></trkpt><trkpt lat="44.657973871623554" lon="12.1120832960207"><ele>-2.0</ele><time>2026-04-25T10:56:12Z</time></trkpt><trkpt lat="44.65811867894626" lon="12.11223583657467"><ele>-2.0</ele><time>2026-04-25T10:56:13Z</time></trkpt><trkpt lat="44.65826868078952" lon="12.112387298274529"><ele>-2.0</ele><time>2026-04-25T10:56:14Z</time></trkpt><trkpt lat="44.65842360830504" lon="12.112540641056762"><ele>-2.0</ele><time>2026-04-25T10:56:15Z</time></trkpt><trkpt lat="44.65858114504504" lon="12.112696172140476"><ele>-2.333333333333333</ele><time>2026-04-25T10:56:16Z</time></trkpt><trkpt lat="44.65874311807694" lon="12.112854834525384"><ele>-2.6666666666666665</ele><time>2026-04-25T10:56:17Z</time></trkpt><trkpt lat="44.65890649965919" lon="12.113016055956091"><ele>-3.0</ele><time>2026-04-25T10:56:18Z</time></trkpt><trkpt lat="44.6590766311035" lon="12.113176383318546"><ele>-3.0</ele><time>2026-04-25T10:56:19Z</time></trkpt><trkpt lat="44.659246497971886" lon="12.113340294714819"><ele>-3.0</ele><time>2026-04-25T10:56:20Z</time></trkpt><trkpt lat="44.65942018360482" lon="12.11350706485114"><ele>-3.0</ele><time>2026-04-25T10:56:21Z</time></trkpt><trkpt lat="44.659590529513025" lon="12.113672421881173"><ele>-3.0</ele><time>2026-04-25T10:56:22Z</time></trkpt><trkpt lat="44.659760000377545" lon="12.113837541254094"><ele>-3.0</ele><time>2026-04-25T10:56:23Z</time></trkpt><trkpt lat="44.65993084962182" lon="12.11399683063976"><ele>-3.0</ele><time>2026-04-25T10:56:24Z</time></trkpt><trkpt lat="44.66009762239115" lon="12.114156945247451"><ele>-3.0</ele><time>2026-04-25T10:56:25Z</time></trkpt><trkpt lat="44.66026471491458" lon="12.11431682485693"><ele>-3.0</ele><time>2026-04-25T10:56:26Z</time></trkpt><trkpt lat="44.660428913804026" lon="12.114475354924329"><ele>-3.0</ele><time>2026-04-25T10:56:27Z</time></trkpt><trkpt lat="44.66059816421995" lon="12.114633158869317"><ele>-2.6666666666666665</ele><time>2026-04-25T10:56:28Z</time></trkpt><trkpt lat="44.66075340872372" lon="12.114788701580844"><ele>-2.333333333333333</ele><time>2026-04-25T10:56:29Z</time></trkpt><trkpt lat="44.66090350769908" lon="12.114934698054501"><ele>-2.0</ele><time>2026-04-25T10:56:30Z</time></trkpt><trkpt lat="44.66104743385593" lon="12.115072842462668"><ele>-1.6666666666666665</ele><time>2026-04-25T10:56:31Z</time></trkpt><trkpt lat="44.66118726871165" lon="12.115207282787562"><ele>-1.3333333333333333</ele><time>2026-04-25T10:56:32Z</time></trkpt><trkpt lat="44.661322922832625" lon="12.115330713370119"><ele>-1.0</ele><time>2026-04-25T10:56:33Z</time></trkpt><trkpt lat="44.66145494138108" lon="12.115448326004149"><ele>-1.0</ele><time>2026-04-25T10:56:34Z</time></trkpt><trkpt lat="44.66158511137601" lon="12.11554934121494"><ele>-1.0</ele><time>2026-04-25T10:56:35Z</time></trkpt><trkpt lat="44.6617217249667" lon="12.115640219686085"><ele>-1.0</ele><time>2026-04-25T10:56:36Z</time></trkpt><trkpt lat="44.661861106460464" lon="12.115719057856493"><ele>-0.75</ele><time>2026-04-25T10:56:37Z</time></trkpt><trkpt lat="44.662005012035685" lon="12.115783631862207"><ele>-0.5</ele><time>2026-04-25T10:56:38Z</time></trkpt><trkpt lat="44.66214951441663" lon="12.115831107402368"><ele>-0.25</ele><time>2026-04-25T10:56:39Z</time></trkpt><trkpt lat="44.66229289749848" lon="12.115863140216089"><ele>0.0</ele><time>2026-04-25T10:56:40Z</time></trkpt><trkpt lat="44.66243690457208" lon="12.115874294362053"><ele>0.0</ele><time>2026-04-25T10:56:41Z</time></trkpt><trkpt lat="44.66257934431408" lon="12.115879079419202"><ele>0.0</ele><time>2026-04-25T10:56:42Z</time></trkpt><trkpt lat="44.66272299448071" lon="12.11586587346315"><ele>0.0</ele><time>2026-04-25T10:56:43Z</time></trkpt><trkpt lat="44.66287239063444" lon="12.115834147999518"><ele>0.0</ele><time>2026-04-25T10:56:44Z</time></trkpt><trkpt lat="44.66302727879829" lon="12.115778830744864"><ele>-0.6666666666666666</ele><time>2026-04-25T10:56:45Z</time></trkpt><trkpt lat="44.66318229353573" lon="12.115713141438528"><ele>-1.3333333333333333</ele><time>2026-04-25T10:56:46Z</time></trkpt><trkpt lat="44.66333897046116" lon="12.115632286556798"><ele>-2.0</ele><time>2026-04-25T10:56:47Z</time></trkpt><trkpt lat="44.66349367508862" lon="12.115530040744362"><ele>-2.333333333333333</ele><time>2026-04-25T10:56:48Z</time></trkpt><trkpt lat="44.66364392017255" lon="12.115412051984716"><ele>-2.6666666666666665</ele><time>2026-04-25T10:56:49Z</time></trkpt><trkpt lat="44.663792961805825" lon="12.115281147203229"><ele>-3.0</ele><time>2026-04-25T10:56:50Z</time></trkpt><trkpt lat="44.663941513734876" lon="12.115147997598097"><ele>-3.0</ele><time>2026-04-25T10:56:51Z</time></trkpt><trkpt lat="44.664089486762315" lon="12.11501192900946"><ele>-3.0</ele><time>2026-04-25T10:56:52Z</time></trkpt><trkpt lat="44.66423763778984" lon="12.11488029200074"><ele>-3.0</ele><time>2026-04-25T10:56:53Z</time></trkpt><trkpt lat="44.66438644934279" lon="12.114747298958104"><ele>-3.0</ele><time>2026-04-25T10:56:54Z</time></trkpt><trkpt lat="44.66453740258231" lon="12.114615651575807"><ele>-3.0</ele><time>2026-04-25T10:56:55Z</time></trkpt><trkpt lat="44.66469024420567" lon="12.11448184310832"><ele>-3.0</ele><time>2026-04-25T10:56:56Z</time></trkpt><trkpt lat="44.66484324895775" lon="12.114349672172908"><ele>-3.0</ele><time>2026-04-25T10:56:57Z</time></trkpt><trkpt lat="44.664996816278986" lon="12.114217314422483"><ele>-3.0</ele><time>2026-04-25T10:56:58Z</time></trkpt><trkpt lat="44.66515223015201" lon="12.114086385126862"><ele>-3.0</ele><time>2026-04-25T10:56:59Z</time></trkpt><trkpt lat="44.665306700677014" lon="12.113949258607226"><ele>-3.0</ele><time>2026-04-25T10:57:00Z</time></trkpt><trkpt lat="44.66546065853651" lon="12.113809458832842"><ele>-3.0</ele><time>2026-04-25T10:57:01Z</time></trkpt><trkpt lat="44.66561785287712" lon="12.113671538831868"><ele>-3.0</ele><time>2026-04-25T10:57:02Z</time></trkpt><trkpt lat="44.66577644563246" lon="12.113536043602142"><ele>-3.0</ele><time>2026-04-25T10:57:03Z</time></trkpt><trkpt lat="44.66593688270695" lon="12.113400491416796"><ele>-3.0</ele><time>2026-04-25T10:57:04Z</time></trkpt><trkpt lat="44.66609754460663" lon="12.113260807176268"><ele>-3.0</ele><time>2026-04-25T10:57:05Z</time></trkpt><trkpt lat="44.66626080134624" lon="12.1131183526127"><ele>-2.6666666666666665</ele><time>2026-04-25T10:57:06Z</time></trkpt><trkpt lat="44.66642472048254" lon="12.112973943273985"><ele>-2.333333333333333</ele><time>2026-04-25T10:57:07Z</time></trkpt><trkpt lat="44.66659097962663" lon="12.112828558941755"><ele>-2.0</ele><time>2026-04-25T10:57:08Z</time></trkpt><trkpt lat="44.66675965702274" lon="12.112681295288173"><ele>-2.0</ele><time>2026-04-25T10:57:09Z</time></trkpt><trkpt lat="44.666927282516475" lon="12.112531349174509"><ele>-2.0</ele><time>2026-04-25T10:57:10Z</time></trkpt><trkpt lat="44.667095290722116" lon="12.112381507839649"><ele>-2.0</ele><time>2026-04-25T10:57:11Z</time></trkpt><trkpt lat="44.667252508971536" lon="12.112237196578976"><ele>-2.333333333333333</ele><time>2026-04-25T10:57:12Z</time></trkpt><trkpt lat="44.66740533525667" lon="12.112094795896542"><ele>-2.6666666666666665</ele><time>2026-04-25T10:57:13Z</time></trkpt><trkpt lat="44.66756058259899" lon="12.111954574018702"><ele>-3.0</ele><time>2026-04-25T10:57:14Z</time></trkpt><trkpt lat="44.667715628319954" lon="12.111815270760554"><ele>-3.0</ele><time>2026-04-25T10:57:15Z</time></trkpt><trkpt lat="44.667872090687645" lon="12.111677315729647"><ele>-3.0</ele><time>2026-04-25T10:57:16Z</time></trkpt><trkpt lat="44.66802934754168" lon="12.111546990587064"><ele>-3.0</ele><time>2026-04-25T10:57:17Z</time></trkpt><trkpt lat="44.66818244053917" lon="12.111427346290915"><ele>-3.0</ele><time>2026-04-25T10:57:18Z</time></trkpt><trkpt lat="44.66832891863628" lon="12.111315781796828"><ele>-3.0</ele><time>2026-04-25T10:57:19Z</time></trkpt><trkpt lat="44.668471096530446" lon="12.111211980914806"><ele>-3.0</ele><time>2026-04-25T10:57:20Z</time></trkpt><trkpt lat="44.668607723099306" lon="12.11111760131639"><ele>-2.75</ele><time>2026-04-25T10:57:21Z</time></trkpt><trkpt lat="44.668738220045576" lon="12.11102324217576"><ele>-2.5</ele><time>2026-04-25T10:57:22Z</time></trkpt><trkpt lat="44.668864565306414" lon="12.110931480858978"><ele>-2.25</ele><time>2026-04-25T10:57:23Z</time></trkpt><trkpt lat="44.668995860402845" lon="12.110846007494171"><ele>-2.0</ele><time>2026-04-25T10:57:24Z</time></trkpt><trkpt lat="44.66912520813637" lon="12.11075511745468"><ele>-2.0</ele><time>2026-04-25T10:57:25Z</time></trkpt><trkpt lat="44.66925018059575" lon="12.110665006021673"><ele>-2.0</ele><time>2026-04-25T10:57:26Z</time></trkpt><trkpt lat="44.66937579075645" lon="12.110573775082399"><ele>-2.0</ele><time>2026-04-25T10:57:27Z</time></trkpt><trkpt lat="44.66949756650416" lon="12.110482294551245"><ele>-2.0</ele><time>2026-04-25T10:57:28Z</time></trkpt><trkpt lat="44.66960581921578" lon="12.110401782621091"><ele>-1.8</ele><time>2026-04-25T10:57:29Z</time></trkpt><trkpt lat="44.669705447508555" lon="12.110327823535656"><ele>-1.6</ele><time>2026-04-25T10:57:30Z</time></trkpt><trkpt lat="44.66979957746706" lon="12.110264084198771"><ele>-1.4000000000000001</ele><time>2026-04-25T10:57:31Z</time></trkpt><trkpt lat="44.66988608758222" lon="12.110209794225923"><ele>-1.2000000000000002</ele><time>2026-04-25T10:57:32Z</time></trkpt><trkpt lat="44.66996580155895" lon="12.110169334898462"><ele>-1.0</ele><time>2026-04-25T10:57:33Z</time></trkpt><trkpt lat="44.67004165170511" lon="12.110149449434784"><ele>-1.0</ele><time>2026-04-25T10:57:34Z</time></trkpt><trkpt lat="44.67012095095435" lon="12.110163159189183"><ele>-1.0</ele><time>2026-04-25T10:57:35Z</time></trkpt><trkpt lat="44.67024825931566" lon="12.110311391641988"><ele>-1.0</ele><time>2026-04-25T10:57:37Z</time></trkpt><trkpt lat="44.67029633993167" lon="12.110430474028473"><ele>-1.0</ele><time>2026-04-25T10:57:38Z</time></trkpt><trkpt lat="44.67033270911782" lon="12.110562363444293"><ele>-1.0</ele><time>2026-04-25T10:57:39Z</time></trkpt><trkpt lat="44.67037169751055" lon="12.110715963683154"><ele>-1.75</ele><time>2026-04-25T10:57:40Z</time></trkpt><trkpt lat="44.67041555911741" lon="12.110882796288031"><ele>-2.5</ele><time>2026-04-25T10:57:41Z</time></trkpt><trkpt lat="44.67046345505414" lon="12.111060043328433"><ele>-3.25</ele><time>2026-04-25T10:57:42Z</time></trkpt><trkpt lat="44.6705145850358" lon="12.111248904528003"><ele>-4.0</ele><time>2026-04-25T10:57:43Z</time></trkpt><trkpt lat="44.67056889390747" lon="12.111446463912248"><ele>-3.6666666666666665</ele><time>2026-04-25T10:57:44Z</time></trkpt><trkpt lat="44.67062221434261" lon="12.111642140349193"><ele>-3.333333333333333</ele><time>2026-04-25T10:57:45Z</time></trkpt><trkpt lat="44.67067691107825" lon="12.111844658006147"><ele>-3.0</ele><time>2026-04-25T10:57:46Z</time></trkpt><trkpt lat="44.670735588519385" lon="12.112055017590537"><ele>-3.0</ele><time>2026-04-25T10:57:47Z</time></trkpt><trkpt lat="44.67079472525297" lon="12.112273548026085"><ele>-3.0</ele><time>2026-04-25T10:57:48Z</time></trkpt><trkpt lat="44.67085196487742" lon="12.112497870981798"><ele>-3.0</ele><time>2026-04-25T10:57:49Z</time></trkpt><trkpt lat="44.670910999400434" lon="12.112725347947901"><ele>-3.0</ele><time>2026-04-25T10:57:50Z</time></trkpt><trkpt lat="44.67097372245926" lon="12.112958931654935"><ele>-3.0</ele><time>2026-04-25T10:57:51Z</time></trkpt><trkpt lat="44.671039960735285" lon="12.11319634840922"><ele>-3.0</ele><time>2026-04-25T10:57:52Z</time></trkpt><trkpt lat="44.67110814381612" lon="12.113443227174383"><ele>-3.0</ele><time>2026-04-25T10:57:53Z</time></trkpt><trkpt lat="44.671178766091636" lon="12.113699520895429"><ele>-3.0</ele><time>2026-04-25T10:57:54Z</time></trkpt><trkpt lat="44.67124881720691" lon="12.11395449959774"><ele>-3.0</ele><time>2026-04-25T10:57:55Z</time></trkpt><trkpt lat="44.67132161180282" lon="12.114217787894749"><ele>-3.333333333333333</ele><time>2026-04-25T10:57:56Z</time></trkpt><trkpt lat="44.67139415346673" lon="12.114478400741906"><ele>-3.6666666666666665</ele><time>2026-04-25T10:57:57Z</time></trkpt><trkpt lat="44.671462760895885" lon="12.114733448905366"><ele>-4.0</ele><time>2026-04-25T10:57:58Z</time></trkpt><trkpt lat="44.67153428613611" lon="12.114994011923974"><ele>-4.0</ele><time>2026-04-25T10:57:59Z</time></trkpt><trkpt lat="44.67160405596491" lon="12.115253503012806"><ele>-4.0</ele><time>2026-04-25T10:58:00Z</time></trkpt><trkpt lat="44.67167213478094" lon="12.115510702267057"><ele>-4.0</ele><time>2026-04-25T10:58:01Z</time></trkpt><trkpt lat="44.671740451841735" lon="12.11576536305995"><ele>-4.0</ele><time>2026-04-25T10:58:02Z</time></trkpt><trkpt lat="44.67180589044514" lon="12.116020499252961"><ele>-4.0</ele><time>2026-04-25T10:58:03Z</time></trkpt><trkpt lat="44.67187352441806" lon="12.116270957923868"><ele>-4.0</ele><time>2026-04-25T10:58:04Z</time></trkpt><trkpt lat="44.67194256093191" lon="12.116519696207126"><ele>-3.6666666666666665</ele><time>2026-04-25T10:58:05Z</time></trkpt><trkpt lat="44.67201121462721" lon="12.116763564186874"><ele>-3.333333333333333</ele><time>2026-04-25T10:58:06Z</time></trkpt><trkpt lat="44.67208009358653" lon="12.117015064637451"><ele>-3.0</ele><time>2026-04-25T10:58:07Z</time></trkpt><trkpt lat="44.67214636337148" lon="12.117259969572055"><ele>-2.6666666666666665</ele><time>2026-04-25T10:58:08Z</time></trkpt><trkpt lat="44.672211467589264" lon="12.117506094114075"><ele>-2.333333333333333</ele><time>2026-04-25T10:58:09Z</time></trkpt><trkpt lat="44.67227847291516" lon="12.117753344340262"><ele>-2.0</ele><time>2026-04-25T10:58:10Z</time></trkpt><trkpt lat="44.672342341173966" lon="12.118000799834729"><ele>-1.6666666666666665</ele><time>2026-04-25T10:58:11Z</time></trkpt><trkpt lat="44.67240892530804" lon="12.11825203602551"><ele>-1.3333333333333333</ele><time>2026-04-25T10:58:12Z</time></trkpt><trkpt lat="44.67247717256739" lon="12.118506616147988"><ele>-1.0</ele><time>2026-04-25T10:58:13Z</time></trkpt><trkpt lat="44.672546886510816" lon="12.118764798216858"><ele>-1.0</ele><time>2026-04-25T10:58:14Z</time></trkpt><trkpt lat="44.67261694131251" lon="12.119025053497245"><ele>-1.0</ele><time>2026-04-25T10:58:15Z</time></trkpt><trkpt lat="44.67268783161458" lon="12.11928683107881"><ele>-1.0</ele><time>2026-04-25T10:58:16Z</time></trkpt><trkpt lat="44.67275841767776" lon="12.119546161623177"><ele>-1.3333333333333333</ele><time>2026-04-25T10:58:17Z</time></trkpt><trkpt lat="44.67282487530331" lon="12.119798621715878"><ele>-1.6666666666666665</ele><time>2026-04-25T10:58:18Z</time></trkpt><trkpt lat="44.67289280088291" lon="12.120049874033922"><ele>-2.0</ele><time>2026-04-25T10:58:19Z</time></trkpt><trkpt lat="44.67296173443101" lon="12.12030050275497"><ele>-2.0</ele><time>2026-04-25T10:58:20Z</time></trkpt><trkpt lat="44.673031881421856" lon="12.120546539035333"><ele>-2.0</ele><time>2026-04-25T10:58:21Z</time></trkpt><trkpt lat="44.67309919842151" lon="12.120795567525343"><ele>-2.0</ele><time>2026-04-25T10:58:22Z</time></trkpt><trkpt lat="44.67316514041133" lon="12.121050472716586"><ele>-2.333333333333333</ele><time>2026-04-25T10:58:23Z</time></trkpt><trkpt lat="44.673229860156056" lon="12.121303105802456"><ele>-2.6666666666666665</ele><time>2026-04-25T10:58:24Z</time></trkpt><trkpt lat="44.67329602650006" lon="12.121549203542143"><ele>-3.0</ele><time>2026-04-25T10:58:25Z</time></trkpt><trkpt lat="44.67336553656034" lon="12.121816498014713"><ele>-3.0</ele><time>2026-04-25T10:58:26Z</time></trkpt><trkpt lat="44.67343591912103" lon="12.12207707983982"><ele>-3.0</ele><time>2026-04-25T10:58:27Z</time></trkpt><trkpt lat="44.67350147066872" lon="12.122319482948512"><ele>-3.0</ele><time>2026-04-25T10:58:28Z</time></trkpt><trkpt lat="44.673567778055414" lon="12.12255497690041"><ele>-2.6666666666666665</ele><time>2026-04-25T10:58:29Z</time></trkpt><trkpt lat="44.67363217911157" lon="12.122786407717557"><ele>-2.333333333333333</ele><time>2026-04-25T10:58:30Z</time></trkpt><trkpt lat="44.67369600925099" lon="12.123016462856944"><ele>-2.0</ele><time>2026-04-25T10:58:31Z</time></trkpt><trkpt lat="44.67376175708536" lon="12.12324796281373"><ele>-2.0</ele><time>2026-04-25T10:58:32Z</time></trkpt><trkpt lat="44.673824972892234" lon="12.123487914025006"><ele>-2.0</ele><time>2026-04-25T10:58:33Z</time></trkpt><trkpt lat="44.673892325675716" lon="12.123731518720504"><ele>-2.0</ele><time>2026-04-25T10:58:34Z</time></trkpt><trkpt lat="44.67395892104156" lon="12.123981298167221"><ele>-2.333333333333333</ele><time>2026-04-25T10:58:35Z</time></trkpt><trkpt lat="44.674024966116654" lon="12.124223282814379"><ele>-2.6666666666666665</ele><time>2026-04-25T10:58:36Z</time></trkpt><trkpt lat="44.67409030497714" lon="12.124461174157503"><ele>-3.0</ele><time>2026-04-25T10:58:37Z</time></trkpt><trkpt lat="44.67415627463079" lon="12.124700658365027"><ele>-2.6666666666666665</ele><time>2026-04-25T10:58:38Z</time></trkpt><trkpt lat="44.6742237777774" lon="12.124933609757239"><ele>-2.333333333333333</ele><time>2026-04-25T10:58:39Z</time></trkpt><trkpt lat="44.67428826234955" lon="12.12517759849593"><ele>-2.0</ele><time>2026-04-25T10:58:40Z</time></trkpt><trkpt lat="44.674354723641805" lon="12.125425109607502"><ele>-2.0</ele><time>2026-04-25T10:58:41Z</time></trkpt><trkpt lat="44.6744296789257" lon="12.125690784855404"><ele>-2.0</ele><time>2026-04-25T10:58:42Z</time></trkpt><trkpt lat="44.67450110759627" lon="12.125956737338647"><ele>-2.0</ele><time>2026-04-25T10:58:43Z</time></trkpt><trkpt lat="44.67457182989805" lon="12.126216528079896"><ele>-2.333333333333333</ele><time>2026-04-25T10:58:44Z</time></trkpt><trkpt lat="44.6746422191872" lon="12.12647739243693"><ele>-2.6666666666666665</ele><time>2026-04-25T10:58:45Z</time></trkpt><trkpt lat="44.67471008238617" lon="12.126731639732858"><ele>-3.0</ele><time>2026-04-25T10:58:46Z</time></trkpt><trkpt lat="44.67478240503359" lon="12.12698736516239"><ele>-3.333333333333333</ele><time>2026-04-25T10:58:47Z</time></trkpt><trkpt lat="44.67485665967918" lon="12.127257018283272"><ele>-3.6666666666666665</ele><time>2026-04-25T10:58:48Z</time></trkpt><trkpt lat="44.67491769143506" lon="12.127544426674906"><ele>-4.0</ele><time>2026-04-25T10:58:49Z</time></trkpt><trkpt lat="44.67499535059645" lon="12.127832652632964"><ele>-4.0</ele><time>2026-04-25T10:58:50Z</time></trkpt><trkpt lat="44.67508305712553" lon="12.128094370325893"><ele>-4.0</ele><time>2026-04-25T10:58:51Z</time></trkpt><trkpt lat="44.67514927033956" lon="12.128352670199924"><ele>-4.0</ele><time>2026-04-25T10:58:52Z</time></trkpt><trkpt lat="44.67521200667095" lon="12.12859565865639"><ele>-3.6666666666666665</ele><time>2026-04-25T10:58:53Z</time></trkpt><trkpt lat="44.67527058455251" lon="12.128809602746305"><ele>-3.333333333333333</ele><time>2026-04-25T10:58:54Z</time></trkpt><trkpt lat="44.675330209755074" lon="12.129031044847931"><ele>-3.0</ele><time>2026-04-25T10:58:55Z</time></trkpt><trkpt lat="44.675389975977964" lon="12.129250608716953"><ele>-3.666666666666667</ele><time>2026-04-25T10:58:55.999Z</time></trkpt><trkpt lat="44.675445594314056" lon="12.129455211109901"><ele>-4.333333333333334</ele><time>2026-04-25T10:58:56.999Z</time></trkpt><trkpt lat="44.675501195919814" lon="12.12965649655998"><ele>-5.0</ele><time>2026-04-25T10:58:57.999Z</time></trkpt><trkpt lat="44.67555644925241" lon="12.129857661891291"><ele>-4.75</ele><time>2026-04-25T10:58:58.999Z</time></trkpt><trkpt lat="44.67560721367592" lon="12.130054275124317"><ele>-4.5</ele><time>2026-04-25T10:58:59.999Z</time></trkpt><trkpt lat="44.67565652787396" lon="12.130240440869782"><ele>-4.25</ele><time>2026-04-25T10:59:00.999Z</time></trkpt><trkpt lat="44.67570721112846" lon="12.13042795105484"><ele>-4.0</ele><time>2026-04-25T10:59:01.999Z</time></trkpt><trkpt lat="44.67576166864004" lon="12.130625323328454"><ele>-3.6666666666666665</ele><time>2026-04-25T10:59:02.999Z</time></trkpt><trkpt lat="44.675820380710775" lon="12.1308339444792"><ele>-3.333333333333333</ele><time>2026-04-25T10:59:03.999Z</time></trkpt><trkpt lat="44.67588299294488" lon="12.131054800473331"><ele>-3.0</ele><time>2026-04-25T10:59:04.999Z</time></trkpt><trkpt lat="44.67593207853926" lon="12.131297011608675"><ele>-3.0</ele><time>2026-04-25T10:59:05.999Z</time></trkpt><trkpt lat="44.675997990867074" lon="12.131541043295094"><ele>-3.0</ele><time>2026-04-25T10:59:06.999Z</time></trkpt><trkpt lat="44.67606598328349" lon="12.131792776193661"><ele>-3.0</ele><time>2026-04-25T10:59:07.999Z</time></trkpt><trkpt lat="44.67614577678445" lon="12.132047086265576"><ele>-3.0</ele><time>2026-04-25T10:59:08.999Z</time></trkpt><trkpt lat="44.67621211276067" lon="12.132315793667965"><ele>-3.0</ele><time>2026-04-25T10:59:09.999Z</time></trkpt><trkpt lat="44.67628376363357" lon="12.132585117279953"><ele>-3.0</ele><time>2026-04-25T10:59:11Z</time></trkpt><trkpt lat="44.67635626845435" lon="12.132856191285786"><ele>-3.0</ele><time>2026-04-25T10:59:12Z</time></trkpt><trkpt lat="44.67642871226887" lon="12.133128096421432"><ele>-3.0</ele><time>2026-04-25T10:59:13Z</time></trkpt><trkpt lat="44.67650256892667" lon="12.133403609857108"><ele>-3.0</ele><time>2026-04-25T10:59:14Z</time></trkpt><trkpt lat="44.67657750568911" lon="12.133680493381043"><ele>-3.0</ele><time>2026-04-25T10:59:15Z</time></trkpt><trkpt lat="44.67665127029538" lon="12.133958634986271"><ele>-3.0</ele><time>2026-04-25T10:59:16Z</time></trkpt><trkpt lat="44.67672609227093" lon="12.134238065914358"><ele>-3.0</ele><time>2026-04-25T10:59:17Z</time></trkpt><trkpt lat="44.67680135294013" lon="12.134518225216127"><ele>-3.0</ele><time>2026-04-25T10:59:18Z</time></trkpt><trkpt lat="44.67687866673808" lon="12.134798191903748"><ele>-3.0</ele><time>2026-04-25T10:59:19Z</time></trkpt><trkpt lat="44.676955205975766" lon="12.135081179177458"><ele>-3.0</ele><time>2026-04-25T10:59:20Z</time></trkpt><trkpt lat="44.67703192883656" lon="12.135365573009922"><ele>-3.0</ele><time>2026-04-25T10:59:21Z</time></trkpt><trkpt lat="44.6771121629681" lon="12.135649834087708"><ele>-3.0</ele><time>2026-04-25T10:59:22Z</time></trkpt><trkpt lat="44.67719262191241" lon="12.135935456319773"><ele>-3.0</ele><time>2026-04-25T10:59:23Z</time></trkpt><trkpt lat="44.677271516350494" lon="12.136220147483812"><ele>-3.0</ele><time>2026-04-25T10:59:24Z</time></trkpt><trkpt lat="44.677355039990175" lon="12.13651165938705"><ele>-3.0</ele><time>2026-04-25T10:59:25Z</time></trkpt><trkpt lat="44.67743336118305" lon="12.13679918811411"><ele>-3.0</ele><time>2026-04-25T10:59:26Z</time></trkpt><trkpt lat="44.67751210049555" lon="12.13708440835562"><ele>-3.0</ele><time>2026-04-25T10:59:27Z</time></trkpt><trkpt lat="44.67757595626872" lon="12.137373347665758"><ele>-3.0</ele><time>2026-04-25T10:59:28Z</time></trkpt><trkpt lat="44.67765310237481" lon="12.137662458264248"><ele>-3.0</ele><time>2026-04-25T10:59:29Z</time></trkpt><trkpt lat="44.677723603488644" lon="12.13792381431541"><ele>-2.6666666666666665</ele><time>2026-04-25T10:59:30Z</time></trkpt><trkpt lat="44.67780069529027" lon="12.138210274922857"><ele>-2.333333333333333</ele><time>2026-04-25T10:59:31Z</time></trkpt><trkpt lat="44.67787837530271" lon="12.138498829865611"><ele>-2.0</ele><time>2026-04-25T10:59:32Z</time></trkpt><trkpt lat="44.67795429107771" lon="12.138779623486945"><ele>-2.0</ele><time>2026-04-25T10:59:33Z</time></trkpt><trkpt lat="44.67802631511722" lon="12.139046022492385"><ele>-2.0</ele><time>2026-04-25T10:59:34Z</time></trkpt><trkpt lat="44.67809799361292" lon="12.139311143429484"><ele>-2.0</ele><time>2026-04-25T10:59:35Z</time></trkpt><trkpt lat="44.678182663841156" lon="12.139680732771632"><ele>-2.333333333333333</ele><time>2026-04-25T10:59:36Z</time></trkpt><trkpt lat="44.67827140479231" lon="12.139962584615699"><ele>-2.6666666666666665</ele><time>2026-04-25T10:59:37Z</time></trkpt><trkpt lat="44.67835241069981" lon="12.140251503632559"><ele>-3.0</ele><time>2026-04-25T10:59:38Z</time></trkpt><trkpt lat="44.67843039269298" lon="12.140543593295622"><ele>-3.333333333333333</ele><time>2026-04-25T10:59:39Z</time></trkpt><trkpt lat="44.678509917713434" lon="12.14082887991056"><ele>-3.6666666666666665</ele><time>2026-04-25T10:59:40Z</time></trkpt><trkpt lat="44.67859045802726" lon="12.141116995253212"><ele>-4.0</ele><time>2026-04-25T10:59:41Z</time></trkpt><trkpt lat="44.67866800943179" lon="12.141411745361125"><ele>-3.6666666666666665</ele><time>2026-04-25T10:59:42Z</time></trkpt><trkpt lat="44.678747307605896" lon="12.141699898468062"><ele>-3.333333333333333</ele><time>2026-04-25T10:59:43Z</time></trkpt><trkpt lat="44.67882295366169" lon="12.141978492960124"><ele>-3.0</ele><time>2026-04-25T10:59:44Z</time></trkpt><trkpt lat="44.67889953182963" lon="12.142251193054625"><ele>-2.6666666666666665</ele><time>2026-04-25T10:59:45Z</time></trkpt><trkpt lat="44.678974644144795" lon="12.142530357738883"><ele>-2.333333333333333</ele><time>2026-04-25T10:59:46Z</time></trkpt><trkpt lat="44.67904967517277" lon="12.142791490112309"><ele>-2.0</ele><time>2026-04-25T10:59:47Z</time></trkpt><trkpt lat="44.67911448368246" lon="12.143041016481213"><ele>-1.6666666666666665</ele><time>2026-04-25T10:59:48Z</time></trkpt><trkpt lat="44.67917584453043" lon="12.143281001316634"><ele>-1.3333333333333333</ele><time>2026-04-25T10:59:49Z</time></trkpt><trkpt lat="44.67923959156409" lon="12.143507960566819"><ele>-1.0</ele><time>2026-04-25T10:59:50Z</time></trkpt><trkpt lat="44.679298668405636" lon="12.143726272563336"><ele>-1.0</ele><time>2026-04-25T10:59:51Z</time></trkpt><trkpt lat="44.67935511348626" lon="12.143939455126619"><ele>-1.0</ele><time>2026-04-25T10:59:52Z</time></trkpt><trkpt lat="44.67941407926256" lon="12.144155253345874"><ele>-1.0</ele><time>2026-04-25T10:59:53Z</time></trkpt><trkpt lat="44.67947591702457" lon="12.144379091084451"><ele>-1.3333333333333333</ele><time>2026-04-25T10:59:54Z</time></trkpt><trkpt lat="44.67953776915043" lon="12.14462018748852"><ele>-1.6666666666666665</ele><time>2026-04-25T10:59:55Z</time></trkpt><trkpt lat="44.67960408869887" lon="12.144865942304145"><ele>-2.0</ele><time>2026-04-25T10:59:56Z</time></trkpt><trkpt lat="44.67967348506296" lon="12.145123036190196"><ele>-2.333333333333333</ele><time>2026-04-25T10:59:57Z</time></trkpt><trkpt lat="44.67974505650924" lon="12.145386430674645"><ele>-2.6666666666666665</ele><time>2026-04-25T10:59:58Z</time></trkpt><trkpt lat="44.67981353138605" lon="12.145645404185439"><ele>-3.0</ele><time>2026-04-25T10:59:59Z</time></trkpt><trkpt lat="44.67988301110319" lon="12.14590442517441"><ele>-3.0</ele><time>2026-04-25T11:00:00Z</time></trkpt><trkpt lat="44.679954004034705" lon="12.146163269626046"><ele>-3.0</ele><time>2026-04-25T11:00:01Z</time></trkpt><trkpt lat="44.68002489001255" lon="12.146423825686014"><ele>-3.0</ele><time>2026-04-25T11:00:02Z</time></trkpt><trkpt lat="44.68009491422754" lon="12.146686579844134"><ele>-3.0</ele><time>2026-04-25T11:00:03Z</time></trkpt><trkpt lat="44.68016557601744" lon="12.146949335573847"><ele>-3.0</ele><time>2026-04-25T11:00:04Z</time></trkpt><trkpt lat="44.68023733074821" lon="12.147215959992337"><ele>-3.0</ele><time>2026-04-25T11:00:05Z</time></trkpt><trkpt lat="44.68030901555231" lon="12.14748076511853"><ele>-3.0</ele><time>2026-04-25T11:00:06Z</time></trkpt><trkpt lat="44.68038056100241" lon="12.147748304125583"><ele>-3.0</ele><time>2026-04-25T11:00:07Z</time></trkpt><trkpt lat="44.680452965017004" lon="12.14801570129379"><ele>-3.0</ele><time>2026-04-25T11:00:08Z</time></trkpt><trkpt lat="44.680526961868075" lon="12.148287127387883"><ele>-2.3333333333333335</ele><time>2026-04-25T11:00:09Z</time></trkpt><trkpt lat="44.68060208267492" lon="12.148563708258543"><ele>-1.6666666666666665</ele><time>2026-04-25T11:00:10Z</time></trkpt><trkpt lat="44.68067587222469" lon="12.148840295415546"><ele>-1.0</ele><time>2026-04-25T11:00:11Z</time></trkpt><trkpt lat="44.68074866718564" lon="12.149119745891202"><ele>-1.0</ele><time>2026-04-25T11:00:12Z</time></trkpt><trkpt lat="44.68082447825228" lon="12.14940007505442"><ele>-1.0</ele><time>2026-04-25T11:00:13Z</time></trkpt><trkpt lat="44.68089932573431" lon="12.149680689687884"><ele>-1.0</ele><time>2026-04-25T11:00:14Z</time></trkpt><trkpt lat="44.680977325295196" lon="12.149961303114008"><ele>-1.3333333333333333</ele><time>2026-04-25T11:00:15Z</time></trkpt><trkpt lat="44.68105325422522" lon="12.15024214653945"><ele>-1.6666666666666665</ele><time>2026-04-25T11:00:16Z</time></trkpt><trkpt lat="44.68112972039885" lon="12.150523244377473"><ele>-2.0</ele><time>2026-04-25T11:00:17Z</time></trkpt><trkpt lat="44.681205886730275" lon="12.15080537005521"><ele>-2.6666666666666665</ele><time>2026-04-25T11:00:18Z</time></trkpt><trkpt lat="44.68128123436029" lon="12.151084406254036"><ele>-3.333333333333333</ele><time>2026-04-25T11:00:19Z</time></trkpt><trkpt lat="44.68135613920956" lon="12.15136503921151"><ele>-4.0</ele><time>2026-04-25T11:00:20Z</time></trkpt><trkpt lat="44.68143089672886" lon="12.151643909860487"><ele>-4.0</ele><time>2026-04-25T11:00:21Z</time></trkpt><trkpt lat="44.681503541382554" lon="12.151920825462415"><ele>-4.0</ele><time>2026-04-25T11:00:22Z</time></trkpt><trkpt lat="44.68157801149054" lon="12.152198250672484"><ele>-4.0</ele><time>2026-04-25T11:00:23Z</time></trkpt><trkpt lat="44.681653396549144" lon="12.152473188938002"><ele>-4.0</ele><time>2026-04-25T11:00:24Z</time></trkpt><trkpt lat="44.68172826851445" lon="12.152746896656925"><ele>-4.0</ele><time>2026-04-25T11:00:25Z</time></trkpt><trkpt lat="44.681802424763866" lon="12.153019804247636"><ele>-4.0</ele><time>2026-04-25T11:00:26Z</time></trkpt><trkpt lat="44.681875350884035" lon="12.153291445174133"><ele>-4.0</ele><time>2026-04-25T11:00:27Z</time></trkpt><trkpt lat="44.681949214826616" lon="12.153564309247386"><ele>-4.0</ele><time>2026-04-25T11:00:28Z</time></trkpt><trkpt lat="44.68202132234625" lon="12.153837701267102"><ele>-4.0</ele><time>2026-04-25T11:00:29Z</time></trkpt><trkpt lat="44.68209349140625" lon="12.154109354722927"><ele>-4.0</ele><time>2026-04-25T11:00:30Z</time></trkpt><trkpt lat="44.6821668662132" lon="12.154379816126632"><ele>-4.0</ele><time>2026-04-25T11:00:31Z</time></trkpt><trkpt lat="44.68223906426376" lon="12.15464935682087"><ele>-4.0</ele><time>2026-04-25T11:00:32Z</time></trkpt><trkpt lat="44.68231139129857" lon="12.154914205792567"><ele>-4.0</ele><time>2026-04-25T11:00:33Z</time></trkpt><trkpt lat="44.68238341840404" lon="12.155178685970569"><ele>-4.0</ele><time>2026-04-25T11:00:34Z</time></trkpt><trkpt lat="44.682454501607175" lon="12.155443946283965"><ele>-4.0</ele><time>2026-04-25T11:00:35Z</time></trkpt><trkpt lat="44.68252731849962" lon="12.155708498437509"><ele>-4.0</ele><time>2026-04-25T11:00:36Z</time></trkpt><trkpt lat="44.68259874759285" lon="12.155977601838721"><ele>-4.0</ele><time>2026-04-25T11:00:37Z</time></trkpt><trkpt lat="44.68266886163738" lon="12.15624748736376"><ele>-4.0</ele><time>2026-04-25T11:00:38Z</time></trkpt><trkpt lat="44.68273952591967" lon="12.156511745504963"><ele>-4.0</ele><time>2026-04-25T11:00:39Z</time></trkpt><trkpt lat="44.68281253456483" lon="12.15677690091702"><ele>-4.0</ele><time>2026-04-25T11:00:40Z</time></trkpt><trkpt lat="44.68288496205505" lon="12.157041240272589"><ele>-4.0</ele><time>2026-04-25T11:00:41Z</time></trkpt><trkpt lat="44.68295791052387" lon="12.157308197647428"><ele>-3.333333333333333</ele><time>2026-04-25T11:00:42Z</time></trkpt><trkpt lat="44.68303079531793" lon="12.157576161840435"><ele>-2.6666666666666665</ele><time>2026-04-25T11:00:43Z</time></trkpt><trkpt lat="44.68310229529627" lon="12.157841841621524"><ele>-2.0</ele><time>2026-04-25T11:00:44Z</time></trkpt><trkpt lat="44.68317445857209" lon="12.158104735329234"><ele>-2.6666666666666665</ele><time>2026-04-25T11:00:45Z</time></trkpt><trkpt lat="44.68324713817788" lon="12.158370099173183"><ele>-3.333333333333333</ele><time>2026-04-25T11:00:46Z</time></trkpt><trkpt lat="44.68331819756937" lon="12.158632557644856"><ele>-4.0</ele><time>2026-04-25T11:00:47Z</time></trkpt><trkpt lat="44.68338850147038" lon="12.158897427028664"><ele>-4.0</ele><time>2026-04-25T11:00:48Z</time></trkpt><trkpt lat="44.68345848604982" lon="12.159161019981614"><ele>-4.0</ele><time>2026-04-25T11:00:49Z</time></trkpt><trkpt lat="44.68352883420775" lon="12.159425967098404"><ele>-4.0</ele><time>2026-04-25T11:00:50Z</time></trkpt><trkpt lat="44.683598753369" lon="12.159690944463451"><ele>-3.6666666666666665</ele><time>2026-04-25T11:00:51Z</time></trkpt><trkpt lat="44.68367090133315" lon="12.159957659041762"><ele>-3.333333333333333</ele><time>2026-04-25T11:00:52Z</time></trkpt><trkpt lat="44.683743973479245" lon="12.160226377131409"><ele>-3.0</ele><time>2026-04-25T11:00:53Z</time></trkpt><trkpt lat="44.68381726359073" lon="12.160495338816729"><ele>-3.0</ele><time>2026-04-25T11:00:54Z</time></trkpt><trkpt lat="44.68388960948317" lon="12.160768178053267"><ele>-3.0</ele><time>2026-04-25T11:00:55Z</time></trkpt><trkpt lat="44.68396430188057" lon="12.1610403719189"><ele>-3.0</ele><time>2026-04-25T11:00:56Z</time></trkpt><trkpt lat="44.68403853398871" lon="12.161318451159968"><ele>-3.333333333333333</ele><time>2026-04-25T11:00:57Z</time></trkpt><trkpt lat="44.684112948896036" lon="12.161595375710853"><ele>-3.6666666666666665</ele><time>2026-04-25T11:00:58Z</time></trkpt><trkpt lat="44.684187366405155" lon="12.161873615195399"><ele>-4.0</ele><time>2026-04-25T11:00:59Z</time></trkpt><trkpt lat="44.68426154281413" lon="12.162151739541377"><ele>-4.0</ele><time>2026-04-25T11:01:00Z</time></trkpt><trkpt lat="44.68433701328495" lon="12.162430458041113"><ele>-4.0</ele><time>2026-04-25T11:01:01Z</time></trkpt><trkpt lat="44.68441296678021" lon="12.162708931349998"><ele>-4.0</ele><time>2026-04-25T11:01:01.999Z</time></trkpt><trkpt lat="44.684489750222255" lon="12.16298605442368"><ele>-4.0</ele><time>2026-04-25T11:01:03Z</time></trkpt><trkpt lat="44.684565482811486" lon="12.16326068341855"><ele>-4.0</ele><time>2026-04-25T11:01:04Z</time></trkpt><trkpt lat="44.68464139124961" lon="12.163534147286727"><ele>-4.0</ele><time>2026-04-25T11:01:05Z</time></trkpt><trkpt lat="44.68471588593086" lon="12.163807408593549"><ele>-3.333333333333333</ele><time>2026-04-25T11:01:06Z</time></trkpt><trkpt lat="44.68479187403804" lon="12.16408440939819"><ele>-2.6666666666666665</ele><time>2026-04-25T11:01:07Z</time></trkpt><trkpt lat="44.68486873553083" lon="12.164364866978886"><ele>-2.0</ele><time>2026-04-25T11:01:08Z</time></trkpt><trkpt lat="44.68494285037303" lon="12.164644897734211"><ele>-2.333333333333333</ele><time>2026-04-25T11:01:09Z</time></trkpt><trkpt lat="44.685017680186974" lon="12.164925872657284"><ele>-2.6666666666666665</ele><time>2026-04-25T11:01:10Z</time></trkpt><trkpt lat="44.685093354463284" lon="12.165209554021004"><ele>-3.0</ele><time>2026-04-25T11:01:11Z</time></trkpt><trkpt lat="44.68516788367425" lon="12.16549005918517"><ele>-3.333333333333333</ele><time>2026-04-25T11:01:12Z</time></trkpt><trkpt lat="44.685243383042604" lon="12.165773626948459"><ele>-3.6666666666666665</ele><time>2026-04-25T11:01:13Z</time></trkpt><trkpt lat="44.685318135016686" lon="12.166055595463899"><ele>-4.0</ele><time>2026-04-25T11:01:14Z</time></trkpt><trkpt lat="44.685394042933474" lon="12.166335419786664"><ele>-3.6666666666666665</ele><time>2026-04-25T11:01:15Z</time></trkpt><trkpt lat="44.68546908048188" lon="12.16661911160842"><ele>-3.333333333333333</ele><time>2026-04-25T11:01:16Z</time></trkpt><trkpt lat="44.68554547950183" lon="12.166901491753551"><ele>-3.0</ele><time>2026-04-25T11:01:17Z</time></trkpt><trkpt lat="44.68562003692919" lon="12.167181876338521"><ele>-3.333333333333333</ele><time>2026-04-25T11:01:18Z</time></trkpt><trkpt lat="44.68569665764588" lon="12.167463726551228"><ele>-3.6666666666666665</ele><time>2026-04-25T11:01:19Z</time></trkpt><trkpt lat="44.68577279026361" lon="12.167746228624697"><ele>-4.0</ele><time>2026-04-25T11:01:20Z</time></trkpt><trkpt lat="44.68584722718386" lon="12.168027589497601"><ele>-4.0</ele><time>2026-04-25T11:01:21Z</time></trkpt><trkpt lat="44.685922410453244" lon="12.16830493856682"><ele>-4.0</ele><time>2026-04-25T11:01:22Z</time></trkpt><trkpt lat="44.68599659857112" lon="12.168576829395327"><ele>-4.0</ele><time>2026-04-25T11:01:23Z</time></trkpt><trkpt lat="44.6860697032375" lon="12.168847343800024"><ele>-4.333333333333333</ele><time>2026-04-25T11:01:24Z</time></trkpt><trkpt lat="44.68614408611879" lon="12.169119559269998"><ele>-4.666666666666667</ele><time>2026-04-25T11:01:25Z</time></trkpt><trkpt lat="44.68621910677882" lon="12.16939450665597"><ele>-5.0</ele><time>2026-04-25T11:01:26Z</time></trkpt><trkpt lat="44.686295513059406" lon="12.169668694749987"><ele>-4.666666666666667</ele><time>2026-04-25T11:01:27Z</time></trkpt><trkpt lat="44.68637071025243" lon="12.169942817256903"><ele>-4.333333333333333</ele><time>2026-04-25T11:01:28Z</time></trkpt><trkpt lat="44.68644556944268" lon="12.170219698932865"><ele>-4.0</ele><time>2026-04-25T11:01:29Z</time></trkpt><trkpt lat="44.68651863483202" lon="12.1704958082844"><ele>-4.0</ele><time>2026-04-25T11:01:30Z</time></trkpt><trkpt lat="44.686594265788976" lon="12.170775392950485"><ele>-4.0</ele><time>2026-04-25T11:01:31Z</time></trkpt><trkpt lat="44.686669213972976" lon="12.171056687298563"><ele>-4.0</ele><time>2026-04-25T11:01:32Z</time></trkpt><trkpt lat="44.68674383829544" lon="12.171335457278703"><ele>-4.0</ele><time>2026-04-25T11:01:33Z</time></trkpt><trkpt lat="44.68681844287782" lon="12.171616407083203"><ele>-4.0</ele><time>2026-04-25T11:01:34Z</time></trkpt><trkpt lat="44.6868953704562" lon="12.171897188885254"><ele>-4.0</ele><time>2026-04-25T11:01:35Z</time></trkpt><trkpt lat="44.68697179898211" lon="12.172176477893302"><ele>-4.0</ele><time>2026-04-25T11:01:36Z</time></trkpt><trkpt lat="44.68704769064769" lon="12.172452141852055"><ele>-4.0</ele><time>2026-04-25T11:01:37Z</time></trkpt><trkpt lat="44.68711842945062" lon="12.172712699062096"><ele>-4.0</ele><time>2026-04-25T11:01:38Z</time></trkpt><trkpt lat="44.68718574206498" lon="12.172963418547692"><ele>-4.0</ele><time>2026-04-25T11:01:39Z</time></trkpt><trkpt lat="44.68725008694837" lon="12.17320166887499"><ele>-4.0</ele><time>2026-04-25T11:01:40Z</time></trkpt><trkpt lat="44.68731060707774" lon="12.173431128538514"><ele>-4.0</ele><time>2026-04-25T11:01:41Z</time></trkpt><trkpt lat="44.6873686488042" lon="12.173653543646557"><ele>-4.0</ele><time>2026-04-25T11:01:42Z</time></trkpt><trkpt lat="44.687425960934256" lon="12.17387211688787"><ele>-4.0</ele><time>2026-04-25T11:01:43Z</time></trkpt><trkpt lat="44.68748105947278" lon="12.174078534770251"><ele>-4.0</ele><time>2026-04-25T11:01:44Z</time></trkpt><trkpt lat="44.68753379959164" lon="12.174278913509443"><ele>-3.75</ele><time>2026-04-25T11:01:45Z</time></trkpt><trkpt lat="44.6875855734997" lon="12.17446607026057"><ele>-3.5</ele><time>2026-04-25T11:01:46Z</time></trkpt><trkpt lat="44.687635409770685" lon="12.174647530262426"><ele>-3.25</ele><time>2026-04-25T11:01:47Z</time></trkpt><trkpt lat="44.68768410979346" lon="12.174817883302184"><ele>-3.0</ele><time>2026-04-25T11:01:48Z</time></trkpt><trkpt lat="44.687741508736174" lon="12.174987475540865"><ele>-3.25</ele><time>2026-04-25T11:01:49Z</time></trkpt><trkpt lat="44.68781229176778" lon="12.175145554521205"><ele>-3.5</ele><time>2026-04-25T11:01:50Z</time></trkpt><trkpt lat="44.68788950748143" lon="12.175283129912579"><ele>-3.75</ele><time>2026-04-25T11:01:51Z</time></trkpt><trkpt lat="44.68796833601488" lon="12.175400575368972"><ele>-4.0</ele><time>2026-04-25T11:01:52.001Z</time></trkpt><trkpt lat="44.68804971375146" lon="12.17550625667068"><ele>-4.0</ele><time>2026-04-25T11:01:53.001Z</time></trkpt><trkpt lat="44.68813764467636" lon="12.17560239173052"><ele>-4.0</ele><time>2026-04-25T11:01:54.001Z</time></trkpt><trkpt lat="44.6882238814691" lon="12.175688498610741"><ele>-4.0</ele><time>2026-04-25T11:01:55.001Z</time></trkpt><trkpt lat="44.68831146835794" lon="12.175766221323515"><ele>-4.0</ele><time>2026-04-25T11:01:56.001Z</time></trkpt><trkpt lat="44.688406729189516" lon="12.175836598961444"><ele>-4.0</ele><time>2026-04-25T11:01:57.001Z</time></trkpt><trkpt lat="44.68850560574476" lon="12.175909736515269"><ele>-3.8000000000000003</ele><time>2026-04-25T11:01:58.001Z</time></trkpt><trkpt lat="44.68860184055185" lon="12.175988456093036"><ele>-3.6000000000000005</ele><time>2026-04-25T11:01:59.001Z</time></trkpt><trkpt lat="44.688694005658505" lon="12.176062031731368"><ele>-3.4</ele><time>2026-04-25T11:02:00.001Z</time></trkpt><trkpt lat="44.688787815826835" lon="12.176135361595767"><ele>-3.2</ele><time>2026-04-25T11:02:01.001Z</time></trkpt><trkpt lat="44.68888167610841" lon="12.17620652303604"><ele>-3.0</ele><time>2026-04-25T11:02:02.001Z</time></trkpt><trkpt lat="44.688979581736184" lon="12.176276733711603"><ele>-3.0</ele><time>2026-04-25T11:02:03.001Z</time></trkpt><trkpt lat="44.68908023668618" lon="12.17634571136457"><ele>-3.0</ele><time>2026-04-25T11:02:04.001Z</time></trkpt><trkpt lat="44.68918675476014" lon="12.176416355683788"><ele>-3.0</ele><time>2026-04-25T11:02:05.001Z</time></trkpt><trkpt lat="44.68929665131451" lon="12.17648172110205"><ele>-3.0</ele><time>2026-04-25T11:02:06.001Z</time></trkpt><trkpt lat="44.68940381654386" lon="12.176549849342672"><ele>-3.2</ele><time>2026-04-25T11:02:07.001Z</time></trkpt><trkpt lat="44.68950431329486" lon="12.176612713042251"><ele>-3.4</ele><time>2026-04-25T11:02:08.001Z</time></trkpt><trkpt lat="44.68960169855558" lon="12.176669907341294"><ele>-3.6000000000000005</ele><time>2026-04-25T11:02:09.001Z</time></trkpt><trkpt lat="44.689690016548795" lon="12.176730991580106"><ele>-3.8000000000000003</ele><time>2026-04-25T11:02:10.001Z</time></trkpt><trkpt lat="44.68978002229308" lon="12.176783648032995"><ele>-4.0</ele><time>2026-04-25T11:02:11.001Z</time></trkpt><trkpt lat="44.689864865514295" lon="12.176837806843865"><ele>-4.0</ele><time>2026-04-25T11:02:12.001Z</time></trkpt><trkpt lat="44.689948733317735" lon="12.176893534345778"><ele>-4.0</ele><time>2026-04-25T11:02:13.001Z</time></trkpt><trkpt lat="44.69003280274409" lon="12.17695706794394"><ele>-4.0</ele><time>2026-04-25T11:02:14.001Z</time></trkpt><trkpt lat="44.6901149604211" lon="12.17702778577595"><ele>-4.0</ele><time>2026-04-25T11:02:15.001Z</time></trkpt><trkpt lat="44.69019886664597" lon="12.177103129336802"><ele>-4.0</ele><time>2026-04-25T11:02:16.001Z</time></trkpt><trkpt lat="44.69028337298934" lon="12.177189789368827"><ele>-4.166666666666666</ele><time>2026-04-25T11:02:17.001Z</time></trkpt><trkpt lat="44.69036228301994" lon="12.17728255474352"><ele>-4.333333333333333</ele><time>2026-04-25T11:02:18.001Z</time></trkpt><trkpt lat="44.69043091016137" lon="12.177378217078632"><ele>-4.5</ele><time>2026-04-25T11:02:19.001Z</time></trkpt><trkpt lat="44.69048883065823" lon="12.177459991696525"><ele>-4.666666666666667</ele><time>2026-04-25T11:02:20.001Z</time></trkpt><trkpt lat="44.690539156207414" lon="12.17754041511198"><ele>-4.833333333333334</ele><time>2026-04-25T11:02:21.001Z</time></trkpt><trkpt lat="44.69058487428522" lon="12.177615590598053"><ele>-5.0</ele><time>2026-04-25T11:02:22.001Z</time></trkpt><trkpt lat="44.69062923043493" lon="12.177697902157853"><ele>-5.0</ele><time>2026-04-25T11:02:23.001Z</time></trkpt><trkpt lat="44.690673511998384" lon="12.177790462888105"><ele>-5.0</ele><time>2026-04-25T11:02:24.001Z</time></trkpt><trkpt lat="44.69071039934724" lon="12.177885793511097"><ele>-5.0</ele><time>2026-04-25T11:02:25.001Z</time></trkpt><trkpt lat="44.690741724693595" lon="12.177964112840835"><ele>-5.0</ele><time>2026-04-25T11:02:26.001Z</time></trkpt><trkpt lat="44.69080410204789" lon="12.17811644830564"><ele>-5.0</ele><time>2026-04-25T11:02:28.001Z</time></trkpt><trkpt lat="44.69086185618971" lon="12.178245589168775"><ele>-4.8</ele><time>2026-04-25T11:02:30.001Z</time></trkpt><trkpt lat="44.690918407108974" lon="12.178371761619289"><ele>-4.6</ele><time>2026-04-25T11:02:32.001Z</time></trkpt><trkpt lat="44.690971365729276" lon="12.178488764364168"><ele>-4.4</ele><time>2026-04-25T11:02:34.001Z</time></trkpt><trkpt lat="44.69102299946008" lon="12.178610632171589"><ele>-4.2</ele><time>2026-04-25T11:02:36.001Z</time></trkpt><trkpt lat="44.69107644593098" lon="12.178730586361539"><ele>-4.0</ele><time>2026-04-25T11:02:38.001Z</time></trkpt><trkpt lat="44.69111376750477" lon="12.178806182826762"><ele>-3.9999999999999996</ele><time>2026-04-25T11:02:40.001Z</time></trkpt><trkpt lat="44.69114838245371" lon="12.178933885128638"><ele>-4.0</ele><time>2026-04-25T11:02:43.001Z</time></trkpt><trkpt lat="44.69109285512974" lon="12.179052536255943"><ele>-4.0</ele><time>2026-04-25T11:02:45.001Z</time></trkpt><trkpt lat="44.69104439662346" lon="12.1791210748242"><ele>-4.0</ele><time>2026-04-25T11:02:46.001Z</time></trkpt><trkpt lat="44.69100284093487" lon="12.179195917739447"><ele>-3.9999999999999996</ele><time>2026-04-25T11:02:47.001Z</time></trkpt><trkpt lat="44.69096084378107" lon="12.179288066742345"><ele>-4.0</ele><time>2026-04-25T11:02:48.001Z</time></trkpt><trkpt lat="44.69092752254875" lon="12.179387099266505"><ele>-3.714285714285714</ele><time>2026-04-25T11:02:49.001Z</time></trkpt><trkpt lat="44.6909033979209" lon="12.179490596037182"><ele>-3.428571428571428</ele><time>2026-04-25T11:02:50.001Z</time></trkpt><trkpt lat="44.690891941670394" lon="12.17958754755661"><ele>-3.142857142857143</ele><time>2026-04-25T11:02:51.001Z</time></trkpt><trkpt lat="44.69088726146974" lon="12.179678923489742"><ele>-2.8571428571428568</ele><time>2026-04-25T11:02:52.001Z</time></trkpt><trkpt lat="44.69088582813237" lon="12.17978195879592"><ele>-2.571428571428571</ele><time>2026-04-25T11:02:53.001Z</time></trkpt><trkpt lat="44.690891816731714" lon="12.179889645468556"><ele>-2.2857142857142856</ele><time>2026-04-25T11:02:54.001Z</time></trkpt><trkpt lat="44.69090719567982" lon="12.179985751313666"><ele>-2.0</ele><time>2026-04-25T11:02:55.001Z</time></trkpt><trkpt lat="44.69092220547665" lon="12.180077856865918"><ele>-1.6666666666666665</ele><time>2026-04-25T11:02:56.001Z</time></trkpt><trkpt lat="44.690942700893125" lon="12.180231909304256"><ele>-1.3333333333333333</ele><time>2026-04-25T11:02:58.001Z</time></trkpt><trkpt lat="44.69095546421034" lon="12.180326922181672"><ele>-1.0</ele><time>2026-04-25T11:03:00.001Z</time></trkpt><trkpt lat="44.6908976621198" lon="12.180422103195516"><ele>-0.6666666666666666</ele><time>2026-04-25T11:03:02.001Z</time></trkpt><trkpt lat="44.69083132540968" lon="12.180430113112982"><ele>-0.3333333333333333</ele><time>2026-04-25T11:03:05.001Z</time></trkpt><trkpt lat="44.69080331935263" lon="12.180327561367093"><ele>0.0</ele><time>2026-04-25T11:03:10Z</time></trkpt><trkpt lat="44.69085691895905" lon="12.180478652167967"><ele>0.0</ele><time>2026-04-25T11:03:25Z</time></trkpt></trkseg></trk></gpx>